     2              OBSERVATION DATA    GPS                 RINEX VERSION / TYPE
ASRINEXO V2.2.0 UX USGS 10-MAR-94 10:34                     PGM / RUN BY / DATE
                                                            COMMENT
Original Marker Name: BULL                                  COMMENT
Campaign Name: USGS-So. Cal Monit                           COMMENT
4-Character Station Name: BULL                              COMMENT
6-Character Antenna Code: ASHP12                            COMMENT
Vertical Measurement Point: EGP                             COMMENT
Vertical Offset to Rinex Ref. Point: 0.0593                 COMMENT
Radial Measurement Point: EGP                               COMMENT
Radial Offset to Rinex Ref. Point: 0.1425                   COMMENT
Antenna Height from Field Measurement: 1.2270 m             COMMENT
Additional Antenna Identification Info.:                    COMMENT
Ashtech L1/L2 Revision B                                    COMMENT
Original XYZ: -2363874.7900 -3547654.4200 4728641.7300      COMMENT
New XYZ position is based on association with SCEC monument COMMENT
E1E9U9U1+0011. Position of that monument is believed to be  COMMENT
valid to within 1 m horizontally; vertical accuracy         COMMENT
should be no worse than 3-times this value.                 COMMENT
                                                            COMMENT
Revised Rinex header created by UCSD GPS archive for        COMMENT
GSAC on 10-Nov-1999 (1999:314) 21:22:49 GMT                 COMMENT
For assistance contact dagnew@ucsd.edu or hjohnson@ucsd.edu COMMENT
                                                            COMMENT
BULL                                                        MARKER NAME
                                                            MARKER NUMBER
JMS US GEOLOGICAL SURVEY                                    OBSERVER / AGENCY
99 ASHTECH L-XII 6A                                         REC # / TYPE / VERS
36 ASHTECH GEODETIC P                                       ANT # / TYPE
 -2505870.0000 -4604998.0000  3621819.0000                  APPROX POSITION XYZ
        1.1594        0.0000        0.0000                  ANTENNA: DELTA H/E/N
     1     2     0                                          WAVELENGTH FACT L1/2
     3    C1    L1    L2                                    # / TYPES OF OBSERV
    30                                                      INTERVAL
  1991    12     4    13     0   30.000000                  TIME OF FIRST OBS
  1991    12     4    19     1   30.000000                  TIME OF LAST OBS
                                                            END OF HEADER
 91 12  4 13  0 30.0000000  0  1 12
  23415369.372       80615.193 7     62817.147 4
 91 12  4 13  1  0.0000000  0  2 16 12
  23725316.405     -171907.771 7   -133954.408 4
  23730910.230      163374.263 7    127304.744 3
 91 12  4 13  1 30.0000000  0  3 20 16 12
  20664624.576      -69785.312 9    -54378.690 7
  21910299.714      -84012.322 7    -65464.572 3
  21948083.466       82302.036 7     64131.571 4
 91 12  4 13  2  0.0000000  0  4 20 16 24 12
  22450063.148      -67611.648 9    -52684.803 7
  23692972.688      -81683.701 7    -63649.982 4
  22396049.542       48713.925 8     37958.904 8
  23762933.456       81761.558 7     63710.298 3
 91 12  4 13  2 30.0000000  0  4 20 16 24 12
  21237769.299     -136589.491 9   -106433.769 7
  22477885.688     -165318.567 7   -128820.003 4
  21206643.939      100024.991 8     77941.547 8
  22580033.975      167270.923 7    130340.991 3
 91 12  4 13  3  0.0000000  0  5 20  3 16 24 12
  21224829.352     -204578.364 9   -159412.109 8
  24272932.595     -165159.653 5   -128696.256 4
  22462147.180     -248041.321 7   -193279.292 4
  21216577.877      152225.330 8    118617.138 7
  22596471.592      253663.165 7    197659.628 4
 91 12  4 13  3 30.0000000  0  5 20  3 16 24 12
  21212071.690     -271627.433 9   -211658.132 8
  24259853.552     -233896.581 5   -182257.522 3
  22446565.165     -329901.260 7   -257066.257 4
  21226675.481      205292.262 8    159967.989 8
  22613074.392      340912.646 7    265646.211 4
 91 12  4 13  4  0.0000000  0  5 20  3 16 24 12
  21199485.494     -337770.812 9   -263198.432 9
  24246878.844     -302056.966 5   -235369.507 1
  22431145.036     -410945.669 7   -320217.746 4
  21236929.874      259198.575 8    201972.901 8
  22629836.984      428988.022 7    334276.363 3
 91 12  4 13  4 30.0000000  0  5 20  3 16 24 12
  21187074.689     -402983.473 9   -314013.491 8
  24234032.430     -369610.215 5   -288008.191
  22415887.699     -491137.040 7   -382704.518 4
  21247353.971      313961.782 8    244645.521 8
  22646759.682      517916.923 7    403571.661 3
 91 12  4 13  5  0.0000000  0  5 20  3 16 24 12
  21174815.580     -467399.964 9   -364208.149 8
  24221261.575     -436703.757 5   -340288.884 1
  22400761.973     -570628.655 7   -444646.026 5
  21257906.066      369406.149 8    287848.930 7
  22663813.675      607549.411 7    473415.102 4
 91 12  4 13  5 30.0000000  0  5 20  3 16 24 12
  21162725.546     -530936.959 9   -413717.491 8
  24208592.647     -503275.223 5   -392162.773 2
  22385778.343     -649353.496 7   -505990.055 4
  21268598.163      425592.481 8    331630.488 7
  22681015.454      697945.306 7    543853.443 4
 91 12  4 13  6  0.0000000  0  5 20  3 16 24 12
  21150795.617     -593634.816 9   -462573.050 8
  24196015.752     -569354.404 5   -443653.112 2
  22370941.017     -727329.336 7   -566750.524 5
  21279423.964      482486.507 8    375963.395 8
  22698356.957      789071.627 7    614860.898 4
 91 12  4 13  6 30.0000000  0  5 20  3 16 24 12
  21139022.758     -655500.725 9   -510780.276 8
  24183538.078     -634941.229 5   -494759.766 2
  22356245.194     -804542.415 7   -626916.590 4
  21290384.969      540092.141 8    420850.863 8
  22715838.445      880926.041 6    686435.746 5
 91 12  4 13  7  0.0000000  0  5 20  3 16 24 12
  21127396.515     -716599.138 9   -558389.424 9
  24171139.576     -700094.033 5   -545528.182
  22341688.170     -881049.012 7   -686532.110 3
  21301474.303      598361.913 8    466255.882 7
  22733441.073      973446.983 6    758529.946 4
 91 12  4 13  7 30.0000000  0  5 20  3 16 24 12
  21115916.558     -776927.676 9   -605398.679 9
  24158825.289     -764793.794 5   -595943.508 2
  22327267.851     -956820.895 7   -745575.137 5
  21312696.730      657335.212 8    512209.101 7
  22751177.684     1066651.520 6    831156.819 2
 91 12  4 13  8  0.0000000  0  5 20  3 16 24 12
  21104570.304     -836542.947 9   -651852.135 9
  24146585.672     -829088.346 5   -646043.116 1
  22312981.253    -1031916.160 7   -804090.913 3
  21324042.670      716960.410 8    558670.286 7
  22769035.731     1160488.458 6    904276.571 2
 91 12  4 13  8 30.0000000  0  6 20  3 16 24 13 12
  21093356.567     -895473.141 9   -697771.760 9
  24134424.283     -893036.556 5   -695872.876 1
  22298808.849    -1106386.331 7   -862119.615 4
  21335501.635      777179.815 8    605594.483 7
  24494679.788      143559.125 5    111864.523 2
  22787000.782     1254895.969 6    977840.835 4
 91 12  4 13  9  0.0000000  0  6 20  3 16 24 13 12
  21082281.333     -953681.964 9   -743129.280 9
  24122317.165     -956636.600 5   -745431.347 2
  22284758.178    -1180225.358 7   -919656.511 3
  21347075.718      837997.800 8    652985.121 7
  24507364.613      210229.091 5    163815.113 1
  22805073.484     1349873.690 6   1051849.421 2
 91 12  4 13  9 30.0000000  0  6 20  3 16 24 13 12
  21071340.413    -1011176.841 9   -787930.475 9
  24110275.101    -1019924.936 5   -794746.959 3
  22270819.625    -1253469.643 7   -976729.971 4
  21358756.248      899371.137 8    700808.491 7
  24520092.296      277123.086 5    215940.407 1
  22823248.985     1445381.366 6   1126271.014 2
 91 12  4 13 10  0.0000000  0  6 20  3 16 24 13 12
  21060540.089    -1067926.239 9   -832150.785 8
  24098295.998    -1082885.353 5   -843807.016 2
  22256995.911    -1326099.950 7  -1033325.008 4
  21370539.281      961301.454 8    749065.868 7
  24532870.951      344258.303 5    268253.443 3
  22841526.134     1541433.283 6   1201116.666 3
 91 12  4 13 10 30.0000000  0  6 20  3 16 24 13 12
  21049883.067    -1123936.597 9   -875795.214 8
  24086378.355    -1145534.632 5   -892624.570 1
  22243293.895    -1398116.141 7  -1089441.515 4
  21382425.148     1023761.417 8    797735.965 7
  24545687.368      411618.222 5    320741.623 1
  22859901.614     1638009.669 6   1276370.957 3
 91 12  4 13 11  0.0000000  0  6 20  3 16 24 13 12
  21039373.551    -1179167.422 9   -918832.218 8
  24074521.560    -1207812.991 5   -941153.157 2
  22229716.579    -1469465.118 7  -1145038.125 6
  21394422.853     1086799.551 8    846856.586 7
  24558565.262      479264.162 5    373452.706 2
  22878390.713     1735167.362 6   1352078.239 2
 91 12  4 13 11 30.0000000  0  6 20  3 16 24 13 12
  21028994.127    -1233705.662 9   -961329.553 9
  24062724.724    -1269779.359 5   -989438.625 1
  22216258.308    -1540198.745 7  -1200155.234 4
  21406513.481     1150350.394 8    896376.726 7
  24571473.118      547137.250 5    426340.686 1
  22896980.849     1832844.756 6   1428190.521 5
 91 12  4 13 12  0.0000000  0  6 20  3 16 24 13 12
  21018728.931    -1287647.069 9  -1003361.812 9
  24050986.346    -1331502.797 5  -1037534.817 2
  22202897.461    -1610384.858 7  -1254845.702 4
  21418691.656     1214340.280 8    946238.958 7
  24584424.461      615168.999 5    479352.506 2
  22915653.420     1930969.868 6   1504651.617 4
 91 12  4 13 12 30.0000000  0  5 20  3 16 24 12
  21008573.166    -1341021.201 9  -1044952.043 9
  24039283.044    -1393004.337 5  -1085458.103 2
  22189647.529    -1680043.031 7  -1309124.781 3
  21430948.358     1278760.012 8    996436.156 7
  22934403.941     2029518.678 6   1581442.865 4
 91 12  4 13 13  0.0000000  0  5 20  3 16 24 12
  20998539.117    -1393753.532 9  -1086042.164 9
  24027634.622    -1454206.240 5  -1133147.873 1
  22176499.837    -1749097.722 7  -1362933.621 4
  21443310.301     1343707.942 8   1047044.925 7
  22953252.200     2128566.145 6   1658622.785 2
 91 12  4 13 13 30.0000000  0  5 20  3 16 24 12
  20988618.685    -1445884.548 9  -1126663.736 9
  24016040.139    -1515161.588 5  -1180645.474 1
  22163467.246    -1817600.073 7  -1416312.063 4
  21455761.887     1409138.072 8   1098029.433 8
  22972189.787     2228056.633 6   1736147.789 4
 91 12  4 13 14  0.0000000  0  5 20  3 16 24 12
  20978818.765    -1497371.649 9  -1166783.551 8
  24004485.233    -1575846.436 5  -1227932.335 2
  22150542.306    -1885532.188 7  -1469246.170 4
  21468305.208     1475067.350 8   1149402.879 7
  22991207.715     2328010.854 6   1814034.161 4
 91 12  4 13 14 30.0000000  0  5 20  3 16 24 12
  20969148.954    -1548203.634 9  -1206392.884 9
  23992994.195    -1636275.406 5  -1275019.848 2
  22137718.682    -1952905.925 7  -1521745.183 5
  21480945.046     1541484.609 8   1201156.584 7
  23010311.393     2428411.513 6   1892268.492 2
 91 12  4 13 15  0.0000000  0  5 20  3 16 24 12
  20959609.566    -1598336.110 9  -1245457.143 9
  23981545.718    -1696414.662 5  -1321881.590 2
  22125011.678    -2019681.139 7  -1573777.814 4
  21493680.529     1608406.374 8   1253303.403 7
  23029507.400     2529289.692 6   1970874.852 4
 91 12  4 13 15 30.0000000  0  5 20  3 16 24 12
  20950190.985    -1647821.858 9  -1284017.472 9
  23970150.010    -1756316.161 5  -1368558.084 1
  22112409.305    -2085912.514 7  -1625386.676 5
  21506496.057     1675755.411 8   1305783.163 7
  23048788.547     2630590.454 6   2049810.464 3
 91 12  4 13 16  0.0000000  0  5 20  3 16 24 12
  20940911.814    -1696580.769 9  -1322011.424 9
  23958812.464    -1815900.170 5  -1414987.176 2
  22099928.037    -2151509.725 7  -1676501.369 3
  21519408.729     1743606.432 8   1358654.082 7
  23068157.242     2732390.636 6   2129135.327 3
 91 12  4 13 16 30.0000000  0  5 20  3 16 24 12
  20931743.854    -1744753.696 9  -1359548.767 9
  23947498.895    -1875307.297 5  -1461278.381 2
  22087543.321    -2216597.586 7  -1727219.169 4
  21532388.533     1811825.283 8   1411811.622 8
  23087595.197     2834546.950 6   2208737.642 2
 91 12  4 13 17  0.0000000  0  5 20  3 16 24 12
  20922706.020    -1792257.664 9  -1396564.845 9
  23936251.584    -1934445.519 5  -1507360.079 2
  22075271.001    -2281075.913 7  -1777462.011 5
  21545453.790     1880494.734 8   1465320.283 7
  23107121.868     2937148.521 6   2288686.876 4
 91 12  4 13 17 30.0000000  0  5 20  3 16 24 12
  20913775.190    -1839189.352 9  -1433134.989 9
  23925027.342    -1993417.542 5  -1553312.293 2
  22063097.939    -2345046.396 7  -1827309.133 4
  21558591.605     1949519.282 8   1519105.627 7
  23126712.704     3040089.688 6   2368900.769 3
 91 12  4 13 18  0.0000000  0  5 20  3 16 24 12
  20904958.590    -1885523.263 9  -1469239.329 9
  23913844.789    -2052203.030 5  -1599119.164 2
  22051026.192    -2408476.251 7  -1876734.993 5
  21571801.350     2018933.315 8   1573194.489 7
  23146369.205     3143387.676 6   2449392.760 3
 91 12  4 13 18 30.0000000  0  5 20  3 16 24 12
  20896263.722    -1931215.526 9  -1504843.694 9
  23902701.812    -2110760.031 5  -1644748.018 3
  22039065.080    -2471325.432 7  -1925708.371 5
  21585092.047     2088778.366 8   1627619.190 7
  23166102.749     3247081.567 6   2530193.160 1
 91 12  4 13 19  0.0000000  0  5 20  3 16 24 12
  20887688.755    -1976274.037 9  -1539954.220 9
  23891596.284    -2169090.399 5  -1690200.250 2
  22027217.883    -2533605.545 7  -1974238.334 5
  21598465.789     2159053.864 8   1682379.312 7
  23185907.036     3351167.456 6   2611299.033 1
 91 12  4 13 19 30.0000000  0  5 20  3 16 24 12
  20879229.814    -2020715.845 9  -1574584.200 9
  23880538.745    -2227214.147 5  -1735491.440 2
  22015467.814    -2595334.760 7  -2022339.003 3
  21611917.184     2229745.749 8   1737463.887 7
  23205784.474     3455621.504 6   2692691.825 2
 91 12  4 13 20  0.0000000  0  5 20  3 16 24 12
  20870888.383    -2064559.220 9  -1608747.867 9
  23869516.280    -2285144.230 5  -1780631.671 1
  22003824.470    -2656520.368 7  -2070016.081 5
  21625447.106     2300841.738 8   1792863.353 7
  23225724.262     3560428.105 6   2774359.294 4
 91 12  4 13 20 30.0000000  0  5 20  3 16 24 12
  20862662.682    -2107785.118 9  -1642430.384 9
  23858530.076    -2342861.100 5  -1825605.840 4
  21992286.665    -2717144.609 7  -2117255.726 4
  21639052.290     2372350.097 8   1848584.139 7
  23245745.909     3665604.232 6   2856314.680 2
 91 12  4 13 21  0.0000000  0  5 20  3 16 24 12
  20854548.488    -2150418.972 9  -1675651.568 9
  23847581.356    -2400392.217 5  -1870435.294 2
  21980858.273    -2777224.779 7  -2164071.436 5
  21652732.127     2444235.757 8   1904598.931 7
  23265821.809     3771119.283 6   2938534.218 2
 91 12  4 13 21 30.0000000  0  5 20  3 16 24 12
  20846555.137    -2192424.852 9  -1708383.418 9
  23836679.106    -2457721.156 5  -1915107.207 3
  21969533.309    -2836734.646 7  -2210442.758 6
  21666485.097     2516510.349 8   1960916.785 6
  23285966.654     3876986.841 6   3021028.392 4
 91 12  4 13 22  0.0000000  0  5 20  3 16 24 12
  20838679.888    -2233809.690 9  -1740631.342 9
  23825803.833    -2514864.475 5  -1959634.493 2
  21958315.367    -2895689.383 7  -2256381.513 5
  21680310.032     2589152.739 8   2017521.235 6
  23306172.977     3983187.300 6   3103781.961 2
 91 12  4 13 22 30.0000000  0  5 20  3 16 24 12
  20830921.556    -2274582.550 9  -1772402.403 9
  23814960.041    -2571843.566 5  -2004033.706 2
  21947200.869    -2954109.873 7  -2301903.966 5
  21694198.818     2662142.529 8   2074396.387 7
  23326440.742     4089696.276 6   3186775.933 2
 91 12  4 13 23  0.0000000  0  5 20  3 16 24 12
  20823283.439    -2314725.201 9  -1803682.386 9
  23804143.838    -2628655.368 5  -2048302.564 2
  21936181.999    -3011999.961 7  -2347013.103 4
  21708158.957     2735495.414 8   2131554.472 6
  23346769.670     4196514.237 6   3270010.738 3
 91 12  4 13 23 30.0000000  0  5 20  3 16 24 12
  20815768.241    -2354217.674 9  -1834455.738 9
  23793368.398    -2685280.892 5  -2092426.355 3
  21925270.744    -3069343.010 7  -2391695.989 5
  21722188.042     2809233.428 8   2189012.660 6
  23367163.948     4303657.049 6   3353498.613 3
 91 12  4 13 24  0.0000000  0  5 20  3 16 24 12
  20808375.369    -2393064.367 9  -1864725.895 9
  23782631.628    -2741711.883 5  -2136398.568 3
  21914465.936    -3126127.529 7  -2435943.652 4
  21736294.170     2883356.860 8   2246771.167 6
  23387614.591     4411129.871 6   3437243.653 3
 91 12  4 13 24 30.0000000  0  5 20  3 16 24 12
  20801095.801    -2431325.846 9  -1894540.024 9
  23771919.149    -2798001.318 6  -2180260.448 3
  21903752.846    -3182402.784 7  -2479794.493 6
  21750461.461     2957810.401 8   2304786.910 7
  23408112.001     4518877.108 6   3521202.565 3
 91 12  4 13 25  0.0000000  0  5 20  3 16 24 12
  20793929.869    -2468977.799 9  -1923879.204 9
  23761241.134    -2854116.042 6  -2223986.230 1
  21893149.483    -3238130.468 7  -2523218.661 6
  21764697.121     3032612.607 8   2363074.336 6
  23428675.669     4626928.822 6   3605398.690 2
 91 12  4 13 25 30.0000000  0  5 20  3 16 24 12
  20786874.554    -2506057.452 9  -1952772.442 9
  23750593.412    -2910082.672 6  -2267596.524 2
  21882650.751    -3293318.337 7  -2566222.192 5
  21778986.424     3107709.150 8   2421591.125 7
  23449289.402     4735255.490 6   3689809.034 3
 91 12  4 13 26  0.0000000  0  5 20  3 16 24 12
  20779928.949    -2542556.234 9  -1981213.050 9
  23739974.763    -2965895.448 6  -2311086.939 2
  21872251.556    -3347958.166 7  -2608798.682 6
  21793334.482     3183097.846 8   2480335.550 6
  23469957.684     4843859.928 6   3774435.852 2
 91 12  4 13 26 30.0000000  0  5 20  3 16 24 12
  20773091.884    -2578491.586 9  -2009214.623 9
  23729375.588    -3021583.597 6  -2354480.273 2
  21861952.193    -3402069.272 7  -2650963.166 5
  21807729.323     3258741.622 8   2539278.743 6
  23490667.952     4952709.691 6   3859253.861 3
 91 12  4 13 27  0.0000000  0  5 20  3 16 24 12
  20766372.346    -2613795.883 9  -2036724.464 9
  23718811.802    -3077080.127 6  -2397724.332 3
  21851769.136    -3455578.884 7  -2692658.952 5
  21822182.623     3334698.259 8   2598465.730 6
  23511444.460     5061869.348 6   3944313.322 4
 91 12  4 13 27 30.0000000  0  5 20  3 16 24 12
  20759767.020    -2648512.271 9  -2063776.197 9
  23708281.904    -3132438.414 6  -2440860.685 3
  21841692.804    -3508535.365 7  -2733923.717 5
  21836690.473     3410935.665 8   2657871.489 7
  23532262.954     5171282.169 6   4029570.007 3
 91 12  4 13 28  0.0000000  0  5 20  3 16 24 12
  20753276.498    -2682610.166 9  -2090345.977 9
  23697766.979    -3187644.066 6  -2483878.090 2
  21831724.420    -3560928.016 7  -2774749.154 6
  21851258.281     3487493.743 8   2717527.124 6
  23553133.310     5280959.735 6   4115033.109 3
 91 12  4 13 28 30.0000000  0  5 20  3 16 24 12
  20746905.022    -2716088.368 9  -2116432.886 9
  23687297.633    -3242698.727 6  -2526777.896 2
  21821863.633    -3612761.022 7  -2815138.502 5
  21865893.552     3564383.215 8   2777440.990 7
  23574055.824     5390897.431 6   4200698.804 4
 91 12  4 13 29  0.0000000  0  5 20  3 16 24 12
  20740645.054    -2748981.931 9  -2142064.238 9
  23676846.558    -3297637.214 6  -2569587.368 1
  21812094.600    -3664080.747 8  -2855127.898 6
  21880583.982     3641589.197 8   2837601.498 6
  23595017.008     5501057.351 6   4286537.678 2
 91 12  4 13 29 30.0000000  0  5 20  3 16 24 12
  20734505.596    -2781240.298 9  -2167200.621 9
  23666417.087    -3352423.448 6  -2612277.948 2
  21802432.589    -3714859.934 8  -2894696.088 6
  21895341.265     3719155.407 8   2898042.685 7
  23616027.960     5611473.183 5   4372575.991 2
 91 12  4 13 30  0.0000000  0  5 20  3 16 24 12
  20728493.263    -2812857.282 9  -2191837.231 9
  23656015.780    -3407054.314 6  -2654847.489 3
  21792873.115    -3765100.002 8  -2933844.175 5
  21910166.900     3797063.200 8   2958750.049 7
  23637085.382     5722144.525 5   4458813.392 3
 91 12  4 13 30 30.0000000  0  5 20  3 16 24 12
  20722591.250    -2843872.211 9  -2216004.711 9
  23645645.656    -3461562.630 6  -2697321.522 4
  21783408.362    -3814831.561 8  -2972596.027 5
  21925050.400     3875267.501 8   3019688.461 6
  23658190.182     5833036.079 5   4545222.365 4
 91 12  4 13 31  0.0000000  0  5 20  3 16 24 12
  20716806.154    -2874276.010 9  -2239695.979 9
  23635302.528    -3515945.010 6  -2739697.434 1
  21774040.142    -3864043.450 8  -3010942.945 5
  21939986.967     3953763.460 8   3080854.138 6
  23679336.635     5944147.757 5   4631802.838 3
 91 12  4 13 31 30.0000000  0  5 20  3 16 24 12
  20711128.987    -2904093.914 9  -2262930.707 9
  23624972.279    -3570225.801 6  -2781994.218 1
  21764780.150    -3912736.818 8  -3048885.818 6
  21954974.488     4032513.508 8   3142217.807 6
  23700516.976     6055452.433 5   4718533.801 2
 91 12  4 13 32  0.0000000  0  5 20  3 16 24 12
  20705570.238    -2933305.619 9  -2285693.072 9
  23614664.505    -3624382.347 6  -2824194.004 1
  21755619.989    -3960864.322 7  -3086387.774 6
  21970009.072     4111530.391 8   3203789.383 6
  23721736.284     6166969.791 6   4805430.421 3
 91 12  4 13 32 30.0000000  0  5 20  3 16 24 12
  20700139.800    -2961851.508 9  -2307936.622 9
  23604394.511    -3678347.135 6  -2866244.398 2
  21746581.248    -4008350.385 7  -3123389.894 6
  21985111.729     4190892.720 7   3265630.164 6
  23743007.454     6278764.604 6   4892543.234 3
 91 12  4 13 33  0.0000000  0  5 20  3 16 24 12
  20694810.975    -2989841.044 9  -2329746.647 9
  23594144.619    -3732233.178 6  -2908233.539 2
  21737644.136    -4055306.339 7  -3159978.932 5
  22000257.244     4270484.445 7   3327649.683 6
  23764313.105     6390720.703 5   4979781.789 2
 91 12  4 13 33 30.0000000  0  5 20  3 16 24 12
  20689600.287    -3017235.813 9  -2351093.219 9
  23583914.202    -3785997.018 6  -2950127.464 3
  21728817.659    -4101699.379 7  -3196129.342 4
  22015453.121     4350340.586 7   3389875.245 6
  23785662.836     6502878.683 6   5067177.601 3
 91 12  4 13 34  0.0000000  0  5 20  3 16 24 12
  20684499.327    -3044043.395 9  -2371982.245 9
  23573701.462    -3839653.142 6  -2991937.466 3
  21720088.589    -4147559.579 7  -3231864.550 5
  22030697.858     4430448.591 7   3452297.049 6
  23807036.839     6615220.844 6   5154716.931 2
 91 12  4 13 34 30.0000000  0  5 20  3 16 24 12
  20679501.777    -3070295.248 9  -2392438.236 9
  23563503.730    -3893235.936 6  -3033690.301 3
  21711460.573    -4192932.588 7  -3267220.136 6
  22045985.784     4510785.408 7   3514897.155 6
  23828445.918     6727709.710 5   5242370.581 3
 91 12  4 13 35  0.0000000  0  5 20  3 16 24 12
  20674613.971    -3095986.906 9  -2412457.710 9
  23553323.377    -3946747.343 6  -3075387.556 2
  21702917.383    -4237810.932 7  -3302190.261 6
  22061313.863     4591341.955 7   3577668.479 6
  23849872.081     6840340.707 5   5330134.970 2
 91 12  4 13 35 30.0000000  0  5 20  3 16 24 12
  20669840.970    -3121068.357 9  -2432001.704 9
  23543161.609    -4000133.023 6  -3116986.782 2
  21694485.717    -4282125.501 7  -3336721.096 6
  22076696.527     4672171.009 7   3640652.142 6
  23871347.104     6953165.163 5   5418050.120 2
 91 12  4 13 36  0.0000000  0  5 20  3 16 24 12
  20665184.588    -3145533.678 9  -2451065.586 9
  23533025.319    -4053399.349 6  -3158492.928 2
  21686162.573    -4325862.946 7  -3370802.202 6
  22092129.831     4753275.945 8   3703850.798 5
  23892852.421     7066173.467 5   5506108.505 2
 91 12  4 13 36 30.0000000  0  5 20  3 16 24 12
  20660649.032    -3169359.440 9  -2469631.109 9
  23522912.429    -4106523.711 6  -3199888.527 1
  21677955.160    -4369001.441 7  -3404416.598 6
  22107621.611     4834670.430 8   3767275.072 6
  23914392.516     7179385.649 5   5594325.806 2
 91 12  4 13 37  0.0000000  0  5 20  3 16 24 12
  20656237.879    -3192553.655 9  -2487704.527 9
  23512828.611    -4159519.856 6  -3241184.231 4
  21669853.268    -4411559.998 7  -3437579.076 5
  22123157.453     4916319.502 7   3830897.707 6
  23935972.764     7292784.689 5   5682688.645 2
 91 12  4 13 37 30.0000000  0  5 20  3 16 24 12
  20651938.564    -3215146.667 9  -2505309.472 9
  23502762.471    -4212424.975 6  -3282408.998 3
  21661860.510    -4453582.075 7  -3470323.564 5
  22138731.981     4998179.547 8   3894684.733 6
  23957583.009     7406330.323 5   5771165.786 2
 91 12  4 13 38  0.0000000  0  5 20  3 16 24 12
  20647767.543    -3237065.383 9  -2522388.990 9
  23492725.420    -4265183.041 6  -3323519.205 4
  21653972.070    -4495021.664 7  -3502614.143 6
  22154362.857     5080300.897 8   3958675.395 6
  23979225.624     7520075.610 6   5859798.507 3
 91 12  4 13 38 30.0000000  0  5 20  3 16 24 12
  20643720.943    -3258342.032 9  -2538968.201 9
  23482708.750    -4317815.480 6  -3364531.499 2
  21646190.651    -4535899.276 7  -3534466.830 6
  22170030.011     5162642.662 8   4022837.805 6
  24000897.922     7633996.162 5   5948567.742 2
 91 12  4 13 39  0.0000000  0  5 20  3 16 24 12
  20639779.584    -3279048.721 9  -2555103.288 9
  23472704.977    -4370386.831 6  -3405496.132 1
  21638513.567    -4576261.024 8  -3565917.535 6
  22185728.943     5245142.842 8   4087123.644 5
  24022599.606     7748024.524 5   6037420.979 2
 91 12  4 13 39 30.0000000  0  5 20  3 16 24 12
  20635949.436    -3299180.350 9  -2570790.270 9
  23462717.397    -4422887.507 6  -3446405.680 2
  21630934.222    -4616085.851 8  -3596949.847 6
  22201461.745     5327821.356 7   4151548.455 5
  24044325.267     7862167.347 5   6126363.487 1
 91 12  4 13 40  0.0000000  0  5 20  3 16 24 12
  20632227.514    -3318716.424 9  -2586013.184 9
  23452743.010    -4475291.372 6  -3487239.843 2
  21623464.587    -4655351.048 8  -3627546.100 5
  22217233.531     5410705.476 8   4216133.475 6
  24066062.916     7976447.730 5   6215413.067 2
 91 12  4 13 40 30.0000000  0  5 20  3 16 24 12
  20628624.306    -3337659.810 9  -2600774.270 9
  23442793.192    -4527590.206 6  -3527992.203 3
  21616096.581    -4694052.599 8  -3657703.140 4
  22233050.583     5493817.166 7   4280895.826 5
  24087844.033     8090870.836 5   6304573.877 2
 91 12  4 13 41  0.0000000  0  5 20  3 16 24 12
  20625141.312    -3355972.243 9  -2615043.700 9
  23432863.774    -4579758.576 6  -3568642.906 3
  21608841.008    -4732175.550 8  -3687409.332 6
  22248919.200     5577205.343 7   4345873.603 5
  24109647.941     8205459.297 5   6393863.567 3
 91 12  4 13 41 30.0000000  0  5 20  3 16 24 12
  20621779.440    -3373643.484 9  -2628813.500 9
  23422958.315    -4631795.371 6  -3609191.059 2
  21601696.958    -4769721.077 8  -3716665.587 5
  22264838.178     5660872.823 7   4411069.041 6
  24131482.421     8320210.989 5   6483280.496 2
 91 12  4 13 42  0.0000000  0  6 17 20  3 16 24 12
  24513038.185     -194249.103 4   -151362.899 2
  20618529.983    -3390712.141 9  -2642113.757 9
  23413078.665    -4683732.482 6  -3649661.600 3
  21594657.523    -4806715.540 8  -3745492.442 5
  22280807.815     5744798.150 7   4476465.384 6
  24153343.583     8435090.996 5   6572797.305 2
 91 12  4 13 42 30.0000000  0  6 17 20  3 16 24 12
  24496024.362     -283579.206 4   -220970.722 2
  20615395.051    -3407185.816 9  -2654950.388 9
  23403216.098    -4735581.299 6  -3690063.199 2
  21587723.330    -4843148.888 8  -3773882.050 5
  22296829.034     5828980.499 7   4542061.995 6
  24175229.035     8550085.200 5   6662403.219 2
 91 12  4 13 43  0.0000000  0  6 17 20  3 16 24 12
  24479075.297     -372675.246 4   -290396.220 2
  20612383.650    -3423029.134 9  -2667295.831 9
  23393366.410    -4787310.404 6  -3730371.538 1
  21580908.148    -4878968.248 8  -3801793.232 6
  22312897.300     5913427.857 7   4607865.128 5
  24197136.666     8665221.777 5   6752120.086 1
 91 12  4 13 43 30.0000000  0  6 17 20  3 16 24 12
  24462166.700     -461555.841 4   -359653.830 3
  20609480.457    -3438268.650 9  -2679170.784 9
  23383538.919    -4838946.438 6  -3770607.402 2
  21574207.491    -4914180.917 8  -3829231.670 6
  22329010.255     5998090.116 7   4673835.709 5
  24219072.183     8780471.266 5   6841924.808 2
 91 12  4 13 44  0.0000000  0  6 17 20  3 16 24 12
  24445310.260     -550210.382 4   -428735.302 2
  20606698.072    -3452892.532 9  -2690566.015 9
  23373735.404    -4890492.683 6  -3810773.319 3
  21567622.250    -4948788.414 8  -3856198.537 5
  22345157.063     6082955.038 7   4739964.222 6
  24241017.891     8895827.190 5   6931812.508 2
 91 12  4 13 44 30.0000000  0  6 17 20  3 16 24 12
  24428479.316     -638647.012 5   -497646.963 2
  20604032.918    -3466893.295 9  -2701475.706 9
  23363933.390    -4941965.299 6  -3850881.848 3
  21561147.922    -4982804.262 8  -3882704.388 5
  22361338.668     6167981.788 7   4806218.798 6
  24262982.795     9011270.278 5   7021768.230 2
 91 12  4 13 45  0.0000000  0  6 17 20  3 16 24 12
  24411686.745     -726888.460 5   -566406.566 2
  20601478.991    -3480302.812 9  -2711924.683 9
  23354154.462    -4993398.766 6  -3890959.866 1
  21554778.540    -5016275.081 8  -3908785.547 6
  22377539.747     6253118.195 7   4872558.854 5
  24284963.577     9126763.024 5   7111762.552 2
 91 12  4 13 45 30.0000000  0  6 17 20  3 16 24 12
  24394947.833     -814869.252 5   -634963.058 3
  20599053.079    -3493063.048 9  -2721867.728 9
  23344382.724    -5044736.637 6  -3930963.342 2
  21548520.666    -5049161.657 8  -3934411.431 6
  22393776.214     6338438.468 7   4939042.168 6
  24306963.835     9242358.962 4   7201837.240 2
 91 12  4 13 46  0.0000000  0  6 17 20  3 16 24 12
  24378250.592     -902596.575 5   -703322.062 1
  20596747.068    -3505186.342 9  -2731314.453 9
  23334625.976    -5095981.335 6  -3970894.241 2
  21542370.424    -5081482.560 8  -3959596.549 5
  22410047.443     6423948.743 7   5005673.533 6
  24328979.989     9358052.669 4   7291988.177 2
 91 12  4 13 46 30.0000000  0  6 17 20  3 16 24 12
  24361594.411     -990091.063 5   -771499.528 3
  20594555.879    -3516695.487 9  -2740282.626 9
  23324894.408    -5147138.581 6  -4010757.044 3
  21536325.110    -5113251.091 8  -3984351.246 5
  22426354.654     6509652.329 7   5072455.532 5
  24351012.041     9473835.360 5   7382208.422 2
 91 12  4 13 47  0.0000000  0  6 17 20  3 16 24 12
  24344990.721    -1077358.442 5   -839500.026 1
  20592478.919    -3527610.178 9  -2748787.581 9
  23315178.144    -5198213.124 6  -4050555.384 3
  21530383.520    -5144481.488 8  -4008686.620 5
  22442702.036     6595551.433 7   5139389.901 5
  24373058.489     9589699.299 5   7472491.963 3
 91 12  4 13 47 30.0000000  0  6 17 20  3 16 24 12
  24328423.275    -1164408.251 4   -907331.041 2
  20590516.189    -3537921.584 9  -2756822.449 9
  23305474.462    -5249205.562 6  -4090289.753 3
  21524545.375    -5175165.569 8  -4032596.284 5
  22459085.399     6681651.481 7   5206480.826 6
  24395126.209     9705641.089 5   7562836.158 4
 91 12  4 13 48  0.0000000  0  6 17 20  3 16 24 12
  24311908.022    -1251235.912 4   -974988.944 2
  20588671.858    -3547615.722 9  -2764376.334 9
  23295783.658    -5300106.595 6  -4129952.907 3
  21518813.642    -5205281.773 8  -4056063.455 5
  22475509.824     6767951.582 7   5273727.640 6
  24417199.617     9821666.948 5   7653245.981 1
 91 12  4 13 48 30.0000000  0  6 17 20  3 16 24 12
  24295418.230    -1337840.729 4  -1042473.225 3
  20586948.055    -3556677.907 9  -2771437.772 9
  23286115.365    -5350915.905 6  -4169544.574 1
  21513194.323    -5234813.675 8  -4079075.323 6
  22491969.340     6854444.197 7   5341124.467 6
  24439295.833     9937773.944 6   7743718.921 2
 91 12  4 13 49  0.0000000  0  6 17 20  3 16 24 12
  24278992.305    -1424213.671 4  -1109776.821 2
  20585342.967    -3565105.011 9  -2778004.350 9
  23276467.140    -5401635.916 6  -4209066.593 1
  21507689.529    -5263747.595 8  -4101621.224 5
  22508460.319     6941118.148 7   5408662.606 5
  24461404.020    10053956.609 6   7834250.809 2
 91 12  4 13 49 30.0000000  0  6 17 20  3 16 24 12
  24262582.870    -1510366.442 4  -1176908.872 2
  20583860.187    -3572901.865 9  -2784079.825 9
  23266828.512    -5452281.588 6  -4248530.771 2
  21502296.278    -5292093.920 8  -4123709.264 6
  22524985.169     7027957.252 7   5476329.416 5
  24483526.900    10170197.180 5   7924828.132 2
 91 12  4 13 50  0.0000000  0  6 17 20  3 16 24 12
  24246248.978    -1596259.389 5  -1243838.467 3
  20582499.733    -3580046.788 9  -2789647.301 9
  23257212.063    -5502821.479 6  -4287912.492 3
  21497016.627    -5319821.007 8  -4145314.782 5
  22541548.113     7114986.570 7   5544144.435 5
  24505663.880    10286523.988 5   8015472.231 2
 91 12  4 13 50 30.0000000  0  6 17 20  3 16 24 12
  24229948.363    -1681904.063 5  -1310574.597 1
  20581261.291    -3586556.998 9  -2794720.190 9
  23247608.807    -5553276.021 6  -4327227.739 3
  21491856.894    -5346949.298 8  -4166453.713 6
  22558141.630     7202189.398 7   5612094.683 4
  24527817.647    10402913.622 5   8106165.373 2
 91 12  4 13 51  0.0000000  0  6 17 20  3 16 24 12
  24213703.205    -1767297.886 5  -1377115.172 2
  20580143.971    -3592433.262 9  -2799299.103 9
  23238024.450    -5603651.722 6  -4366481.539 2
  21486801.496    -5373493.150 8  -4187137.231 6
  22574772.019     7289560.909 7   5680176.355 5
  24549965.114    10519356.393 4   8196900.262 2
 91 12  4 13 51 30.0000000  0  6 17 20  3 16 24 12
  24197494.623    -1852448.435 5  -1443466.230 2
  20579143.550    -3597677.303 9  -2803385.365 9
  23228448.782    -5653950.893 6  -4405675.742
  21481864.812    -5399457.163 8  -4207368.929 6
  22591426.385     7377099.147 7   5748387.945 5
  24572131.759    10635847.031 3   8287672.032 2
 91 12  4 13 52  0.0000000  0  5 17 20  3 16 24
  24181337.309    -1937360.480 5  -1509631.449 1
  20578263.972    -3602304.104 9  -2806990.665 9
  23218889.291    -5704178.085 6  -4444813.800 2
  21477033.667    -5424834.317 8  -4227143.328 6
  22608117.030     7464804.663 7   5816729.877 5
 91 12  4 13 52 30.0000000  0  5 17 20  3 16 24
  24165222.557    -2022038.711 5  -1575614.506 2
  20577502.200    -3606308.544 9  -2810111.014 9
  23209348.105    -5754333.469 6  -4483895.870 2
  21472315.530    -5449631.741 8  -4246465.992 6
  22624837.950     7552679.628 7   5885203.873 5
 91 12  4 13 53  0.0000000  0  5 17 20  3 16 24
  24149147.398    -2106504.998 4  -1641432.380 3
  20576857.345    -3609707.203 9  -2812759.324 9
  23199817.407    -5804422.845 6  -4522926.536 2
  21467705.322    -5473858.261 8  -4265343.795 6
  22641591.259     7640712.336 7   5953800.760 5
 91 12  4 13 53 30.0000000  0  6 17 20  3 16 24 12
  24133123.195    -2190759.900 5  -1707085.566 2
  20576323.403    -3612507.173 9  -2814941.123 9
  23190302.589    -5854436.930 6  -4561898.534 3
  21463209.326    -5497493.146 8  -4283760.585 6
  22658374.233     7728908.511 7   6022525.021 5
  24660891.018       19437.33915     15144.749 2
 91 12  4 13 54  0.0000000  0  6 17 20  3 16 24 12
  24117112.167    -2274834.436 4  -1772598.193 2
  20575901.596    -3614735.552 9  -2816677.534 9
  23180790.475    -5904413.249 6  -4600841.158 1
  21458814.680    -5520574.848 8  -4301746.334 6
  22675178.792     7817229.430 7   6091346.476 5
  24683069.372      136062.271 5    106021.348 3
 91 12  4 13 54 30.0000000  0  6 17 20  3 16 24 12
  24101159.910    -2358687.678 5  -1837938.403 3
  20575592.815    -3616349.251 9  -2817934.970 9
  23171297.539    -5954312.081 6  -4639723.365 2
  21454537.527    -5543059.366 8  -4319266.729 6
  22692019.038     7905713.167 7   6160294.852 4
  24705268.702      252717.909 5    196921.816 4
 91 12  4 13 55  0.0000000  0  6 17 20  3 16 24 12
  24085256.829    -2442311.927 5  -1903100.135 2
  20575400.339    -3617352.319 9  -2818716.581 9
  23161813.608    -6004131.126 6  -4678543.427 2
  21450372.213    -5564925.718 8  -4336305.438 7
  22708888.669     7994362.182 7   6229371.980 5
  24727475.831      369403.574 6    287845.654 2
 91 12  4 13 55 30.0000000  0  6 17 20  3 16 24 12
  24069369.627    -2525704.619 5  -1968081.395 2
  20575326.297    -3617750.648 9  -2819026.976 9
  23152344.962    -6053888.214 7  -4717315.161 2
  21446330.707    -5586183.615 8  -4352870.035 6
  22725785.261     8083158.672 7   6298564.015 5
  24749678.756      486098.389 5    378776.748 4
 91 12  4 13 56  0.0000000  0  6 17 20  3 16 24 12
  24053558.875    -2608842.695 5  -2032864.257 1
  20575368.876    -3617522.194 9  -2818848.983 9
  23142892.214    -6103571.024 7  -4756028.998 1
  21442399.540    -5606830.658 8  -4368958.635 7
  22742711.257     8172113.182 7   6367879.179 5
  24771898.467      602811.637 5    469722.069 2
 91 12  4 13 56 30.0000000  0  6 17 20  3 16 24 12
  24037759.500    -2691863.604 5  -2097555.877 1
  20575503.173    -3616810.038 9  -2818294.062 9
  23133424.459    -6153314.482 6  -4794790.107 1
  21438563.092    -5627011.401 8  -4384683.895 7
  22759642.924     8261080.043 7   6437203.996 5
  24794075.320      719404.951 5    560573.901 2
 91 12  4 13 57  0.0000000  0  6 17 20  3 16 24 12
  24022010.504    -2774673.086 5  -2162082.772 3
  20575753.810    -3615507.744 9  -2817279.300 9
  23123962.410    -6203025.058 6  -4833525.601 3
  21434824.976    -5646648.623 8  -4399985.623 7
  22776588.691     8350140.021 7   6506601.349 5
  24816255.769      835969.092 4    651403.294 1
 91 12  4 13 57 30.0000000  0  6 17 20  3 16 24 12
  24006287.596    -2857240.414 5  -2226420.985 2
  20576122.254    -3613568.875 9  -2815768.498 9
  23114517.759    -6252669.757 6  -4872209.771 3
  21431194.196    -5665720.975 8  -4414847.201 6
  22793562.937     8439318.058 7   6576090.674 4
  24838439.201      952534.125 3    742233.093 2
 91 12  4 13 58  0.0000000  0  5 17 20  3 16 24
  23990620.738    -2939563.950 5  -2290569.193 1
  20576610.913    -3610985.184 9  -2813755.230 9
  23105085.689    -6302235.322 6  -4910832.290 2
  21427675.831    -5684221.532 8  -4429263.204 6
  22810556.377     8528623.091 7   6645678.987 5
 91 12  4 13 58 30.0000000  0  5 17 20  3 16 24
  23974999.461    -3021672.998 5  -2354550.295 2
  20577221.583    -3607780.166 9  -2811257.822 9
  23095663.497    -6351746.681 6  -4949412.570 3
  21424261.801    -5702168.376 8  -4443247.766 7
  22827568.403     8618033.987 7   6715349.797 4
 91 12  4 13 59  0.0000000  0  5 17 20  3 16 24
  23959417.149    -3103587.177 5  -2418379.538 1
  20577950.374    -3603964.946 9  -2808284.930 9
  23086250.622    -6401220.720 6  -4987963.752 2
  21420948.179    -5719556.466 8  -4456796.928 6
  22844601.107     8707547.336 7   6785100.431 4
 91 12  4 13 59 30.0000000  0  5 17 20  3 16 24
  23943874.694    -3185254.863 5  -2482016.723 1
  20578802.992    -3599494.625 9  -2804801.578 9
  23076850.923    -6450607.676 6  -5026447.069 2
  21417757.790    -5736325.039 8  -4469863.346 6
  22861664.104     8797217.493 7   6854973.233 4
 91 12  4 14  0  0.0000000  0  5 17 20  3 16 24
  23928365.830    -3266709.862 5  -2545488.116 2
  20579766.820    -3594411.174 9  -2800840.449 9
  23067459.931    -6499945.788 6  -5064892.322 2
  21414681.631    -5752503.953 8  -4482470.303 7
  22878749.577     8887002.417 7   6924935.479 4
 91 12  4 14  0 30.0000000  0  6 17 20  3 16 24 12
  23912923.522    -3347907.863 5  -2608759.238 2
  20580858.976    -3588668.736 9  -2796365.828 9
  23058091.712    -6549198.958 7  -5103271.428 3
  21411725.966    -5768035.689 8  -4494572.958 6
  22895866.513     8976945.702 7   6995021.109 3
  24971493.098       34942.33515     27226.419 2
 91 12  4 14  1  0.0000000  0  6 17 20  3 16 24 12
  23897520.197    -3428851.021 5  -2671831.800 3
  20582074.628    -3582277.425 9  -2791385.594 9
  23048734.295    -6598375.190 7  -5141590.550 2
  21408893.534    -5782929.546 8  -4506178.553 6
  22913012.556     9067044.490 7   7065227.931 4
  24993660.057      151434.910 5    118000.016 3
 91 12  4 14  1 30.0000000  0  6 17 20  3 16 24 12
  23882169.014    -3509492.060 5  -2734668.959 2
  20583423.984    -3575200.062 9  -2785870.773 9
  23039396.666    -6647434.555 7  -5179818.655 3
  21406182.503    -5797157.067 8  -4517264.944 6
  22930193.360     9157330.743 7   7135580.822 4
  25015832.094      267954.967 5    208794.784 3
 91 12  4 14  2  0.0000000  0  6 17 20  3 16 24 12
  23866871.507    -3589914.576 5  -2797335.856 3
  20584883.084    -3567528.603 9  -2779893.022 9
  23030065.912    -6696466.611 7  -5218025.405 3
  21403583.013    -5810814.674 8  -4527907.245 6
  22947395.453     9247717.657 7   7206012.145 4
  25038001.147      384409.562 5    299538.575 2
 91 12  4 14  2 30.0000000  0  6 17 20  3 16 24 12
  23851608.779    -3670098.201 5  -2859816.602 3
  20586456.989    -3559254.304 9  -2773445.519 9
  23020742.976    -6745456.202 7  -5256199.093 2
  21401095.625    -5823900.634 8  -4538104.099 6
  22964617.021     9338228.177 7   7276539.777 4
  25060142.333      500810.974 5    390241.089 2
 91 12  4 14  3  0.0000000  0  6 17 20  3 16 24 12
  23836399.099    -3750038.053 5  -2922107.425 2
  20588147.217    -3550375.272 9  -2766526.799 9
  23011430.825    -6794397.080 7  -5294334.837 2
  21398708.679    -5836425.040 8  -4547863.382 6
  22981862.879     9428856.191 7   7347158.978 4
  25082286.798      617162.474 5    480904.451 2
 91 12  4 14  3 30.0000000  0  6 17 20  3 16 24 12
  23821239.205    -3829684.957 5  -2984169.931 2
  20589964.273    -3540826.000 9  -2759085.815 9
  23002139.351    -6843238.418 7  -5332393.006 4
  21396445.543    -5848331.763 8  -4557141.361 6
  22999137.530     9519628.440 7   7417890.556 4
  25104425.872      733512.356 5    571566.617 3
 91 12  4 14  4  0.0000000  0  5 17 20  3 16 24
  23806131.766    -3909078.711 5  -3046035.144 2
  20591899.432    -3530648.907 9  -2751155.631 9
  22992853.584    -6892021.101 7  -5370405.474 3
  21394291.837    -5859648.914 8  -4565959.929 6
  23016430.452     9610490.003 6   7488691.721 5
 91 12  4 14  4 30.0000000  0  5 17 20  3 16 24
  23791064.184    -3988266.178 5  -3107739.634 2
  20593950.601    -3519876.385 9  -2742761.466 9
  22983578.305    -6940778.422 7  -5408398.188 1
  21392244.263    -5870398.187 8  -4574335.983 6
  23033725.781     9701403.157 7   7559533.086 5
 91 12  4 14  5  0.0000000  0  5 17 20  3 16 24
  23776028.099    -4067284.586 5  -3169312.400 1
  20596112.107    -3508519.229 9  -2733911.746 9
  22974302.415    -6989526.637 7  -5446383.777 1
  21390306.696    -5880586.616 8  -4582275.031 6
  23051033.099     9792343.058 7   7630395.301 3
 91 12  4 14  5 30.0000000  0  5 17 20  3 16 24
  23761025.885    -4146095.593 5  -3230723.582 3
  20598388.732    -3496553.185 9  -2724587.563 9
  22965028.636    -7038229.298 7  -5484333.888 1
  21388486.359    -5890174.365 8  -4589746.009 6
  23068348.217     9883343.545 6   7701304.732 4
 91 12  4 14  6  0.0000000  0  5 17 20  3 16 24
  23746074.329    -4224682.965 5  -3291960.502 3
  20600778.976    -3483984.277 9  -2714793.624 9
  22955780.649    -7086869.033 7  -5522234.986 2
  21386776.046    -5899150.893 8  -4596740.717 6
  23085684.607     9974443.970 7   7772292.037 3
 91 12  4 14  6 30.0000000  0  5 17 20  3 16 24
  23731158.162    -4303054.396 5  -3353029.162 3
  20603287.933    -3470807.630 9  -2704526.126 9
  22946530.254    -7135448.363 7  -5560089.011 3
  21385183.539    -5907521.527 8  -4603263.308 6
  23103043.194    10065658.029 7   7843367.859 3
 91 12  4 14  7  0.0000000  0  5 17 20  3 16 24
  23716295.655    -4381186.209 5  -3413911.118 3
  20605912.027    -3457023.899 9  -2693785.564 9
  22937297.239    -7183965.314 7  -5597894.434 2
  21383706.465    -5915278.105 8  -4609307.400 5
  23120420.958    10156979.651 7   7914527.515 4
 91 12  4 14  7 30.0000000  0  5 17 20  3 16 24
  23701479.600    -4459021.094 5  -3474561.680 3
  20608654.224    -3442599.609 9  -2682545.881 9
  22928082.826    -7232389.351 7  -5635627.438 3
  21382354.998    -5922381.662 8  -4614842.646 6
  23137827.812    10248444.808 6   7985799.010 4
 91 12  4 14  8  0.0000000  0  5 17 20  3 16 24
  23686715.424    -4536612.296 5  -3535022.338 2
  20611516.636    -3427572.769 9  -2670836.655 9
  22918876.493    -7280774.539 7  -5673330.183 2
  21381122.262    -5928867.877 8  -4619896.850 6
  23155250.860    10340014.489 7   8057151.980 4
 91 12  4 14  8 30.0000000  0  5 17 20  3 16 24
  23671997.422    -4613968.688 5  -3595300.018 1
  20614488.181    -3411946.574 9  -2658660.411 9
  22909674.364    -7329135.886 7  -5711014.345 2
  21380005.536    -5934741.511 8  -4624473.717 6
  23172691.585    10431661.448 6   8128565.132 2
 91 12  4 14  9  0.0000000  0  5 17 20  3 16 24
  23657324.982    -4691064.172 5  -3655374.375 1
  20617579.644    -3395706.446 9  -2646005.784 9
  22900477.629    -7377453.334 7  -5748664.277 4
  21379007.819    -5939994.185 8  -4628566.715 7
  23190147.299    10523397.867 6   8200047.973 4
 91 12  4 14  9 30.0000000  0  5 17 20  3 16 24
  23642703.201    -4767895.037 5  -3715242.590 2
  20620789.821    -3378827.544 9  -2632853.399 9
  22891291.991    -7425709.192 7  -5786266.257 3
  21378123.425    -5944622.856 8  -4632173.482 6
  23207624.896    10615247.977 6   8271619.414 4
 91 12  4 14 10  0.0000000  0  5 17 20  3 16 24
  23628125.795    -4844492.201 5  -3774928.692 3
  20624120.823    -3361321.931 9  -2619212.678 9
  22882121.936    -7473913.217 7  -5823827.833 4
  21377355.371    -5948652.692 8  -4635313.631 6
  23225122.875    10707184.639 6   8343258.313 2
 91 12  4 14 10 30.0000000  0  5 17 20  3 16 24
  23613602.642    -4920828.698 6  -3834411.697 2
  20627577.432    -3343160.325 9  -2605060.790 9
  22872964.184    -7522029.817 7  -5861321.284 3
  21376705.717    -5952082.794 8  -4637986.444 6
  23242634.954    10799221.829 6   8414975.530 3
 91 12  4 14 11  0.0000000  0  5 17 20  3 16 24
  23599106.484    -4996988.350 5  -3893756.884 4
  20631144.658    -3324411.524 9  -2590451.359 9
  22863814.215    -7570134.126 7  -5898805.171 4
  21376146.909    -5955003.205 8  -4640262.093 7
  23260153.629    10891282.943 6   8486711.426 2
 91 12  4 14 11 30.0000000  0  5 17 20  3 16 24
  23584654.981    -5072953.588 6  -3952950.592 5
  20634830.912    -3305055.084 9  -2575368.432 9
  22854664.839    -7618205.930 7  -5936263.699 3
  21375692.714    -5957384.535 8  -4642117.693 6
  23277681.605    10983391.553 6   8558484.302 3
 91 12  4 14 12  0.0000000  0  5 17 20  3 16 24
  23570242.759    -5148684.058 6  -4011961.367 2
  20638634.675    -3285066.537 9  -2559792.948 9
  22845527.469    -7666212.741 7  -5973671.579 2
  21375349.748    -5959190.311 8  -4643524.807 6
  23295226.944    11075586.590 6   8630324.518 4
 91 12  4 14 12 30.0000000  0  5 17 20  3 16 24
  23555880.602    -5224168.660 5  -4070780.477 2
  20642557.449    -3264457.438 9  -2543733.926 9
  22836408.090    -7714160.086 7  -6011033.163 2
  21375115.007    -5960405.654 8  -4644471.846 7
  23312789.995    11167879.376 6   8702240.895 4
 91 12  4 14 13  0.0000000  0  5 17 20  3 16 24
  23541564.915    -5299395.295 6  -4129398.581 2
  20646594.156    -3243236.461 9  -2527198.115 9
  22827292.288    -7762055.294 7  -6048354.098 3
  21375005.595    -5960997.809 8  -4644933.287 7
  23330374.317    11260281.771 6   8774242.701 3
 91 12  4 14 13 30.0000000  0  5 17 20  3 16 24
  23527308.279    -5374321.658 6  -4187782.766 1
  20650755.579    -3221375.145 9  -2510163.340 9
  22818194.495    -7809865.491 7  -6085608.799 1
  21375019.974    -5960921.410 8  -4644873.770 6
  23347985.025    11352824.746 6   8846354.056 3
 91 12  4 14 14  0.0000000  0  5 17 20  3 16 24
  23513105.320    -5448949.723 5  -4245934.527 2
  20655036.013    -3198871.725 9  -2492628.222 9
  22809111.674    -7857594.519 7  -6122800.256 3
  21375162.385    -5960177.290 8  -4644293.964 7
  23365619.116    11445492.953 6   8918562.979 4
 91 12  4 14 14 30.0000000  0  5 17 20  3 16 24
  23498945.218    -5523350.137 5  -4303908.897 3
  20659429.768    -3175783.750 9  -2474637.614 9
  22800033.669    -7905304.924 7  -6159977.200 4
  21375417.804    -5958828.330 8  -4643242.854 6
  23383263.100    11538201.645 6   8990803.445 3
 91 12  4 14 15  0.0000000  0  5 17 20  3 16 24
  23484835.478    -5597501.600 5  -4361689.267 3
  20663940.458    -3152079.993 9  -2456167.167 9
  22790964.041    -7952973.966 7  -6197121.927 2
  21375790.453    -5956873.713 8  -4641719.781 6
  23400908.883    11630962.700 6   9063084.715 5
 91 12  4 14 15 30.0000000  0  5 17 20  3 16 24
  23470768.020    -5671421.955 6  -4419289.567 3
  20668567.156    -3127767.232 9  -2437222.178 9
  22781898.618    -8000604.219 7  -6234236.382 2
  21376269.811    -5954347.270 8  -4639751.139 6
  23418571.452    11723754.832 6   9135390.180 3
 91 12  4 14 16  0.0000000  0  5 17 20  3 16 24
  23456748.829    -5745091.334 6  -4476694.256 1
  20673311.364    -3102842.928 9  -2417800.664 9
  22772845.480    -8048178.518 7  -6271307.257 1
  21376864.305    -5951226.770 8  -4637319.595 6
  23436231.038    11816590.122 6   9207729.264 4
 91 12  4 14 16 30.0000000  0  5 17 20  3 16 24
  23442775.498    -5818515.865 5  -4533908.213 2
  20678168.301    -3077324.183 9  -2397915.937 9
  22763800.142    -8095711.183 7  -6308345.713 4
  21377566.711    -5947531.507 8  -4634440.200 6
  23453905.299    11909459.381 6   9280094.863 3
 91 12  4 14 17  0.0000000  0  5 17 20  3 16 24
  23428856.733    -5891669.018 6  -4590910.626 1
  20683138.856    -3051192.009 9  -2377553.224 9
  22754765.902    -8143185.774 7  -6345338.916 4
  21378388.756    -5943230.880 8  -4631089.085 6
  23471595.160    12002392.182 6   9352509.950 2
 91 12  4 14 17 30.0000000  0  5 17 20  3 16 24
  23414985.049    -5964560.523 6  -4647709.146 2
  20688227.531    -3024447.464 9  -2356713.341 9
  22745741.557    -8190607.188 7  -6382290.658 3
  21379329.200    -5938301.409 8  -4627247.942 6
  23489290.711    12095383.946 6   9424970.970 3
 91 12  4 14 18  0.0000000  0  5 17 20  3 16 24
  23401167.914    -6037194.814 6  -4704307.346 1
  20693431.640    -2997091.843 9  -2335397.301 9
  22736721.103    -8237985.964 7  -6419209.223 3
  21380385.060    -5932735.791 8  -4622911.123 7
  23506988.948    12188429.717 6   9497474.079 3
 91 12  4 14 18 30.0000000  0  5 17 20  3 16 24
  23387390.339    -6109568.437 6  -4760702.375 3
  20698761.652    -2969097.299 9  -2313583.392 9
  22727721.328    -8285306.093 7  -6456082.041 2
  21381564.748    -5926525.004 8  -4618071.571 6
  23524715.386    12281551.114 6   9570036.115 4
 91 12  4 14 19  0.0000000  0  5 17 20  3 16 24
  23373668.849    -6181664.114 6  -4816880.843 3
  20704217.270    -2940426.123 9  -2291242.237 9
  22718736.839    -8332528.314 7  -6492878.575 2
  21382876.637    -5919638.353 8  -4612705.371 7
  23542453.497    12374776.162 6   9642678.906 4
 91 12  4 14 19 30.0000000  0  5 17 20  3 16 24
  23359998.906    -6253511.580 6  -4872865.914 3
  20709796.105    -2911118.395 9  -2268405.069 9
  22709760.761    -8379675.206 7  -6529616.394 2
  21384307.555    -5912125.148 8  -4606850.958 7
  23560206.005    12468072.244 6   9715377.049 4
 91 12  4 14 20  0.0000000  0  5 17 20  3 16 24
  23346373.044    -6325126.739 6  -4928669.953 3
  20715488.558    -2881198.261 9  -2245090.703 9
  22700803.861    -8426758.323 7  -6566304.536 3
  21385846.385    -5904031.476 8  -4600544.221 6
  23577973.817    12561419.590 6   9788115.131 2
 91 12  4 14 20 30.0000000  0  5 17 20  3 16 24
  23332782.256    -6396547.407 6  -4984322.449 2
  20721289.848    -2850705.542 9  -2221330.169 9
  22691851.463    -8473812.699 7  -6602970.293 2
  21387488.643    -5895412.149 8  -4593827.876 7
  23595738.609    12654778.706 6   9860862.409 2
 91 12  4 14 21  0.0000000  0  5 17 20  3 16 24
  23319239.735    -6467722.559 6  -5039783.589 3
  20727206.850    -2819611.830 9  -2197101.327 9
  22682906.848    -8520804.271 7  -6639587.109 2
  21389234.642    -5886225.767 8  -4586669.684 7
  23613511.202    12748183.573 6   9933645.307 2
 91 12  4 14 21 30.0000000  0  5 17 20  3 16 24
  23305737.681    -6538647.873 5  -5095050.059 2
  20733235.377    -2787947.160 9  -2172427.583 9
  22673970.940    -8567761.232 7  -6676176.958 3
  21391090.664    -5876478.955 8  -4579074.789 6
  23631296.691    12841619.498 6  10006452.479 2
 91 12  4 14 22  0.0000000  0  5 17 20  3 16 24
  23292299.478    -6609298.485 6  -5150102.455 2
  20739373.334    -2755684.310 9  -2147287.722 9
  22665044.316    -8614670.135 7  -6712729.362 3
  21393055.803    -5866136.872 8  -4571016.044 7
  23649082.773    12935104.495 6  10079297.799 2
 91 12  4 14 22 30.0010000  0  5 17 20  3 16 24
  23278916.438    -6679645.805 6  -5204918.522 2
  20745628.804    -2722801.135 9  -2121664.497 9
  22656132.389    -8661518.293 7  -6749234.443 3
  21395145.348    -5855159.889 8  -4562462.579 7
  23666884.459    13028659.459 6  10152197.678 3
 91 12  4 14 23  0.0010000  0  5 17 20  3 16 24
  23265575.380    -6749715.792 6  -5259518.510 3
  20751996.685    -2689334.097 9  -2095586.317 9
  22647221.051    -8708336.465 7  -6785716.149 3
  21397351.230    -5843568.334 8  -4553430.217 6
  23684696.019    13122247.396 6  10225123.210 3
 91 12  4 14 23 30.0010000  0  5 17 20  3 16 24
  23252297.876    -6819501.919 6  -5313897.320 4
  20758486.892    -2655242.579 9  -2069021.530 9
  22638321.109    -8755097.822 7  -6822153.565 3
  21399677.920    -5831344.156 8  -4543904.909 7
  23702509.689    13215892.292 6  10298093.156 4
 91 12  4 14 24  0.0010000  0  5 17 20  3 16 24
  23239068.028    -6889020.235 6  -5368067.431 5
  20765094.923    -2620507.757 9  -2041955.462 9
  22629434.672    -8801792.553 7  -6858539.072 3
  21402120.619    -5818493.944 8  -4533891.798 6
  23720344.056    13309595.481 6  10371108.497 2
 91 12  4 14 24 30.0010000  0  5 17 20  3 16 24
  23225886.448    -6958258.304 6  -5422019.200 4
  20771833.063    -2585102.367 9  -2014366.873 9
  22620570.712    -8848393.542 7  -6894851.540 2
  21404692.240    -5804990.546 8  -4523369.697 6
  23738196.693    13403383.356 6  10444189.832 3
 91 12  4 14 25  0.0010000  0  5 17 20  3 16 24
  23212752.245    -7027320.683 6  -5475834.036 3
  20778682.413    -2549112.713 9  -1986323.017 9
  22611699.842    -8894990.560 7  -6931160.916 3
  21407370.883    -5790936.128 8  -4512418.241 6
  23756037.342    13497161.981 6  10517263.948 4
 91 12  4 14 25 30.0010000  0  5 17 20  3 16 24
  23199653.117    -7096124.239 6  -5529447.145 1
  20785655.293    -2512464.157 9  -1957765.740 9
  22602849.370    -8941508.915 7  -6967408.998 4
  21410161.051    -5776262.801 8  -4500984.508 6
  23773893.871    13591004.001 6  10590387.481 4
 91 12  4 14 26  0.0010000  0  5 17 20  3 16 24
  23186613.633    -7164669.841 6  -5582859.282 3
  20792749.575    -2475192.081 9  -1928722.593 9
  22594005.199    -8987969.098 7  -7003611.756 5
  21413066.041    -5760979.373 8  -4489075.366 6
  23791759.701    13684889.324 6  10663544.718 2
 91 12  4 14 26 30.0010000  0  5 17 20  3 16 24
  23173620.341    -7232955.681 6  -5636069.028 3
  20799952.990    -2437321.004 9  -1899212.689 9
  22585175.999    -9034385.689 7  -7039780.537 5
  21416090.652    -5745107.188 8  -4476707.465 6
  23809635.738    13778809.259 6  10736728.965 3
 91 12  4 14 27  0.0010000  0  5 17 20  3 16 24
  23160670.499    -7300988.499 6  -5689081.604 4
  20807272.431    -2398861.766 9  -1869244.482 9
  22576349.819    -9080761.244 7  -7075917.342 4
  21419218.080    -5728666.504 8  -4463896.579 7
  23827512.649    13872757.580 6  10809935.305 2
 91 12  4 14 27 30.0010000  0  5 17 20  3 16 24
  23147780.024    -7368733.708 6  -5741870.088 4
  20814707.882    -2359803.053 9  -1838809.142 9
  22567538.925    -9127061.975 7  -7111995.846 3
  21422461.238    -5711612.137 8  -4450607.505 6
  23845403.066    13966768.940 6  10883190.770 3
 91 12  4 14 28  0.0010000  0  5 17 20  3 16 24
  23134940.816    -7436217.911 6  -5794455.194 3
  20822251.558    -2320160.679 9  -1807919.019 9
  22558737.611    -9173294.978 7  -7148021.570 3
  21425824.017    -5693952.382 8  -4436846.696 6
  23863298.282    14060831.965 6  10956486.484 4
 91 12  4 14 28 30.0010000  0  5 17 20  3 16 24
  23122139.075    -7503468.302 6  -5846858.120 4
  20829898.959    -2279956.655 9  -1776591.247 9
  22549953.695    -9219470.597 7  -7184002.584 3
  21429296.802    -5675710.670 8  -4422632.394 6
  23881206.690    14154933.988 6  11029812.602 5
 91 12  4 14 29  0.0010000  0  5 17 20  3 16 24
  23109384.711    -7570518.250 6  -5899104.835 3
  20837648.898    -2239233.727 9  -1744859.127 9
  22541173.077    -9265616.551 7  -7219960.493 5
  21432876.924    -5656890.914 8  -4407967.678 7
  23899119.286    14249039.941 6  11103141.748 3
 91 12  4 14 29 30.0010000  0  5 17 20  3 16 24
  23096672.000    -7637298.983 6  -5951141.736 3
  20845509.750    -2197935.457 9  -1712678.701 9
  22532408.932    -9311680.808 7  -7255854.733 3
  21436579.058    -5637428.558 8  -4392802.246 6
  23917033.976    14343200.079 6  11176513.171 2
 91 12  4 14 30  0.0010000  0  5 17 20  3 16 24
  23084011.169    -7703838.373 6  -6002990.621 4
  20853474.343    -2156069.919 9  -1680056.235 9
  22523652.308    -9357697.448 7  -7291711.868 3
  21440396.921    -5617375.314 8  -4377176.381 6
  23934959.171    14437384.320 6  11249903.344 1
 91 12  4 14 30 30.0010000  0  5 17 20  3 16 24
  23071399.496    -7770115.935 6  -6054635.469 2
  20861556.743    -2113610.048 9  -1646970.660 9
  22514904.356    -9403659.224 7  -7327526.267 4
  21444325.698    -5596717.857 8  -4361079.705 7
  23952888.555    14531605.457 6  11323322.276 2
 91 12  4 14 31  0.0010000  0  5 17 20  3 16 24
  23058843.593    -7836101.709 6  -6106052.965 3
  20869760.265    -2070492.707 9  -1613372.768 9
  22506175.600    -9449542.116 7  -7363279.188 3
  21448379.191    -5575432.873 8  -4344494.044 7
  23970826.942    14625878.068 6  11396781.285 3
 91 12  4 14 31 30.0010000  0  5 17 20  3 16 24
  23046344.944    -7901798.231 6  -6157245.077 3
  20878093.006    -2026704.105 9  -1579251.811 9
  22497455.238    -9495352.303 7  -7398975.459 3
  21452543.005    -5553549.689 8  -4327442.236 6
  23988773.723    14720186.836 6  11470268.463 2
 91 12  4 14 32  0.0010000  0  5 17 20  3 16 24
  23033887.670    -7967243.396 6  -6208241.321 3
  20886545.647    -1982284.038 9  -1544638.815 9
  22488745.957    -9541118.132 7  -7434637.155 4
  21456814.749    -5531094.030 8  -4309944.353 6
  24006724.692    14814498.322 6  11543757.752 1
 91 12  4 14 32 30.0010000  0  5 17 20  3 16 24
  23021491.559    -8032377.535 6  -6258995.207 3
  20895126.896    -1937199.530 9  -1509508.065 8
  22480057.074    -9586783.018 7  -7470220.186 2
  21461212.116    -5507991.539 8  -4291942.467 7
  24024674.161    14908843.493 6  11617273.311 2
 91 12  4 14 33  0.0010000  0  5 17 20  3 16 24
  23009143.104    -8097284.081 6  -6309571.754 2
  20903809.496    -1891563.141 9  -1473947.280 9
  22471370.600    -9632431.406 7  -7505790.373 4
  21465716.785    -5484317.963 8  -4273495.565 6
  24042617.051    15003116.855 6  11690732.931 3
 91 12  4 14 33 30.0010000  0  5 17 20  3 16 24
  22996842.009    -8161920.632 6  -6359937.900 2
  20912598.508    -1845372.859 8  -1437954.898 9
  22462698.802    -9678018.266 7  -7541312.624 3
  21470340.500    -5460014.914 8  -4254558.174 7
  24060547.027    15097375.233 6  11764180.862 2
 91 12  4 14 34  0.0010000  0  5 17 20  3 16 24
  22984594.295    -8226273.363 6  -6410082.870 2
  20921497.246    -1798618.433 9  -1401522.918 9
  22454036.601    -9723531.210 7  -7576777.268 4
  21475090.100    -5435063.457 8  -4235115.528 6
  24078489.306    15191644.860 5  11837637.540 3
 91 12  4 14 34 30.0010000  0  5 17 20  3 16 24
  22972401.130    -8290363.639 6  -6460023.359 2
  20930496.411    -1751320.578 9  -1364667.490 9
  22445384.591    -9768998.856 7  -7612206.637 3
  21479951.836    -5409512.896 8  -4215206.035 6
  24096424.396    15285902.498 5  11911084.896 3
 91 12  4 14 35  0.0010000  0  5 17 20  3 16 24
  22960261.345    -8354140.801 6  -6509719.877 2
  20939615.807    -1703413.600 9  -1327337.417 9
  22436750.555    -9814361.107 7  -7647553.863 4
  21484933.192    -5383323.439 8  -4194798.700 7
  24114380.460    15380228.655 5  11984585.611 4
 91 12  4 14 35 30.0010000  0  5 17 20  3 16 24
  22948173.405    -8417681.873 6  -6559232.411 2
  20948838.020    -1654947.588 9  -1289571.733 9
  22428128.821    -9859682.708 7  -7682869.434 4
  21490021.868    -5356584.887 8  -4173963.521 7
  24132332.634    15474574.544 5  12058101.722 2
 91 12  4 14 36  0.0010000  0  5 17 20  3 16 24
  22936128.950    -8480972.214 6  -6608549.580 3
  20958171.461    -1605901.275 9  -1251353.878 9
  22419511.589    -9904953.406 7  -7718145.332 5
  21495214.581    -5329302.132 8  -4152704.271 7
  24150290.199    15568936.225 5  12131630.104 3
 91 12  4 14 36 30.0010000  0  5 17 20  3 16 24
  22924138.748    -8543980.473 6  -6657646.928 3
  20967620.021    -1556246.053 9  -1212661.546 9
  22410914.146    -9950132.665 7  -7753349.966 3
  21500518.802    -5301428.446 8  -4130984.572 6
  24168248.672    15663339.809 6  12205191.154 3
 91 12  4 14 37  0.0010000  0  5 17 20  3 16 24
  22912201.910    -8606714.846 6  -6706530.893 5
  20977184.294    -1505974.727 9  -1173489.125 9
  22402334.380    -9995218.425 7  -7788481.759 4
  21505940.549    -5272944.724 8  -4108789.516 6
  24186230.825    15757790.020 6  12278788.527 3
 91 12  4 14 37 30.0010000  0  5 17 20  3 16 24
  22900313.338    -8669185.518 6  -6755209.353 5
  20986864.889    -1455110.964 9  -1133855.075 9
  22393769.622   -10040231.025 7  -7823556.545 3
  21511473.525    -5243871.087 8  -4086134.785 5
  24204208.772    15852269.296 6  12352408.572 3
 91 12  4 14 38  0.0010000  0  5 17 20  3 16 24
  22888484.725    -8731382.042 6  -6803674.222 5
  20996654.025    -1403665.210 9  -1093767.521 9
  22385216.834   -10085176.893 7  -7858579.322 4
  21517117.414    -5214205.475 8  -4063018.755 6
  24222181.641    15946765.652 6  12426041.908 3
 91 12  4 14 38 30.0010000  0  5 17 20  3 16 24
  22876690.594    -8793331.890 6  -6851946.850 3
  21006550.463    -1351654.330 9  -1053239.604 8
  22376673.643   -10130078.010 7  -7893567.240 4
  21522870.733    -5183969.611 8  -4039458.396 7
  24240167.388    16041270.585 6  12499682.394 3
 91 12  4 14 39  0.0010000  0  5 17 20  3 16 24
  22864950.123    -8855028.053 6  -6900021.792 3
  21016556.941    -1299078.899 9  -1012271.794 9
  22368136.456   -10174929.270 7  -7928516.311 2
  21528728.667    -5153176.585 8  -4015463.875 6
  24258145.632    16135782.403 6  12573327.805 3
 91 12  4 14 39 30.0010000  0  5 17 20  3 16 24
  22853261.217    -8916433.405 6  -6947870.139 2
  21026672.239    -1245923.570 9   -970852.109 9
  22359619.353   -10219696.393 7  -7963399.817 4
  21534699.032    -5121796.197 8  -3991011.683 6
  24276143.368    16230317.120 6  12646990.998 2
 91 12  4 14 40  0.0010000  0  5 17 20  3 16 24
  22841626.877    -8977574.148 6  -6995512.281 2
  21036896.356    -1192195.849 9   -928986.401 8
  22351113.943   -10264392.008 7  -7998227.601 3
  21540786.924    -5089829.068 8  -3966102.286 6
  24294131.820    16324848.677 6  12720651.750 2
 91 12  4 14 40 30.0010000  0  5 17 20  3 16 24
  22830045.290    -9038455.953 6  -7042952.680 2
  21047226.903    -1137897.683 9   -886676.194 8
  22342623.522   -10309009.927 7  -8032994.845 5
  21546981.542    -5057264.393 8  -3940727.269 7
  24312119.976    16419382.823 6  12794314.507 3
 91 12  4 14 41  0.0010000  0  5 17 20  3 16 24
  22818505.077    -9099085.336 6  -7090196.348 2
  21057662.080    -1083054.398 9   -843941.201 8
  22334143.589   -10353565.667 7  -8067713.634 4
  21553292.169    -5024116.040 8  -3914897.417 6
  24330106.317    16513897.477 6  12867962.125 2
 91 12  4 14 41 30.0010000  0  5 17 20  3 16 24
  22807016.726    -9159470.870 6  -7137250.056 3
  21068202.483    -1027671.380 9   -800785.652 9
  22325677.755   -10398070.888 7  -8102393.064 4
  21559709.225    -4990390.998 8  -3888618.204 6
  24348091.768    16608400.020 6  12941600.237 1
 91 12  4 14 42  0.0010000  0  5 17 20  3 16 24
  22795576.643    -9219592.201 6  -7184097.876 3
  21078849.611     -971727.977 9   -757193.453 9
  22317217.017   -10442512.562 8  -8137022.982 4
  21566239.899    -4956078.507 8  -3861881.263 7
  24366078.719    16702924.717 6  13015255.657 2
 91 12  4 14 42 30.0010000  0  5 17 20  3 16 24
  22784191.737    -9279414.701 6  -7230712.828 3
  21089603.779     -915202.067 9   -713147.344 9
  22308777.847   -10486862.430 7  -8171581.358 4
  21572883.302    -4921156.276 8  -3834669.184 6
  24384074.657    16797497.174 6  13088948.303 2
 91 12  4 14 43  0.0010000  0  5 17 20  3 16 24
  22772858.972    -9338971.141 6  -7277120.460 4
  21100465.248     -858126.492 9   -668672.923 9
  22300350.090   -10531152.605 8  -8206093.215 4
  21579637.635    -4885659.901 8  -3807009.725 6
  24402073.894    16892075.184 5  13162645.271 2
 91 12  4 14 43 30.0010000  0  5 17 20  3 16 24
  22761557.408    -9398276.461 6  -7323332.432 5
  21111432.257     -800498.706 9   -623768.210 8
  22291934.618   -10575388.060 7  -8240562.443 5
  21586503.179    -4849591.944 8  -3778904.881 6
  24420063.847    16986643.965 5  13236335.028
 91 12  4 14 44  0.0010000  0  5 17 20  3 16 24
  22750346.655    -9457270.363 6  -7369301.728 5
  21122513.180     -742266.182 9   -578392.264 8
  22283538.324   -10619507.098 7  -8274940.948 4
  21593489.234    -4812881.831 8  -3750299.655 6
  24438070.884    17081234.775 5  13310041.912 3
 91 12  4 14 44 30.0010000  0  5 17 20  3 16 24
  22739172.792    -9515987.811 6  -7415055.602 5
  21133702.643     -683460.801 9   -532569.944 8
  22275157.926   -10663534.948 7  -8309248.403 4
  21600591.019    -4775556.667 8  -3721215.148 6
  24456065.915    17175796.451 5  13383726.572 2
 91 12  4 14 45  0.0010000  0  5 17 20  3 16 24
  22728048.104    -9574447.278 6  -7460608.455 5
  21144998.518     -624105.156 9   -486318.859 8
  22266793.112   -10707494.609 7  -8343502.710 3
  21607804.032    -4737648.613 8  -3691676.454 6
  24474051.069    17270309.400 5  13457373.271 3
 91 12  4 14 45 30.0010000  0  5 17 20  3 16 24
  22716975.871    -9632624.624 6  -7505941.466 5
  21156404.434     -564173.283 8   -439618.753 8
  22258447.196   -10751363.890 7  -8377686.611 2
  21615130.349    -4699149.767 8  -3661677.418 7
  24492026.922    17364797.333 5  13531000.037 1
 91 12  4 14 46  0.0010000  0  5 17 20  3 16 24
  22705962.096    -9690517.042 6  -7551052.456 2
  21167917.058     -503674.084 8   -392476.579 8
  22250116.864   -10795146.933 7  -8411803.310 4
  21622563.705    -4660081.867 8  -3631234.960 6
  24510006.981    17459259.976 5  13604607.086 3
 91 12  4 14 46 30.0010000  0  5 17 20  3 16 24
  22694988.492    -9748170.832 6  -7595977.503 2
  21179529.218     -442647.957 8   -344923.814 8
  22241791.627   -10838886.808 8  -8445886.367 4
  21630094.504    -4620510.260 8  -3600399.997 7
  24527979.832    17553680.412 6  13678181.229 2
 91 12  4 14 47  0.0010000  0  5 17 20  3 16 24
  22684066.156    -9805559.210 6  -7640695.731 4
  21191245.713     -381084.536 8   -296952.376 7
  22233480.175   -10882565.315 8  -8479921.608 4
  21637723.023    -4580429.297 8  -3569168.144 6
  24545941.900    17648096.052 6  13751751.628 2
 91 12  4 14 47 30.0010000  0  5 17 20  3 16 24
  22673199.871    -9862674.089 6  -7685200.845 4
  21203061.727     -318987.093 8   -248564.809 8
  22225181.323   -10926176.345 8  -8513904.263 5
  21645445.966    -4539829.995 8  -3537532.368 6
  24563903.357    17742512.808 6  13825322.899 2
 91 12  4 14 48  0.0010000  0  5 17 20  3 16 24
  22662387.262    -9919489.510 7  -7729472.621 4
  21214983.873     -256339.312 8   -199748.422 9
  22216899.258   -10969693.804 8  -8547814.019 6
  21653280.748    -4498665.232 8  -3505455.973 6
  24581881.915    17836965.972 6  13898922.557 1
 91 12  4 14 48 30.0010000  0  5 17 20  3 16 24
  22651625.905    -9976027.335 6  -7773528.106 5
  21227004.944     -193176.410 8   -150530.639 8
  22208632.775   -11013139.690 8  -8581668.000 4
  21661221.050    -4456939.174 8  -3472942.216 6
  24599858.065    17931437.432 6  13972536.433 3
 91 12  4 14 49  0.0010000  0  5 17 20  3 16 24
  22640922.709   -10032301.331 6  -7817378.004 4
  21239121.066     -129504.112 8   -100915.925 8
  22200375.594   -11056527.669 8  -8615476.862 5
  21669266.578    -4414654.607 8  -3439993.273 6
  24617833.935    18025893.474 6  14046138.307 2
 91 12  4 14 49 30.0010000  0  5 17 20  3 16 24
  22630263.593   -10088303.653 6  -7861016.201 5
  21251342.100      -65284.703 8    -50874.889 8
  22192134.903   -11099830.272 8  -8649219.197 4
  21677425.724    -4371780.482 8  -3406584.917 7
  24635811.586    18120356.410 6  14119745.569 2
 91 12  4 14 50  0.0010000  0  5 17 20  3 16 24
  22619656.635   -10144040.289 6  -7904447.378 5
  21263665.373        -514.372 8      -404.556 8
  22183912.500   -11143041.889 8  -8682890.625 4
  21685698.209    -4328312.692 8  -3372713.985 6
  24653787.736    18214835.372 6  14193365.298 2
 91 12  4 14 50 30.0010000  0  5 17 20  3 16 24
  22609100.038   -10199529.327 6  -7947685.624 3
  21276093.872       64801.831 8     50491.124 8
  22175705.977   -11186169.151 8  -8716496.331 5
  21694079.793    -4284281.297 8  -3338403.860 6
  24671768.091    18309311.603 6  14266983.375 2
 91 12  4 14 51  0.0010000  0  5 17 20  3 16 24
  22598583.333   -10254791.446 6  -7990747.051 4
  21288625.798      130651.085 8    101802.166 8
  22167510.552   -11229227.562 8  -8750048.387 5
  21702557.929    -4239716.438 8  -3303678.040 6
  24689737.645    18403759.452 6  14340579.363 3
 91 12  4 14 51 30.0010000  0  5 17 20  3 16 24
  22588118.472   -10309793.528 6  -8033605.832 3
  21301260.541      197038.419 8    153532.504 8
  22159337.306   -11272189.095 8  -8783524.950 5
  21711144.588    -4194588.104 8  -3268513.163 6
  24707710.811    18498202.661 6  14414171.215 2
 91 12  4 14 52  0.0010000  0  5 17 20  3 16 24
  22577704.881   -10364506.907 6  -8076239.663 2
  21313995.728      263964.474 8    205682.612 8
  22151181.162   -11315040.532 8  -8816915.733 5
  21719844.568    -4148879.010 8  -3232895.751 7
  24725682.162    18592636.797 6  14487756.049 2
 91 12  4 14 52 30.0010000  0  5 17 20  3 16 24
  22567339.556   -10418969.253 7  -8118677.881 4
  21326822.947      331385.132 8    258218.130 8
  22143040.897   -11357827.424 8  -8850256.214 4
  21728643.474    -4102640.486 8  -3196865.794 7
  24743634.038    18686996.820 5  14561283.587 2
 91 12  4 14 53  0.0010000  0  5 17 20  3 16 24
  22557035.098   -10473130.665 7  -8160881.577 4
  21339754.204      399323.581 8    311157.127 8
  22134917.123   -11400510.713 8  -8883515.975 3
  21737550.309    -4055829.274 8  -3160389.589 6
  24761589.510    18781325.157 5  14634785.954 1
 91 12  4 14 53 30.0010000  0  5 17 20  3 16 24
  22546774.701   -10527033.437 7  -8202883.768 3
  21352769.082      467725.897 8    364457.584 8
  22126807.134   -11443134.757 8  -8916729.563 4
  21746555.774    -4008492.560 8  -3123503.903 7
  24779527.897    18875586.857 5  14708236.353 2
 91 12  4 14 54  0.0010000  0  5 17 20  3 16 24
  22536585.345   -10580603.346 7  -8244626.581 3
  21365892.204      536686.696 8    418193.198 7
  22118723.530   -11485616.250 8  -8949832.074 4
  21755682.063    -3960552.344 8  -3086147.945 6
  24797467.768    18969870.145 4  14781704.049 2
 91 12  4 14 54 30.0010000  0  5 17 20  3 16 24
  22526446.960   -10633856.766 7  -8286122.793 4
  21379119.940      606193.437 8    472354.231 7
  22110663.606   -11527967.602 8  -8982833.169 4
  21764912.373    -3912034.475 8  -3048341.863 5
  24815414.549    19064169.623 4  14855184.405 2
 91 12  4 14 55  0.0010000  0  5 17 20  3 16 24
  22516363.439   -10686855.629 7  -8327420.642 4
  21392439.430      676192.132 8    526898.604 7
  22102617.485   -11570249.976 8  -9015780.523 4
  21774244.610    -3862992.374 8  -3010127.302 7
  24833352.919    19158431.757 4  14928635.140 1
 91 12  4 14 55 30.0010000  0  5 17 20  3 16 24
  22506327.295   -10739599.186 7  -8368519.548 4
  21405858.734      746720.060 8    581855.357 8
  22094586.633   -11612452.415 8  -9048665.586 4
  21783684.776    -3813410.821 8  -2971492.395 6
  24851283.821    19252651.024 5  15002052.993 2
 91 12  4 14 56  0.0010000  0  5 17 20  3 16 24
  22496331.322   -10792124.424 7  -8409448.340 5
  21419379.669      817755.005 8    637207.192 8
  22086565.693   -11654605.210 8  -9081511.963 4
  21793208.268    -3763323.996 8  -2932463.767 7
  24869194.619    19346787.709 5  15075406.467 2
 91 12  4 14 56 30.0010000  0  5 17 20  3 16 24
  22486384.192   -10844404.163 7  -8450185.839 4
  21432992.654      889301.086 8    692957.322 8
  22078555.833   -11696690.590 8  -9114305.807 4
  21802842.114    -3712725.037 8  -2893036.084 6
  24887094.931    19440871.179 5  15148718.020 2
 91 12  4 14 57  0.0010000  0  5 17 20  3 16 24
  22476485.957   -10896417.942 7  -8490716.099 6
  21446708.159      961369.052 8    749114.100 8
  22070565.466   -11738683.743 8  -9147027.792 3
  21812570.069    -3661585.404 8  -2853187.090 6
  24904995.835    19534930.355 5  15222011.108 1
 91 12  4 14 57 30.0010000  0  5 17 20  3 16 24
  22466642.272   -10948147.149 7  -8531024.613 5
  21460520.495     1033956.356 8    805675.557 7
  22062595.480   -11780562.188 8  -9179660.399 5
  21822408.659    -3609895.845 8  -2812909.578 6
  24922893.442    19628998.334 5  15295310.630 1
 91 12  4 14 58  0.0010000  0  5 17 20  3 16 24
  22456857.935   -10999562.634 7  -8571088.665 4
  21474429.365     1107047.319 8    862629.478 8
  22054651.583   -11822314.521 8  -9212194.734 5
  21832351.584    -3557654.002 8  -2772201.711 5
  24940807.242    19723100.635 5  15368637.281 2
 91 12  4 14 58 30.0010000  0  5 17 20  3 16 24
  22447128.182   -11050696.812 7  -8610933.513 4
  21488428.767     1180605.629 8    919947.577 7
  22046723.879   -11863969.416 8  -9244653.152 6
  21842392.823    -3504885.423 8  -2731083.403 6
  24958710.537    19817203.108 5  15441963.648 1
 91 12  4 14 59  0.0010000  0  5 17 20  3 16 24
  22437451.774   -11101555.286 7  -8650563.526 4
  21502515.717     1254646.002 8    977641.294 8
  22038818.041   -11905517.678 8  -9277028.473 6
  21852536.896    -3451577.925 8  -2689545.167 6
  24976620.446    19911303.493 5  15515288.816 2
 91 12  4 14 59 30.0010000  0  5 17 20  3 16 24
  22427818.853   -11152148.796 7  -8689987.081 4
  21516700.092     1329182.553 8   1035721.645 8
  22030930.804   -11946968.417 8  -9309327.806 5
  21862778.708    -3397748.276 8  -2647600.060 7
  24994518.349    20005386.521 5  15588600.521 2
 91 12  4 15  0  0.0010000  0  5 17 20  3 16 24
  22418253.062   -11202438.928 7  -8729174.247 4
  21530989.709     1404269.245 8   1094230.688 7
  22023070.249   -11988276.748 8  -9341516.174 6
  21873131.451    -3343347.771 8  -2605210.137 6
  25012428.258    20099476.771 5  15661917.758 2
 91 12  4 15  0 30.0010000  0  5 17 20  3 16 24
  22408728.367   -11252476.849 7  -8768164.865 4
  21545376.454     1479877.757 8   1153146.333 7
  22015230.668   -12029474.614 8  -9373618.464 6
  21883587.901    -3288411.340 8  -2562402.606 6
  25030325.864    20193537.380 5  15735211.497 2
 91 12  4 15  1  0.0010000  0  5 17 20  3 16 24
  22399248.327   -11302308.335 7  -8806994.639 4
  21559853.416     1555953.518 8   1212426.060 7
  22007400.686   -12070617.546 8  -9405677.951 6
  21894126.506    -3233010.932 8  -2519233.539 7
  25048209.982    20287505.420 5  15808433.102 3
 91 12  4 15  1 30.0010000  0  5 17 20  3 16 24
  22389812.052   -11351889.394 7  -8845629.277 5
  21574422.446     1632520.340 8   1272088.442 7
  21999591.399   -12111666.975 8  -9437664.575 5
  21904767.946    -3177102.640 8  -2475668.706 6
  25066078.219    20381405.614 5  15881602.322 3
 91 12  4 15  2  0.0010000  0  5 17 20  3 16 24
  22380427.360   -11401221.708 7  -8884070.080 5
  21589084.380     1709556.766 8   1332116.744 7
  21991796.789   -12152617.124 8  -9469573.843 6
  21915504.419    -3120680.271 8  -2431703.295 6
  25083934.155    20475242.149 5  15954721.887 1
 91 12  4 15  2 30.0010000  0  5 17 20  3 16 24
  22371079.226   -11450322.607 7  -8922330.571 4
  21603826.377     1787035.001 8   1392489.326 7
  21984019.279   -12193491.377 8  -9501423.962 6
  21926332.611    -3063776.165 8  -2387362.498 6
  25101777.194    20569001.993 6  16027781.705 2
 91 12  4 15  3  0.0010000  0  5 17 20  3 16 24
  22361794.645   -11499123.700 7  -8960357.433 4
  21618662.220     1865005.226 8   1453245.260 7
  21976267.840   -12234227.515 8  -9533166.468 6
  21937267.249    -3006325.084 8  -2342595.500 6
  25119619.047    20662752.487 6  16100834.296 2
 91 12  4 15  3 30.0010000  0  5 17 20  3 16 24
  22352571.839   -11547601.863 7  -8998132.680 5
  21633598.176     1943489.474 8   1514401.746 6
  21968547.898   -12274798.632 8  -9564780.380 6
  21948308.298    -2948284.386 8  -2297369.059 7
  25137458.492    20756536.072 5  16173912.647 2
 91 12  4 15  4  0.0010000  0  5 17 20  3 16 24
  22343391.890   -11595832.548 7  -9035715.092 5
  21648616.269     2022411.781 8   1575899.569 7
  21960844.116   -12315288.325 8  -9596330.851 5
  21959448.587    -2889755.657 8  -2251762.340 7
  25155303.940    20850285.280 5  16246964.191 2
 91 12  4 15  4 30.0010000  0  4 17 20  3 16
  22334257.207   -11643836.266 7  -9073120.632 3
  21663714.128     2101736.466 8   1637710.920 7
  21953147.558   -12355733.209 8  -9627846.412 6
  21970671.921    -2830782.583 8  -2205809.381 6
 91 12  4 15  5  0.0010000  0  4 17 20  3 16
  22325180.092   -11691528.270 7  -9110283.294 5
  21678900.703     2181551.762 8   1699904.571 6
  21945477.663   -12396043.400 8  -9659257.012 6
  21981998.387    -2771265.504 8  -2159432.532 7
 91 12  4 15  5 30.0010000  0  4 17 20  3 16
  22316161.139   -11738935.475 7  -9147224.028 4
  21694179.626     2261841.661 8   1762468.047 7
  21937826.354   -12436242.319 8  -9690580.911 6
  21993418.682    -2711239.751 8  -2112659.300 6
 91 12  4 15  6  0.0010000  0  4 17 20  3 16
  22307191.658   -11786060.407 7  -9183944.806 4
  21709546.985     2342601.496 8   1825397.699 7
  21930197.537   -12476320.429 8  -9721810.675 6
  22004936.401    -2650711.183 8  -2065494.252 6
 91 12  4 15  6 30.0010000  0  4 17 20  3 16
  22298286.916   -11832862.127 7  -9220413.736 5
  21725017.476     2423884.517 8   1888735.021 6
  21922607.391   -12516220.909 8  -9752902.020 5
  22016561.160    -2589613.885 8  -2017886.039 5
 91 12  4 15  7  0.0010000  0  4 17 20  3 16
  22289429.255   -11879416.174 7  -9256689.675 4
  21740569.825     2505630.984 8   1952433.475 7
  21915037.329   -12556007.302 8  -9783904.469 6
  22028284.531    -2528016.079 8  -1969887.837 6
 91 12  4 15  7 30.0010000  0  4 17 20  3 16
  22280612.358   -11925750.538 7  -9292794.435 4
  21756209.688     2587801.544 8   2016462.390 6
  21907480.163   -12595703.473 8  -9814836.613 6
  22040095.466    -2465957.911 8  -1921530.909 6
 91 12  4 15  8  0.0010000  0  4 17 20  3 16
  22271835.335   -11971876.634 7  -9328736.902 5
  21771922.405     2670375.387 8   2080805.554 7
  21899944.880   -12635319.537 8  -9845706.335 5
  22051989.133    -2403447.339 8  -1872821.462 7
 91 12  4 15  8 30.0010000  0  4 17 20  3 16
  22263108.673   -12017736.306 7  -9364471.767 5
  21787723.280     2753408.215 8   2145506.370 7
  21892429.089   -12674803.502 8  -9876473.124 6
  22063980.225    -2340428.785 8  -1823716.186 6
 91 12  4 15  9  0.0010000  0  4 17 20  3 16
  22254428.481   -12063332.424 7  -9400001.264 6
  21803606.276     2836877.399 8   2210547.208 7
  21884942.370   -12714165.706 8  -9907145.034 6
  22076065.461    -2276925.603 8  -1774233.275 6
 91 12  4 15  9 30.0010000  0  4 17 20  3 16
  22245796.556   -12108698.900 7  -9435351.824 5
  21819564.535     2920741.984 8   2275896.139 7
  21877468.249   -12753436.801 8  -9937745.944 6
  22088234.335    -2212968.092 8  -1724396.361 7
 91 12  4 15 10  0.0010000  0  4 17 20  3 16
  22237216.790   -12153785.053 7  -9470483.949 5
  21835609.714     3005056.296 8   2341595.514 7
  21870020.200   -12792573.432 8  -9968242.088 6
  22100500.948    -2148519.410 8  -1674176.698 6
 91 12  4 15 10 30.0010000  0  4 17 20  3 16
  22228702.096   -12198544.456 7  -9505361.463 5
  21851746.646     3089861.592 8   2407677.456 7
  21862602.740   -12831537.326 8  -9998603.627 5
  22112866.190    -2083548.188 8  -1623549.858 6
 91 12  4 15 11  0.0010000  0  4 17 20  3 16
  22220240.451   -12242996.340 7  -9539999.346 6
  21867973.813     3175125.849 8   2474117.035 7
  21855218.541   -12870354.080 8 -10028850.523 6
  22125325.261    -2018081.099 8  -1572536.619 5
 91 12  4 15 11 30.0010000  0  4 17 20  3 16
  22211830.074   -12287201.000 7  -9574444.589 6
  21884275.928     3260795.715 8   2540872.680 6
  21847847.552   -12909085.283 8 -10059030.751 6
  22137868.565    -1952161.515 8  -1521170.795 5
 91 12  4 15 12  0.0010000  0  4 17 20  3 16
  22203472.763   -12331120.556 7  -9608667.681 5
  21900663.794     3346909.214 8   2607974.016 6
  21840502.040   -12947696.612 8 -10089117.563 5
  22150504.826    -1885761.001 8  -1469430.225 6
 91 12  4 15 12 30.0010000  0  4 17 20  3 16
  22195174.208   -12374725.699 7  -9642645.779 5
  21917140.080     3433501.218 8   2675448.209 6
  21833182.598   -12986147.237 8 -10119079.154 6
  22163236.104    -1818831.922 8  -1417277.792 6
 91 12  4 15 13  0.0010000  0  4 17 20  3 16
  22186932.313   -12418044.225 7  -9676400.531 5
  21933705.415     3520549.871 8   2743278.231 6
  21825894.951   -13024447.476 8 -10148923.562 5
  22176072.327    -1751391.927 8  -1364727.239 6
 91 12  4 15 13 30.0010000  0  4 17 20  3 16
  22178739.279   -12461086.888 7  -9709940.332 4
  21950357.390     3608055.004 8   2811463.953 7
  21818636.969   -13062595.018 8 -10178648.990 5
  22189002.676    -1683453.914 8  -1311788.616 7
 91 12  4 15 14  0.0010000  0  4 17 20  3 16
  22170592.714   -12503903.477 7  -9743303.966 4
  21967086.111     3695951.577 8   2879954.680 7
  21811398.183   -13100634.826 8 -10208290.462 5
  22202009.161    -1615089.574 8  -1258517.792 5
 91 12  4 15 14 30.0010000  0  4 17 20  3 16
  22162490.526   -12546481.386 7  -9776481.622 5
  21983881.073     3784226.336 8   2948740.107 6
  21804180.982   -13138559.213 8 -10237841.996 5
  22215102.304    -1546287.423 8  -1204905.823 6
 91 12  4 15 15  0.0010000  0  4 17 20  3 16
  22154438.105   -12588783.948 7  -9809444.723 4
  22000754.893     3872899.086 8   3017835.652 7
  21796992.853   -13176334.872 8 -10267277.623 5
  22228285.978    -1477019.553 8  -1150930.959 6
 91 12  4 15 15 30.0010000  0  4 17 20  3 16
  22146439.048   -12630817.092 7  -9842197.875 4
  22017702.457     3961962.861 8   3087235.891 6
  21789830.813   -13213972.329 8 -10296605.574 5
  22241552.698    -1407297.140 8  -1096601.887 6
 91 12  4 15 16  0.0010000  0  4 17 20  3 16
  22138499.931   -12672558.440 7  -9874723.657 6
  22034731.880     4051447.710 8   3156964.233 6
  21782697.844   -13251449.301 8 -10325808.472 5
  22254913.545    -1337092.737 8  -1041897.241 5
 91 12  4 15 16 30.0010000  0  4 17 20  3 16
  22130604.598   -12714048.357 7  -9907053.516 5
  22051841.627     4141342.231 8   3227011.813 6
  21775592.168   -13288792.718 8 -10354907.302 5
  22268358.938    -1266428.796 8   -986834.521 5
 91 12  4 15 17  0.0010000  0  4 17 20  3 16
  22122753.029   -12755294.637 7  -9939193.521 5
  22069028.730     4231675.175 8   3297401.017 6
  21768514.063   -13325994.937 8 -10383896.104 5
  22281893.361    -1195313.076 8   -931419.776 6
 91 12  4 15 17 30.0010000  0  4 17 20  3 16
  22114949.135   -12796311.662 7  -9971154.894 5
  22086297.378     4322425.744 8   3368115.652 6
  21761456.357   -13363073.724 8 -10412788.729 6
  22295504.252    -1123770.661 8   -875672.546 6
 91 12  4 15 18  0.0010000  0  5 17 20  3 23 16
  22107191.117   -12837071.217 7 -10002915.640 5
  22103649.055     4413604.788 8   3439164.153 6
  21754431.615   -13400000.488 8 -10441562.889 5
  24944358.588     -209824.546 5   -163499.669 2
  22309207.751    -1051777.004 8   -819573.697 6
 91 12  4 15 18 30.0010000  0  5 17 20  3 23 16
  22099487.945   -12877555.067 7 -10034461.555 4
  22121079.903     4505200.501 8   3510537.319 6
  21747432.961   -13436762.275 8 -10470208.502 6
  24925966.914     -306483.040 5   -238818.030 4
  22322993.406     -979322.512 8   -763115.756 6
 91 12  4 15 19  0.0010000  0  5 17 20  3 23 16
  22091842.935   -12917737.128 7 -10065772.324 5
  22138584.181     4597194.789 8   3582221.071 6
  21740471.790   -13473345.091 8 -10498714.650 5
  24907607.330     -403017.327 5   -314039.636 2
  22336870.813     -906399.336 8   -706292.611 5
 91 12  4 15 19 30.0010000  0  5 17 20  3 23 16
  22084250.398   -12957642.609 7 -10096867.560 4
  22156153.811     4689522.190 8   3654164.380 6
  21733541.488   -13509784.787 8 -10527109.277 5
  24889240.540     -499469.145 5   -389196.956 2
  22350832.436     -833032.899 8   -649124.076 6
 91 12  4 15 20  0.0010000  0  5 17 20  3 23 16
  22076709.408   -12997265.323 7 -10127742.481 4
  22173791.199     4782199.387 7   3726380.268 6
  21726635.757   -13546066.349 8 -10555380.688 6
  24870908.528     -595830.769 4   -464284.015 4
  22364880.420     -759210.188 8   -591599.989 6
 91 12  4 15 20 30.0010000  0  5 17 20  3 23 16
  22069217.297   -13036639.051 7 -10158423.380 5
  22191486.453     4875196.167 7   3798845.182 7
  21719754.333   -13582223.528 8 -10583555.176 5
  24852579.220     -692148.435 4   -539336.768 3
  22379008.133     -684966.205 8   -533747.651 5
 91 12  4 15 21  0.0010000  0  5 17 20  3 23 16
  22061778.548   -13075730.364 8 -10188884.204 4
  22209252.450     4968561.440 7   3871597.228 6
  21712906.466   -13618211.233 8 -10611597.610 5
  24834267.293     -788370.187 4   -614314.757 2
  22393222.487     -610266.526 8   -475540.199 5
 91 12  4 15 21 30.0010000  0  5 17 20  3 23 16
  22054390.161   -13114546.543 8 -10219130.641 6
  22227094.303     5062320.908 7   3944656.440 6
  21706093.081   -13654017.391 8 -10639498.569 5
  24815972.764     -884476.881 4   -689203.119 3
  22407525.890     -535106.780 8   -416974.258 5
 91 12  4 15 22  0.0010000  0  5 17 20  3 23 16
  22047051.542   -13153126.045 8 -10249192.660 5
  22245013.495     5156472.529 7   4018021.216 6
  21699308.489   -13689661.328 8 -10667273.119 6
  24797708.511     -980489.144 4   -764017.884 2
  22421909.337     -459524.312 8   -358078.906 5
 91 12  4 15 22 30.0010000  0  5 17 20  3 23 16
  22039750.999   -13191469.585 8 -10279070.808 6
  22263004.949     5251014.080 7   4091689.836 6
  21692560.158   -13725135.368 8 -10694915.281 6
  24779459.545    -1076400.203 5   -838753.838 2
  22436370.123     -383515.555 8   -298851.400 5
 91 12  4 15 23  0.0010000  0  5 17 20  3 23 16
  22032500.817   -13229593.493 8 -10308777.819 5
  22281068.333     5345939.833 7   4165657.828 5
  21685839.399   -13760450.939 8 -10722433.970 6
  24761218.361    -1172210.796 5   -913411.454 1
  22450915.158     -307098.167 8   -239305.482 6
 91 12  4 15 23 30.0010000  0  5 17 20  3 23 16
  22025277.911   -13267541.262 8 -10338347.580 5
  22299194.397     5441204.905 8   4239890.248 5
  21679135.740   -13795661.437 8 -10749870.768 6
  24742998.780    -1267982.441 5   -988038.811 1
  22465523.137     -230321.097 8   -179479.295 6
 91 12  4 15 24  0.0010000  0  5 17 20  3 23 16
  22018108.087   -13305226.509 8 -10367712.775 6
  22317398.395     5536858.571 8   4314425.470 6
  21672470.455   -13830704.105 8 -10777176.801 6
  24724783.981    -1363652.689 5  -1062587.079 2
  22480215.365     -153117.369 8   -119320.637 6
 91 12  4 15 24 30.0010000  0  5 17 20  3 23 16
  22010989.201   -13342626.827 8 -10396855.948 5
  22335672.542     5632886.752 7   4389252.507 6
  21665833.056   -13865580.722 8 -10804353.433 6
  24706613.872    -1459208.434 5  -1137046.173 2
  22494987.952      -75483.189 7    -58826.567 6
 91 12  4 15 25  0.0010000  0  5 17 20  3 23 16
  22003931.199   -13379726.688 8 -10425764.991 6
  22354017.432     5729293.859 7   4464374.811 5
  21659227.433   -13900289.326 8 -10831399.154 7
  24688454.530    -1554642.544 5  -1211410.440 3
  22509844.753        2584.224 8      2005.065 6
 91 12  4 15 25 30.0010000  0  5 17 20  3 23 16
  21996931.044   -13416519.876 8 -10454435.061 5
  22372429.192     5826060.798 7   4539777.498 5
  21652656.571   -13934820.293 8 -10858306.449 6
  24670318.589    -1649947.337 5  -1285673.934 3
  22524784.321       81092.407 8     63180.176 5
 91 12  4 15 26  0.0010000  0  5 17 20  3 23 16
  21989983.659   -13453023.299 8 -10482879.340 6
  22390908.990     5923163.269 7   4615441.641 7
  21646120.801   -13969178.511 8 -10885079.143 6
  24652200.045    -1745122.824 5  -1359836.679 3
  22539804.822      160033.805 7    124692.867 6
 91 12  4 15 26 30.0010000  0  5 17 20  3 23 16
  21983088.118   -13489252.226 8 -10511109.720 5
  22409453.266     6020616.058 7   4691378.778 6
  21639613.807   -14003359.751 8 -10911713.935 6
  24634110.259    -1840170.400 5  -1433899.745 3
  22554909.556      239400.319 7    186536.829 4
 91 12  4 15 27  0.0010000  0  5 17 20  3 23 16
  21976236.674   -13525240.416 8 -10539152.523 6
  22428063.173     6118407.116 7   4767579.487 5
  21633144.889   -14037365.525 8 -10938211.998 6
  24616048.359    -1935109.898 5  -1507878.580 3
  22570088.646      319175.412 7    248699.124 5
 91 12  4 15 27 30.0010000  0  5 17 20  3 23 16
  21969436.184   -13560993.345 8 -10567011.995 6
  22446739.042     6216543.592 7   4844049.340 6
  21626708.935   -14071183.577 8 -10964563.796 6
  24598002.653    -2029931.139 4  -1581765.265 4
  22585348.983      399359.352 7    311180.009 5
 91 12  4 15 28  0.0010000  0  5 17 20  3 23 16
  21962674.050   -13596516.372 8 -10594692.316 6
  22465479.372     6315034.229 7   4920795.162 6
  21620305.978   -14104825.207 8 -10990778.116 6
  24579973.733    -2124641.002 4  -1655565.165 2
  22600683.380      479937.525 7    373968.077 5
 91 12  4 15 28 30.0010000  0  5 17 20  3 23 16
  21955961.999   -13631805.475 8 -10622190.367 6
  22484291.352     6413883.397 7   4997820.362 6
  21613938.987   -14138287.244 8 -11016852.495 6
  24561982.891    -2219231.757 5  -1729272.265 2
  22616088.816      560905.060 7    437059.546 6
 91 12  4 15 29  0.0010000  0  5 17 20  3 23 16
  21949293.119   -13666851.965 8 -10649499.370 6
  22503162.977     6513065.419 7   5075104.926 5
  21607607.071   -14171570.598 8 -11042787.643 6
  24544003.146    -2313692.442 5  -1802878.019 2
  22631574.279      642264.089 7    500456.065 6
 91 12  4 15 29 30.0010000  0  5 17 20  3 23 16
  21942676.397   -13701616.841 8 -10676588.930 6
  22522103.880     6612583.877 7   5152651.659 6
  21601306.024   -14204669.993 8 -11068579.443 6
  24526055.457    -2408005.824 5  -1876368.988 1
  22647130.816      724026.593 7    564166.982 6
 91 12  4 15 30  0.0010000  0  5 17 20  3 23 16
  21936116.337   -13736081.849 8 -10703444.838 6
  22541104.410     6712439.758 7   5230461.320 6
  21595045.165   -14237577.868 8 -11094222.008 6
  24508134.171    -2502165.141 5  -1949739.940 2
  22662767.695      806192.756 7    628192.431 5
 91 12  4 15 30 30.0010000  0  5 17 20  3 23 16
  21929613.252   -13770261.298 8 -10730078.227 6
  22560166.120     6812608.306 7   5308514.625 4
  21588819.975   -14270301.545 8 -11119721.037 6
  24490245.848    -2596182.072 5  -2022999.921 3
  22678478.021      888754.036 7    692525.773 6
 91 12  4 15 31  0.0010000  0  5 17 20  3 23 16
  21923161.714   -13804156.203 8 -10756489.894 6
  22579289.587     6913097.947 7   5386818.112 4
  21582627.451   -14302831.976 8 -11145069.479 6
  24472396.212    -2690049.359 5  -2096143.285 1
  22694266.280      971718.978 7    757173.651 6
 91 12  4 15 31 30.0010000  0  5 17 20  3 23 16
  21916765.634   -13837784.695 8 -10782693.960 5
  22598474.200     7013924.678 7   5465384.277 5
  21576473.911   -14335168.990 8 -11170267.223 6
  24454551.672    -2783770.676 5  -2169172.890 1
  22710127.411     1055075.232 7    822126.443 5
 91 12  4 15 32  0.0010000  0  5 17 20  3 23 16
  21910413.632   -13871166.548 8 -10808705.843 6
  22617727.182     7115083.682 7   5544209.367 5
  21570358.447   -14367309.986 8 -11195312.215 6
  24436743.987    -2877344.678 5  -2242087.680 1
  22726062.269     1138803.975 7    887369.498 6
 91 12  4 15 32 30.0010000  0  5 17 20  3 23 16
  21904109.898   -13904300.153 8 -10834524.286 6
  22637037.697     7216567.467 7   5623287.508 5
  21564279.559   -14399251.794 8 -11220201.998 6
  24418967.799    -2970768.180 5  -2314885.207 3
  22742066.702     1222910.378 7    952906.829 5
 91 12  4 15 33  0.0020000  0  5 17 20  3 23 16
  21897849.636   -13937193.843 8 -10860155.788 6
  22656409.693     7318371.276 7   5702615.032 5
  21558240.234   -14430999.286 8 -11244940.360 5
  24401215.887    -3064051.041 5  -2387573.116 2
  22758139.175     1307374.390 7   1018722.812 6
 91 12  4 15 33 30.0020000  0  5 17 20  3 23 16
  21891638.527   -13969830.273 8 -10885586.814 6
  22675841.942     7420477.678 7   5782178.336 4
  21552234.497   -14462542.366 8 -11269519.432 6
  24383493.656    -3157182.216 5  -2460142.814 2
  22774279.999     1392187.015 7   1084810.454 5
 91 12  4 15 34  0.0020000  0  5 17 20  3 23 16
  21885480.206   -14002196.880 8 -10910807.597 6
  22695328.757     7522879.885 7   5861972.137 5
  21546272.822   -14493875.581 8 -11293934.970 6
  24365803.497    -3250158.764 5  -2532591.990 2
  22790488.581     1477376.338 7   1151191.632 5
 91 12  4 15 34 30.0020000  0  5 17 20  3 23 16
  21879367.726   -14034308.774 8 -10935829.904 6
  22714869.825     7625573.790 7   5941993.234 5
  21540351.021   -14525006.535 8 -11318192.908 6
  24348139.131    -3342985.917 5  -2604924.785 2
  22806773.299     1562953.343 7   1217874.898 4
 91 12  4 15 35  0.0020000  0  5 17 20  3 23 16
  21873306.829   -14066167.244 8 -10960654.742 6
  22734469.351     7728563.865 7   6022245.113 4
  21534464.609   -14555926.873 8 -11342286.729 6
  24330504.743    -3435651.101 6  -2677131.391 2
  22823133.576     1648920.301 7   1284862.045 4
 91 12  4 15 35 30.0020000  0  5 17 20  3 23 16
  21867292.088   -14097762.724 8 -10985274.642 6
  22754122.554     7831845.119 7   6102723.877 5
  21528625.539   -14586635.906 8 -11366215.899 6
  24312905.134    -3528142.791 6  -2749202.844 3
  22839568.488     1735284.253 7   1352158.524 5
 91 12  4 15 36  0.0020000  0  5 17 20  3 23 16
  21861330.117   -14129099.039 8 -11009692.606 6
  22773830.900     7935426.001 7   6183436.134 5
  21522817.967   -14617133.259 8 -11389980.125 7
  24295336.988    -3620461.833 5  -2821139.748 1
  22856074.474     1822039.484 7   1419759.896 6
 91 12  4 15 36 30.0020000  0  5 17 20  3 23 16
  21855414.318   -14160185.368 8 -11033915.769 6
  22793603.113     8039312.269 7   6264386.341 5
  21517055.347   -14647415.683 8 -11413576.872 7
  24277794.040    -3712613.183 5  -2892945.990 2
  22872655.688     1909158.945 7   1487645.069 5
 91 12  4 15 37  0.0020000  0  5 17 20  3 23 16
  21849547.381   -14191006.551 8 -11057932.333 6
  22813424.798     8143495.553 7   6345567.975 5
  21511335.008   -14677478.598 8 -11437002.580 7
  24260286.446    -3804604.444 5  -2964627.525 3
  22889300.474     1996623.664 7   1555799.285 6
 91 12  4 15 37 30.0020000  0  5 17 20  3 23 16
  21843732.602   -14221571.967 8 -11081749.590 6
  22833306.425     8247978.433 7   6426983.072 4
  21505657.842   -14707323.081 8 -11460258.080 7
  24242816.055    -3896448.782 5  -3036194.548 1
  22906011.500     2084440.396 7   1624227.771 6
 91 12  4 15 38  0.0020000  0  5 17 20  3 23 16
  21837963.088   -14251901.704 8 -11105383.212 6
  22853245.933     8352756.275 7   6508628.015 4
  21500017.844   -14736950.727 8 -11483344.615 7
  24225356.729    -3988156.756 5  -3107655.337 2
  22922791.490     2172619.082 7   1692938.322 5
 91 12  4 15 38 30.0020000  0  5 17 20  3 23 16
  21832237.358   -14281984.532 8 -11128824.424 6
  22873240.881     8457815.407 7   6590492.140 5
  21494424.020   -14766355.780 8 -11506257.706 7
  24207942.389    -4079718.008 5  -3179001.791 2
  22939641.316     2261169.599 7   1761938.588 5
 91 12  4 15 39  0.0020000  0  5 17 20  3 23 16
  21826563.193   -14311805.258 8 -11152061.404 6
  22893286.208     8563139.982 7   6672563.102 5
  21488870.069   -14795537.797 8 -11528996.995 7
  24190548.430    -4171110.876 5  -3250217.048 3
  22956563.403     2350098.289 7   1831233.538 5
 91 12  4 15 39 30.0020000  0  5 17 20  3 23 16
  21820934.573   -14341368.940 8 -11175098.094 6
  22913377.691     8668737.709 7   6754846.910 5
  21483361.070   -14824494.927 8 -11551561.049 7
  24173193.753    -4262307.233 5  -3321279.193 3
  22973557.140     2439406.154 7   1900823.946 5
 91 12  4 15 40  0.0020000  0  5 17 20  3 23 16
  21815362.038   -14370662.541 8 -11197924.322 6
  22933522.851     8774596.229 7   6837333.925 5
  21477893.760   -14853227.289 8 -11573949.957 7
  24155880.728    -4353285.304 5  -3392171.252 2
  22990620.731     2529059.946 7   1970683.915 5
 91 12  4 15 40 30.0020000  0  5 17 20  3 23 16
  21809844.959   -14399673.360 8 -11220530.224 7
  22953719.872     8880721.721 7   6920028.982 5
  21472468.121   -14881729.825 8 -11596159.777 7
  24138612.394    -4444032.460 5  -3462883.389 3
  23007740.668     2619030.060 7   2040790.351 5
 91 12  4 15 41  0.0020000  0  5 17 20  3 23 16
  21804372.554   -14428410.607 8 -11242922.932 6
  22973966.958     8987126.051 7   7002941.288 5
  21467088.952   -14909999.979 8 -11618188.513 7
  24121387.808    -4534550.925 6  -3533417.298 3
  23024920.286     2709311.561 7   2111139.438 3
 91 12  4 15 41 30.0020000  0  5 17 20  3 23 16
  21798951.696   -14456894.402 8 -11265118.145 6
  22994267.704     9093813.198 7   7086073.995 3
  21461754.438   -14938036.993 8 -11640035.581 7
  24104206.097    -4624857.966 6  -3603786.469 3
  23042159.251     2799896.331 7   2181724.826 5
 91 12  4 15 42  0.0020000  0  5 17 20  3 23 16
  21793582.421   -14485126.413 8 -11287117.164 6
  23014623.907     9200771.347 7   7169417.871 4
  21456460.705   -14965840.889 8 -11661700.997 6
  24087058.274    -4714983.030 6  -3674013.831 2
  23059455.470     2890787.376 7   2252548.878 4
 91 12  4 15 42 30.0020000  0  5 17 20  3 23 16
  21788258.098   -14513108.534 8 -11308921.474 6
  23035027.783     9308005.927 7   7252977.131 4
  21451217.036   -14993409.368 8 -11683182.969 6
  24069938.633    -4804941.290 6  -3744111.205 2
  23076814.057     2982003.426 7   2323626.185 4
 91 12  4 15 43  0.0020000  0  5 17 20  3 23 16
  21782978.465   -14540843.064 8 -11330532.854 6
  23055483.522     9415503.990 7   7336741.698 4
  21446016.837   -15020741.030 8 -11704480.409 6
  24052845.953    -4894737.369 5  -3814082.225 2
  23094236.494     3073559.166 7   2394968.182 4
 91 12  4 15 43 30.0020000  0  5 17 20  3 23 16
  21777747.378   -14568314.180 8 -11351938.970 6
  23075989.622     9523258.682 7   7420706.233 5
  21440861.606   -15047831.224 8 -11725589.689 6
  24035790.773    -4984362.203 5  -3883919.758 2
  23111725.783     3165460.958 7   2466579.835 5
 91 12  4 15 44  0.0020000  0  5 17 20  3 23 16
  21772577.751   -14595511.350 8 -11373131.621 6
  23096542.802     9631262.481 7   7504864.874 5
  21435749.547   -15074678.322 8 -11746509.548 6
  24018772.745    -5073814.438 6  -3953622.781 2
  23129280.440     3257716.284 7   2538466.978 4
 91 12  4 15 44 30.0020000  0  5 17 20  3 23 16
  21767449.516   -14622444.149 8 -11394118.259 6
  23117140.045     9739505.567 7   7589209.976 3
  21430688.146   -15101281.470 8 -11767239.314 6
  24001790.699    -5163081.342 6  -4023181.414 3
  23146903.136     3350326.385 7   2610630.557 3
 91 12  4 15 45  0.0020000  0  5 17 20  3 23 16
  21762372.218   -14649123.420 8 -11414907.352 7
  23137778.941     9847979.159 7   7673734.676 4
  21425673.809   -15127637.770 8 -11787776.739 6
  23984833.537    -5252156.630 6  -4092590.738 3
  23164593.887     3443289.472 7   2683069.192 3
 91 12  4 15 45 30.0020000  0  5 17 20  3 23 16
  21757339.313   -14675561.769 8 -11435508.701 6
  23158468.233     9956680.075 7   7758436.532 4
  21420707.145   -15153747.405 8 -11808121.953 7
  23967920.751    -5341039.497 6  -4161850.104 5
  23182348.489     3536595.168 7   2755774.822 3
 91 12  4 15 46  0.0020000  0  5 17 20  3 23 16
  21752353.455   -14701780.164 8 -11455938.655 6
  23179194.973    10065600.850 7   7843309.672 2
  21415783.968   -15179611.573 8 -11828275.900 7
  23951045.134    -5429728.263 6  -4230958.214 2
  23200165.755     3630220.527 7   2828729.536 4
 91 12  4 15 46 30.0020000  0  5 17 20  3 23 16
  21747409.581   -14727767.390 8 -11476188.470 7
  23199963.699    10174747.905 7   7928359.173 4
  21410910.837   -15205221.490 8 -11848231.731 7
  23934207.594    -5518203.718 6  -4299900.117 2
  23218037.587     3724151.154 7   2901922.134 4
 91 12  4 15 47  0.0020000  0  5 17 20  3 23 16
  21742507.972   -14753513.206 8 -11496250.177 7
  23220776.190    10284109.853 7   8013576.101 3
  21406086.271   -15230577.616 8 -11867989.801 7
  23917409.927    -5606466.253 6  -4368676.112 2
  23235965.470     3818370.928 7   2975340.016 5
 91 12  4 15 47 30.0020000  0  5 17 20  3 23 16
  21737654.927   -14779003.750 8 -11516112.966 7
  23241630.055    10393682.462 7   8098957.178 3
  21401309.379   -15255680.087 8 -11887550.209 7
  23900656.025    -5694507.445 6  -4437279.638 3
  23253951.828     3912862.407 7   3048969.623 5
 91 12  4 15 48  0.0020000  0  5 17 20  3 23 16
  21732857.652   -14804226.024 8 -11535766.708 7
  23262520.792    10503469.391 7   8184505.254 3
  21396579.550   -15280528.146 8 -11906912.376 7
  23883946.796    -5782327.106 6  -4505710.538 1
  23271988.530     4007623.204 7   3122809.064 4
 91 12  4 15 48 30.0020000  0  5 17 20  3 23 16
  21728110.443   -14829175.010 8 -11555207.501 7
  23283449.903    10613471.000 7   8270220.606 3
  21391900.396   -15305116.337 8 -11926072.053 7
  23867275.922    -5869923.227 6  -4573967.241 3
  23290071.126     4102668.134 7   3196869.942 5
 91 12  4 15 49  0.0020000  0  5 17 20  3 23 16
  21723410.000   -14853863.165 8 -11574445.044 6
  23304424.576    10723688.592 7   8356104.285 4
  21387272.807   -15329445.540 8 -11945029.914 7
  23850647.941    -5957305.856 6  -4642057.597 2
  23308214.257     4198010.226 7   3271162.350 4
 91 12  4 15 49 30.0020000  0  5 17 20  3 23 16
  21718761.419   -14878293.696 8 -11593481.854 7
  23325443.329    10834145.162 7   8442174.155 2
  21382693.766   -15353511.588 8 -11963782.712 7
  23834060.428    -6044474.393 6  -4709981.162 3
  23326414.660     4293649.966 7   3345686.699 4
 91 12  4 15 50  0.0020000  0  5 17 20  3 23 16
  21714158.104   -14902487.115 8 -11612333.903 7
  23346510.645    10944839.999 7   8528429.713 3
  21378162.398   -15377312.481 8 -11982328.895 6
  23817518.476    -6131431.303 6  -4777739.815 3
  23344670.816     4389598.154 7   3420451.384 5
 91 12  4 15 50 30.0020000  0  5 17 20  3 23 16
  21709599.758   -14926454.467 8 -11631009.794 7
  23367615.444    11055761.688 7   8614862.025 5
  21373682.002   -15400847.743 8 -12000668.092 6
  23801007.708    -6218179.040 6  -4845335.472 3
  23362988.746     4485862.471 7   3495462.406 4
 91 12  4 15 51  0.0020000  0  5 17 20  3 23 16
  21705084.287   -14950187.052 8 -11649502.763 7
  23388766.103    11166913.447 7   8701473.610 4
  21369257.063   -15424115.637 8 -12018798.962 6
  23784536.814    -6304713.251 6  -4912764.748 4
  23381368.415     4582442.601 7   3570719.507 5
 91 12  4 15 51 30.0020000  0  5 17 20  3 23 16
  21700610.488   -14973686.798 8 -11667814.299 6
  23409958.118    11278278.625 6   8788251.472 4
  21364881.002   -15447115.395 8 -12036720.896 6
  23768114.170    -6391017.556 6  -4980014.851 3
  23399804.447     4679331.210 7   3646216.975 4
 91 12  4 15 52  0.0020000  0  5 17 20  3 23 16
  21696184.641   -14996955.218 8 -11685945.583 8
  23431184.930    11389826.904 6   8875172.041 3
  21360555.599   -15469844.035 8 -12054431.567 6
  23751739.811    -6477083.889 6  -5047079.499 4
  23418303.441     4776545.150 7   3721967.956 3
 91 12  4 15 52 30.0020000  0  5 17 20  3 23 16
  21691805.282   -15019966.139 8 -11703876.208 7
  23452445.612    11501549.257 6   8962228.206 4
  21356286.857   -15492294.933 8 -12071925.818 7
  23735405.918    -6562899.494 6  -5113948.778 3
  23436863.300     4874074.348 7   3797964.571 3
 91 12  4 15 53  0.0020000  0  5 17 20  3 23 16
  21687475.971   -15042718.868 8 -11721605.655 7
  23473738.071    11613443.521 6   9049418.365 3
  21352065.178   -15514465.653 8 -12089201.741 7
  23719127.186    -6648458.406 6  -5180618.025 4
  23455477.413     4971896.061 7   3874189.151 4
 91 12  4 15 53 30.0020000  0  5 17 20  3 23 16
  21683197.928   -15065199.945 8 -11739123.432 6
  23495064.698    11725510.489 6   9136743.094 4
  21347901.347   -15536336.621 8 -12106244.094 7
  23702898.518    -6733747.581 6  -5247077.093 4
  23474146.982     5070003.228 7   3950636.143 4
 91 12  4 15 54  0.0020000  0  5 17 20  3 23 16
  21678964.557   -15087431.772 8 -11756446.982 7
  23516421.321    11837728.047 6   9224185.160 5
  21343793.601   -15557932.110 8 -12123071.788 7
  23686709.725    -6818809.406 6  -5313358.994 3
  23492859.426     5168346.287 6   4027266.928 3
 91 12  4 15 54 30.0020000  0  5 17 20  3 23 16
  21674788.162   -15109394.629 8 -11773560.942 7
  23537810.611    11950135.380 6   9311775.109 3
  21339737.402   -15579234.395 8 -12139671.016 8
  23670568.308    -6903633.395 6  -5379455.559 2
  23511619.841     5266913.002 6   4104072.009 4
 91 12  4 15 55  0.0020000  0  5 17 20  3 23 16
  21670648.324   -15131136.802 8 -11790502.934 7
  23559231.678    12062709.691 6   9399495.178 3
  21335734.881   -15600273.581 8 -12156065.239 7
  23654466.748    -6988260.673 6  -5445398.851 1
  23530412.033     5365675.281 6   4181029.470 2
 91 12  4 15 55 30.0020000  0  5 17 20  3 23 16
  21666556.754   -15152640.340 8 -11807258.975 7
  23580687.524    12175473.166 6   9487362.634 4
  21331784.221   -15621030.564 8 -12172239.555 7
  23638402.374    -7072674.133 6  -5511175.525 3
  23549249.787     5464663.521 6   4258163.012 2
 91 12  4 15 56  0.0020000  0  5 17 20  3 23 16
  21662508.653   -15173916.133 8 -11823837.549 7
  23602186.244    12288434.508 6   9575384.233 3
  21327889.612   -15641509.459 8 -12188197.179 7
  23622377.263    -7156876.870 6  -5576788.005 5
  23568135.512     5563900.831 6   4335490.646 2
 91 12  4 15 56 30.0020000  0  5 17 20  3 23 16
  21658509.133   -15194940.179 8 -11840219.966 7
  23623726.933    12401614.702 6   9663576.408 3
  21324048.365   -15661683.593 8 -12203917.328 6
  23606399.233    -7240839.209 6  -5642213.188 4
  23587071.302     5663425.950 6   4413042.538 2
 91 12  4 15 57  0.0020000  0  5 17 20  3 23 16
  21654548.561   -15215735.382 8 -11856424.055 7
  23645297.897    12514975.914 6   9751910.089 3
  21320263.483   -15681575.587 8 -12219417.616 7
  23590461.967    -7324583.904 6  -5707468.766 4
  23606060.769     5763223.784 6   4490806.942 4
 91 12  4 15 57 30.0020000  0  5 17 20  3 23 16
  21650633.273   -15236314.133 8 -11872459.484 7
  23666901.843    12628483.357 6   9840357.218 3
  21316526.868   -15701207.282 8 -12234715.079 6
  23574566.668    -7408120.248 6  -5772562.001 3
  23625099.986     5863264.743 6   4568760.769 4
 91 12  4 15 58  0.0020000  0  5 17 20  3 23 16
  21646770.458   -15256622.601 8 -11888284.287 7
  23688532.470    12742164.414 6   9928939.634 3
  21312852.323   -15720529.012 8 -12249771.015 6
  23558720.841    -7491390.612 6  -5837447.960 3
  23644191.658     5963591.208 6   4646937.117 2
 91 12  4 15 58 30.0020000  0  5 17 20  3 23 16
  21642956.801   -15276656.780 8 -11903895.365 7
  23710193.372    12855995.027 6  10017638.605 5
  21309235.626   -15739544.957 8 -12264588.683 6
  23542928.970    -7574394.434 6  -5902126.226 3
  23663334.320     6064179.099 6   4725317.175 3
 91 12  4 15 59  0.0020000  0  5 17 20  3 23 16
  21639192.003   -15296456.462 8 -11919323.724 7
  23731873.767    12969936.567 6  10106424.014 3
  21305666.602   -15758285.402 8 -12279191.680 6
  23527179.380    -7657150.567 6  -5966611.502 2
  23682518.043     6164997.468 6   4803876.846 3
 91 12  4 15 59 30.0020000  0  5 17 20  3 23 16
  21635476.067   -15315982.806 9 -11934539.094 7
  23753584.142    13084035.024 6  10195331.711 5
  21302162.616   -15776694.221 8 -12293536.265 7
  23511487.028    -7739606.843 6  -6030863.120 4
  23701758.722     6266098.535 6   4882656.745 3
 91 12  4 16  0  0.0020000  0  5 17 20  3 23 16
  21631796.427   -15335306.734 9 -11949596.743 8
  23775318.196    13198233.709 6  10284317.504 3
  21298712.603   -15794828.212 8 -12307666.692 7
  23495838.772    -7821839.134 6  -6094940.215 2
  23721040.463     6367425.349 6   4961612.554 3
 91 12  4 16  0 30.0020000  0  5 17 20  3 23 16
  21628169.538   -15354370.968 9 -11964452.030 7
  23797083.120    13312613.262 6  10373444.224 3
  21295330.053   -15812618.619 8 -12321529.385 7
  23480240.860    -7903789.094 6  -6158797.316 4
  23740375.880     6469034.475 6   5040788.349 4
 91 12  4 16  1  0.0020000  0  5 17 20  3 23 16
  21624574.427   -15373253.625 8 -11979165.834 7
  23818873.241    13427112.188 6  10462663.942 3
  21291997.864   -15830123.243 8 -12335169.392 7
  23464692.733    -7985520.731 6  -6222484.288 4
  23759754.172     6570861.495 6   5120133.914 2
 91 12  4 16  1 30.0020000  0  5 17 20  3 23 16
  21621030.567   -15391889.690 8 -11993687.488 6
  23840694.826    13541786.817 6  10552020.560 3
  21288731.916   -15847281.304 8 -12348539.343 7
  23449190.762    -8066984.885 6  -6285962.828 4
  23779185.513     6672958.274 6   5199689.714 3
 91 12  4 16  2  0.0020000  0  5 17 20  3 23 16
  21617532.287   -15410289.405 8 -12008024.985 7
  23862544.296    13656607.786 6  10641491.213 3
  21285523.537   -15864121.348 8 -12361661.490 7
  23433737.059    -8148194.291 6  -6349242.852 3
  23798656.728     6775288.530 6   5279427.450 3
 91 12  4 16  2 30.0020000  0  5 17 20  3 23 16
  21614086.183   -15428370.882 8 -12022114.493 7
  23884437.548    13771650.732 6  10731135.331 1
  21282402.094   -15880563.063 8 -12374473.248 6
  23418352.005    -8229051.643 6  -6412248.549 4
  23818183.120     6877912.356 6   5359393.907 4
 91 12  4 16  3  0.0020000  0  5 17 20  3 23 16
  21610689.236   -15446232.499 9 -12036032.683 7
  23906349.385    13886802.681 6  10820863.907 3
  21279326.232   -15896706.112 8 -12387052.275 6
  23403014.624    -8309648.858 6  -6475051.569 4
  23837748.165     6980717.383 6   5439501.573 3
 91 12  4 16  3 30.0020000  0  5 17 20  3 23 16
  21607327.958   -15463892.718 9 -12049793.938 7
  23928273.193    14002025.781 6  10910647.931 5
  21276305.512   -15912585.688 8 -12399425.995 7
  23387717.118    -8390012.371 6  -6537672.466 4
  23857338.111     7083660.532 6   5519716.837 3
 91 12  4 16  4  0.0020000  0  5 17 20  3 23 16
  21604017.355   -15481300.815 9 -12063358.724 7
  23950224.904    14117371.285 6  11000527.347 2
  21273343.564   -15928144.248 8 -12411549.579 7
  23372484.369    -8470074.342 6  -6600058.418 5
  23876960.723     7186789.171 6   5600076.632 4
 91 12  4 16  4 30.0020000  0  5 17 20  3 23 16
  21600747.516   -15498473.203 9 -12076739.840 8
  23972197.294    14232828.447 6  11090493.740 4
  21270445.484   -15943378.341 8 -12423420.331 7
  23357303.168    -8549844.741 6  -6662217.154 3
  23896621.116     7290101.687 6   5680579.723 3
 91 12  4 16  5  0.0020000  0  5 17 20  3 23 16
  21597522.646   -15515411.239 9 -12089938.340 8
  23994184.376    14348369.207 6  11180525.294 2
  21267609.440   -15958292.697 8 -12435041.940 7
  23342181.036    -8629335.509 6  -6724157.985 2
  23916318.084     7393617.389 6   5761241.123 2
 91 12  4 16  5 30.0020000  0  5 17 20  3 23 16
  21594348.137   -15532113.801 9 -12102953.349 8
  24016182.539    14463997.060 6  11270624.722 1
  21264830.667   -15972883.437 8 -12446411.384 7
  23327103.577    -8708550.818 6  -6785884.171 3
  23936063.005     7497359.096 6   5842078.634 3
 91 12  4 16  6  0.0020000  0  5 17 20  3 23 16
  21591219.802   -15548547.438 9 -12115758.803 8
  24038221.187    14579772.233 6  11360838.907 3
  21262126.529   -15987097.966 8 -12457487.682 7
  23312089.968    -8787450.601 6  -6847364.499 4
  23955859.510     7601386.751 6   5923139.406 2
 91 12  4 16  6 30.0020000  0  5 17 20  3 23 16
  21588136.435   -15564756.901 9 -12128389.561 8
  24060269.118    14695637.452 6  11451123.237 2
  21259481.774   -16000993.964 8 -12468315.777 7
  23297119.845    -8866100.779 6  -6908650.333 5
  23975695.277     7705651.111 6   6004384.179 2
 91 12  4 16  7  0.0020000  0  5 17 20  3 23 16
  21585093.257   -15580735.840 9 -12140840.696 8
  24082336.542    14811613.905 6  11541494.754 3
  21256898.147   -16014573.781 8 -12478897.495 7
  23282205.458    -8944507.713 6  -6969746.651 5
  23995584.704     7810148.798 6   6085810.796 1
 91 12  4 16  7 30.0020000  0  5 17 20  3 23 16
  21582102.813   -15596471.569 9 -12153102.321 7
  24104434.852    14927742.034 6  11631983.953 3
  21254376.294   -16027816.553 8 -12489216.572 6
  23267330.962    -9022657.620 6  -7030642.658 4
  24015514.301     7914881.909 6   6167420.817 2
 91 12  4 16  8  0.0020000  0  5 17 20  3 23 16
  21579153.465   -15611949.034 9 -12165162.691 8
  24126562.827    15044011.868 6  11722583.639 3
  21251924.294   -16040715.408 8 -12499267.662 6
  23252510.126    -9100535.743 6  -7091326.913 3
  24035488.884     8019834.004 6   6249201.479 3
 91 12  4 16  8 30.0020000  0  5 17 20  3 23 16
  21576254.163   -15627185.180 9 -12177035.018 8
  24148705.496    15160368.346 6  11813250.798 3
  21249528.362   -16053296.974 8 -12509071.514 6
  23237740.855    -9178156.038 6  -7151810.261 4
  24055490.132     8124960.812 6   6331118.306 3
 91 12  4 16  9  0.0020000  0  5 17 20  3 23 16
  21573405.241   -15642166.839 9 -12188709.051 8
  24170864.655    15276831.880 6  11904001.394 3
  21247198.967   -16065528.207 8 -12518602.383 6
  23223027.338    -9255480.870 6  -7212063.383 5
  24075530.363     8230277.305 6   6413182.921 3
 91 12  4 16  9 30.0020000  0  5 17 20  3 23 16
  21570601.584   -15656903.744 8 -12200192.362 7
  24193040.304    15393369.985 6  11994810.526 1
  21244938.833   -16077408.457 8 -12527859.759 6
  23208374.076    -9332489.133 6  -7272069.830 4
  24095605.966     8335772.391 6   6495386.691 3
 91 12  4 16 10  0.0020000  0  5 17 20  3 23 16
  21567852.494   -15671365.429 8 -12211461.214 8
  24215231.240    15510000.905 6  12085691.523 3
  21242750.348   -16088902.562 8 -12536816.243 7
  23193786.479    -9409130.192 6  -7331790.132 4
  24115721.426     8441464.598 6   6577744.083 4
 91 12  4 16 10 30.0020000  0  5 17 20  3 23 16
  21565141.760   -15685602.364 9 -12222554.940 8
  24237441.074    15626696.364 6  12176622.793 1
  21240629.013   -16100052.549 8 -12545504.573 7
  23179264.530    -9485457.984 7  -7391266.345 3
  24135862.083     8547320.664 6   6660229.159 3
 91 12  4 16 11  0.0020000  0  5 17 20  3 23 16
  21562473.918   -15699620.195 8 -12233477.948 8
  24259662.583    15743474.101 6  12267618.682 4
  21238572.435   -16110851.920 8 -12553919.701 7
  23164794.146    -9561480.323 7  -7450504.552 4
  24156040.223     8653353.200 6   6742851.749 3
 91 12  4 16 11 30.0020000  0  5 17 20  3 23 16
  21559846.526   -15713422.281 9 -12244232.852 8
  24281903.583    15860319.262 6  12358666.642 2
  21236586.617   -16121307.620 8 -12562067.033 7
  23150382.831    -9637216.255 7  -7509519.589 3
  24176253.125     8759562.978 6   6825612.422 4
 91 12  4 16 12  0.0020000  0  5 17 20  3 23 16
  21557258.729   -15727004.145 9 -12254816.155 8
  24304149.994    15977230.919 6  12449766.416 2
  21234661.352   -16131423.616 8 -12569949.659 7
  23136021.861    -9712696.795 7  -7568335.617 5
  24196495.116     8865954.507 6   6908514.730 4
 91 12  4 16 12 30.0020000  0  5 17 20  3 23 16
  21554721.869   -15740342.676 9 -12265209.848 9
  24326415.581    16094236.346 6  12540939.701 1
  21232808.628   -16141168.974 8 -12577543.466 7
  23121711.269    -9787905.245 7  -7626939.638 5
  24216787.764     8972560.121 6   6991583.845 3
 91 12  4 16 13  0.0020000  0  5 17 20  3 23 16
  21552228.198   -15753458.713 9 -12275430.174 9
  24348690.453    16211300.015 6  12632158.368 1
  21231018.864   -16150559.446 8 -12584860.738 6
  23107451.352    -9862839.593 7  -7685330.066 5
  24237104.111     9079350.425 6   7074796.840 2
 91 12  4 16 13 30.0020000  0  5 17 20  3 23 16
  21549772.603   -15766344.896 9 -12285471.395 8
  24370980.628    16328415.714 6  12723417.576 2
  21229300.768   -16159588.969 8 -12591896.738 6
  23093246.875    -9937479.937 7  -7743491.402 4
  24257460.610     9186315.051 6   7158145.722 2
 91 12  4 16 14  0.0020000  0  5 17 20  3 23 16
  21547358.976   -15779039.518 8 -12295363.347 8
  24393262.392    16445551.320 5  12814691.823 2
  21227646.801   -16168293.845 8 -12598679.783 7
  23079094.574   -10011851.030 7  -7801442.918 4
  24277840.806     9293404.154 6   7241592.001 2
 91 12  4 16 14 30.0020000  0  5 17 20  3 23 16
  21544985.520   -15791519.030 8 -12305087.678 8
  24415565.463    16562735.157 5  12906004.174 3
  21226056.109   -16176644.725 8 -12605186.993 7
  23064998.637   -10085906.327 7  -7859148.367 5
  24298244.369     9400637.361 6   7325150.551 2
 91 12  4 16 15  0.0020000  0  5 17 20  3 23 16
  21542654.328   -15803753.453 8 -12314621.025 8
  24437879.301    16679988.207 5  12997370.378 1
  21224538.551   -16184617.437 8 -12611399.521 7
  23050974.647   -10159624.711 7  -7916591.290 6
  24318685.728     9508043.087 6   7408843.159 2
 91 12  4 16 15 30.0020000  0  5 17 20  3 23 16
  21540364.824   -15815782.314 9 -12323994.207 8
  24460194.360    16797280.859 5  13088767.408 2
  21223085.157   -16192248.807 8 -12617346.062 7
  23037000.111   -10233058.492 7  -7973812.430 4
  24339148.063     9615587.201 6   7492643.553 4
 91 12  4 16 16  0.0020000  0  5 17 20  3 23 16
  21538123.274   -15827564.035 9 -12333174.814 8
  24482534.897    16914656.322 5  13180229.056 3
  21221707.916   -16199495.885 8 -12622993.155 7
  23023091.241   -10306163.407 7  -8030777.307 5
  24359652.069     9723318.403 6   7576589.741 2
 91 12  4 16 16 30.0020000  0  5 17 20  3 23 16
  21535933.289   -15839088.851 9 -12342155.227 8
  24504885.921    17032117.101 5  13271756.680 2
  21220404.420   -16206342.052 8 -12628327.844 6
  23009242.626   -10378921.327 7  -8087471.792 4
  24380188.741     9831247.426 6   7660690.053 3
 91 12  4 16 17  0.0020000  0  5 17 20  3 23 16
  21533780.176   -15850383.122 8 -12350955.994 9
  24527248.933    17149631.100 6  13363326.220 2
  21219173.778   -16212809.072 8 -12633367.094 6
  22995461.770   -10451356.703 7  -8143914.938 3
  24400754.800     9939344.869 6   7744921.606 3
 91 12  4 16 17 30.0020000  0  5 17 20  3 23 16
  21531674.127   -15861480.155 9 -12359603.059 8
  24549615.855    17267157.641 6  13454905.507 2
  21218009.081   -16218930.286 8 -12638136.899 7
  22981733.684   -10523489.913 7  -8200122.632 5
  24421350.559    10047563.256 6   7829247.800 1
 91 12  4 16 18  0.0020000  0  5 17 20  3 23 16
  21529606.468   -15872339.308 8 -12368064.763 8
  24571991.763    17384728.351 6  13546518.809 2
  21216919.035   -16224661.748 8 -12642603.004 7
  22968069.745   -10595280.382 7  -8256063.261 5
  24441971.778    10155939.677 6   7913697.147 2
 91 12  4 16 18 30.0020000  0  5 17 20  3 23 16
  21527574.774   -15882996.410 9 -12376369.033 8
  24594361.982    17502306.958 6  13638138.279 2
  21215895.545   -16230035.301 8 -12646790.222 7
  22954465.450   -10666777.891 7  -8311775.611 3
  24462624.181    10264433.587 6   7998237.706 4
 91 12  4 16 19  0.0020000  0  5 17 20  3 23 16
  21525582.343   -15893476.676 9 -12384535.503 8
  24616735.186    17619877.609 6  13729751.553 2
  21214936.202   -16235075.072 8 -12650717.352 7
  22940907.032   -10738022.729 7  -8367291.052 5
  24483288.868    10373021.045 5   8082851.105 3
 91 12  4 16 19 30.0020000  0  5 17 20  3 23 16
  21523637.290   -15903711.767 9 -12392510.921 8
  24639122.489    17737515.684 6  13821417.782 2
  21214056.310   -16239703.525 8 -12654323.969 7
  22927411.889   -10808944.135 7  -8422554.458 4
  24503979.051    10481774.854 5   8167594.575 3
 91 12  4 16 20  0.0020000  0  5 17 20  3 23 16
  21521730.609   -15913711.955 9 -12400303.302 8
  24661517.889    17855199.414 5  13913119.572 2
  21213254.368   -16243934.715 8 -12657621.045 7
  22913971.295   -10879567.795 7  -8477585.868 3
  24524704.308    10590677.842 5   8252453.838 2
 91 12  4 16 20 30.0020000  0  5 17 20  3 23 16
  21519879.403   -15923443.180 9 -12407886.104 8
  24683925.870    17972947.498 5  14004871.562 2
  21212524.966   -16247744.891 8 -12660590.053 6
  22900595.756   -10949864.581 7  -8532362.556 4
  24545462.528    10699738.890 6   8337436.715 2
 91 12  4 16 21  0.0020000  0  5 17 20  3 23 16
  21518065.348   -15932970.280 9 -12415309.852 9
  24706332.665    18090683.642 5  14096614.222 4
  21211869.030   -16251197.411 8 -12663280.361 6
  22887272.968   -11019888.512 7  -8586926.628 5
  24566229.753    10808894.058 6   8422492.912 2
 91 12  4 16 21 30.0020000  0  5 17 20  3 23 16
  21516296.873   -15942278.287 8 -12422562.875 8
  24728731.660    18208399.241 5  14188340.797 2
  21211282.929   -16254282.450 8 -12665684.319 6
  22874002.653   -11089620.409 7  -8641263.139 5
  24587020.065    10918151.607 6   8507628.912 2
 91 12  4 16 22  0.0020000  0  5 17 20  3 23 16
  21514567.975   -15951359.865 8 -12429639.457 8
  24751123.448    18326085.884 5  14280044.848 4
  21210766.699   -16257000.133 8 -12667802.032 6
  22860786.312   -11159053.659 7  -8695366.934 5
  24607829.851    11027511.032 6   8592843.854 4
 91 12  4 16 22 30.0020000  0  5 17 20  3 23 16
  21512883.139   -15960216.810 8 -12436541.000 9
  24773517.347    18443765.050 5  14371743.113 3
  21210322.103   -16259329.874 8 -12669617.463 7
  22847636.509   -11228162.679 7  -8749218.077 4
  24628666.632    11136997.515 6   8678157.777 4
 91 12  4 16 23  0.0020000  0  5 17 20  3 23 16
  21511236.973   -15968867.109 8 -12443281.525 9
  24795911.543    18561432.308 5  14463431.991 2
  21209952.751   -16261273.144 8 -12671131.753 7
  22834547.868   -11296951.052 7  -8802819.350 5
  24649529.188    11246619.818 6   8763577.527 3
 91 12  4 16 23 30.0020000  0  5 17 20  3 23 16
  21509638.481   -15977269.321 9 -12449828.744 8
  24818300.940    18679124.306 6  14555140.258 3
  21209663.462   -16262786.960 8 -12672311.406 7
  22821526.690   -11365373.162 7  -8856135.239 5
  24670421.426    11356411.625 6   8849129.390 2
 91 12  4 16 24  0.0020000  0  5 17 20  3 23 16
  21508068.170   -15985533.868 8 -12456268.679 8
  24840695.451    18796745.068 6  14646792.999 2
  21209440.116   -16263970.784 8 -12673233.912 7
  22808557.967   -11433524.809 7  -8909240.376 5
  24691322.948    11466273.775 6   8934735.995 3
 91 12  4 16 24 30.0020000  0  5 17 20  3 23 16
  21506529.637   -15993606.465 8 -12462559.040 9
  24863067.450    18914350.764 6  14738433.892 2
  21209286.921   -16264765.967 8 -12673853.586 7
  22795652.502   -11501353.142 7  -8962093.576 5
  24712256.561    11576269.369 6   9020447.082 1
 91 12  4 16 25  0.0020000  0  5 17 20  3 23 16
  21505034.276   -16001471.924 8 -12468687.997 8
  24885447.564    19031936.280 6  14830059.170 2
  21209210.768   -16265169.287 8 -12674167.913 7
  22782806.699   -11568842.109 7  -9014682.338 5
  24733218.041    11686392.909 6   9106257.398 2
 91 12  4 16 25 30.0020000  0  5 17 20  3 23 16
  21503578.177   -16009120.267 8 -12474647.771 9
  24907817.783    19149507.910 6  14921673.640 1
  21209208.971   -16265174.674 8 -12674172.179 7
  22770035.826   -11635976.953 7  -9066995.154 6
  24754194.233    11796646.039 6   9192168.679 3
 91 12  4 16 26  0.0020000  0  5 17 20  3 23 16
  21502157.764   -16016573.580 9 -12480455.572 9
  24930184.390    19267051.040 6  15013265.708 2
  21209281.215   -16264801.516 8 -12673881.450 7
  22757319.835   -11702782.915 7  -9119051.712 6
  24775197.088    11907002.068 6   9278160.212 3
 91 12  4 16 26 30.0020000  0  5 17 20  3 23 16
  21500781.413   -16023809.456 9 -12486093.940 9
  24952548.607    19384584.915 5  15104850.794 2
  21209429.315   -16264028.565 8 -12673279.201 7
  22744672.493   -11769237.530 7  -9170834.492 6
  24796213.135    12017452.919 6   9364225.603 2
 91 12  4 16 27  0.0020000  0  5 17 20  3 23 16
  21499454.830   -16030788.573 8 -12491532.242 9
  24974919.716    19502154.845 5  15196463.567 1
  21209658.960   -16262813.438 8 -12672332.400 7
  22732104.585   -11835292.910 7  -9222306.172 5
  24817254.974    12128019.097 5   9450381.262 1
 91 12  4 16 27 30.0020000  0  5 17 20  3 23 16
  21498167.528   -16037546.042 9 -12496797.833 9
  24997292.326    19619722.724 5  15288074.785 1
  21209969.835   -16261182.411 8 -12671061.517 7
  22719599.043   -11901003.680 7  -9273509.334 5
  24838308.191    12238659.372 5   9536594.538 1
 91 12  4 16 28  0.0020000  0  5 17 20  3 23 16
  21496920.099   -16044108.748 8 -12501911.651 8
  25019658.357    19737252.692 5  15379656.817 1
  21210355.677   -16259160.377 8 -12669485.955 7
  22707149.866   -11966410.082 7  -9324475.322 6
  24859370.115    12349334.465 6   9622834.776 2
 91 12  4 16 28 30.0020000  0  5 17 20  3 23 16
  21495700.835   -16050500.796 9 -12506892.496 8
  25042028.559    19854698.403 5  15471172.955 2
  21210807.760   -16256778.889 8 -12667630.280 5
  22694756.442   -12031544.170 7  -9375229.130 5
  24880431.743    12460020.759 5   9709083.648 2
 91 12  4 16 29  0.0020000  0  5 17 20  3 23 16
  21494533.450   -16056639.388 9 -12511675.847 9
  25064378.397    19972122.552 4  15562672.453 3
  21211345.296   -16253954.063 8 -12665429.143 6
  22682428.684   -12096337.878 7  -9425717.704 6
  24901523.036    12570824.679 5   9795424.135 2
 91 12  4 16 29 30.0020000  0  5 17 20  3 23 16
  21493415.223   -16062518.214 9 -12516256.787 9
  25086675.447    20089512.098 4  15654144.810 3
  21211967.658   -16250682.263 8 -12662879.743 7
  22670164.479   -12160790.914 7  -9475940.811 5
  24922629.615    12681755.942 5   9881863.857 1
 91 12  4 16 30  0.0020000  0  5 17 20  3 23 16
  21492329.662   -16068226.515 9 -12520704.862 9
  25108998.307    20206774.306 5  15745518.002 2
  21212653.888   -16247063.345 8 -12660059.870 7
  22657945.522   -12224986.719 7  -9525963.478 5
  24943745.809    12792714.194 5   9968324.651 1
 91 12  4 16 30 30.0020000  0  5 17 20  3 23 16
  21491289.681   -16073695.482 9 -12524966.425 9
  25131318.444    20323981.562 6  15836848.388 3
  21213424.647   -16243026.088 8 -12656914.006 7
  22645795.843   -12288844.160 7  -9575722.500 5
  24964880.274    12903768.603 5  10054860.579 2
 91 12  4 16 31  0.0020000  0  5 17 20  3 23 16
  21490288.981   -16078944.452 9 -12529056.567 9
  25153610.120    20441144.900 6  15928144.496 2
  21214273.059   -16238572.168 8 -12653443.476 7
  22633705.808   -12352375.648 7  -9625227.531 6
  24986026.134    13014896.306 5  10141453.358 2
 91 12  4 16 31 30.0020000  0  5 17 20  3 23 16
  21489329.045   -16083995.567 9 -12532992.526 8
  25175900.889    20558273.558 6  16019413.689 3
  21215196.716   -16233714.978 8 -12649658.717 7
  22621675.140   -12415592.736 7  -9674487.579 6
  25007174.402    13126064.282 5  10228077.536 2
 91 12  4 16 32  0.0020000  0  5 17 20  3 23 16
  21488400.885   -16088872.197 9 -12536792.533 9
  25198183.857    20675369.128 6  16110656.982 3
  21216198.324   -16228465.469 8 -12645568.241 6
  22609703.523   -12478508.875 7  -9723513.121 5
  25028340.347    13237256.548 6  10314721.101 2
 91 12  4 16 32 30.0020000  0  5 17 20  3 23 16
  21487504.816   -16093594.028 9 -12540471.917 8
  25220460.543    20792432.501 6  16201875.306 2
  21217269.191   -16222818.024 8 -12641167.666 6
  22597785.879   -12541123.585 7  -9772303.787 5
  25049504.791    13348490.198 6  10401396.822 1
 91 12  4 16 33  0.0020000  0  5 17 20  3 23 16
  21486637.506   -16098144.322 9 -12544017.632 9
  25242728.522    20909469.287 5  16293072.775 4
  21218423.698   -16216746.443 8 -12636436.611 6
  22585937.181   -12603408.817 7  -9820837.714 5
  25070686.633    13459796.079 6  10488128.896 3
 91 12  4 16 33 30.0020000  0  5 17 20  3 23 16
  21485798.098   -16102554.470 9 -12547454.139 8
  25264985.419    21026413.404 5  16384198.023 2
  21219654.933   -16210284.323 8 -12631401.254 6
  22574144.551   -12665371.237 7  -9869120.104 5
  25091880.446    13571146.884 6  10574895.984 2
 91 12  4 16 34  0.0020000  0  5 17 20  3 23 16
  21484990.449   -16106788.516 9 -12550753.423 9
  25287216.822    21143266.177 5  16475252.205 2
  21220967.730   -16203397.474 8 -12626034.935 7
  22562424.758   -12726965.885 7  -9917115.911 5
  25113084.171    13682583.706 6  10661730.029 2
 91 12  4 16 34 30.0020000  0  5 17 20  3 23 16
  21484216.689   -16110868.771 9 -12553932.882 9
  25309429.955    21259967.132 5  16566187.964 2
  21222353.976   -16196117.476 8 -12620362.266 7
  22550767.332   -12788219.215 7  -9964845.772 6
  25134293.287    13794070.814 5  10748603.288 3
 91 12  4 16 35  0.0020000  0  5 17 20  3 23 16
  21483482.192   -16114729.207 9 -12556941.044 9
  25331610.089    21376545.014 5  16657027.811 2
  21223819.951   -16188397.042 8 -12614346.402 7
  22539186.338   -12849078.630 7 -10012268.680 6
  25155522.193    13905631.287 5  10835533.730 4
 91 12  4 16 35 30.0020000  0  5 17 20  3 23 16
  21482783.974   -16118384.898 9 -12559789.660 9
  25353777.641    21492990.438 5  16747764.248 1
  21225364.487   -16180268.084 8 -12608012.206 7
  22527671.323   -12909583.715 7 -10059415.467 6
  25176765.791    14017228.722 6  10922492.488 2
 91 12  4 16 36  0.0020000  0  5 17 20  3 23 16
  21482137.025   -16121798.026 9 -12562449.269 9
  25375928.407    21609363.965 5  16838444.728 2
  21226998.351   -16171696.113 8 -12601332.798 6
  22516230.646   -12969720.129 7 -10106274.986 5
  25198012.670    14128896.761 6  11009506.674 1
 91 12  4 16 36 30.0020000  0  5 17 20  3 23 16
  21481531.153   -16124970.405 9 -12564921.278 9
  25398059.087    21725677.567 5  16929078.634 1
  21228715.260   -16162683.830 8 -12594310.258 6
  22504853.819   -13029499.099 7 -10152855.962 6
  25219271.258    14240624.955 6  11096567.817 3
 91 12  4 16 37  0.0020000  0  5 17 20  3 23 16
  21480973.532   -16127905.624 9 -12567208.491 9
  25420178.669    21841962.623 4  17019690.501
  21230517.327   -16153220.300 8 -12586936.121 7
  22493547.143   -13088909.801 7 -10199149.981 6
  25240549.635    14352426.422 5  11183686.058 2
 91 12  4 16 37 30.0020000  0  5 17 20  3 23 16
  21480460.582   -16130610.267 9 -12569316.041 8
  25442306.365    21958239.373 5  17110295.694 1
  21232402.422   -16143297.170 8 -12579203.867 7
  22482312.710   -13147949.791 7 -10245155.148 6
  25261841.187    14464320.589 5  11270876.428 2
 91 12  4 16 38  0.0020000  0  5 17 20  3 23 16
  21479981.522   -16133126.119 9 -12571276.473 9
  25464429.839    22074456.486 5  17200854.368 2
  21234375.343   -16132934.258 8 -12571128.918 7
  22471146.351   -13206642.183 7 -10290889.430 6
  25283144.448    14576274.403 5  11358113.380 2
 91 12  4 16 38 30.0020000  0  5 17 20  3 23 16
  21479541.724   -16135432.356 9 -12573073.572 9
  25486527.538    22190608.345 5  17291362.233 2
  21236435.516   -16122110.017 8 -12562694.495 7
  22460046.232   -13264970.577 7 -10336340.081 6
  25304470.184    14688289.826 5  11445398.361 2
 91 12  4 16 39  0.0020000  0  5 17 20  3 23 16
  21479128.607   -16137588.252 9 -12574753.526 9
  25508608.154    22306611.721 6  17381754.435 1
  21238570.951   -16110890.047 8 -12553951.717 5
  22449002.478   -13322998.770 7 -10381556.806 6
  25325777.022    14800296.798 5  11532676.623 2
 91 12  4 16 39 30.0020000  0  5 17 20  3 23 16
  21478773.949   -16139481.396 9 -12576228.727 9
  25530664.182    22422539.785 6  17472087.934
  21240798.699   -16099179.012 8 -12544826.285 6
  22438032.765   -13380644.800 7 -10426475.747 6
  25347100.961    14912378.218 4  11620013.004 2
 91 12  4 16 40  0.0020000  0  5 17 20  3 23 16
  21478441.784   -16141216.962 9 -12577581.151 9
  25552679.446    22538271.574 5  17562268.493 2
  21243099.911   -16087087.482 8 -12535404.322 6
  22427115.228   -13438024.060 7 -10471186.825 6
  25368423.400    15024412.139 4  11707311.933 2
 91 12  4 16 40 30.0020000  0  5 17 20  3 23 16
  21478146.788   -16142747.316 9 -12578773.667 9
  25574680.925    22653860.133 5  17652337.419 3
  21245482.355   -16074575.204 8 -12525654.523 6
  22416257.947   -13495081.815 7 -10515647.362 5
  25389746.152    15136449.275 4  11794613.442 2
 91 12  4 16 41  0.0020000  0  6 17 20  3 23 16 21
  21477899.763   -16144052.238 9 -12579790.523 9
  25596658.707    22769352.530 5  17742331.385 3
  21247951.752   -16061602.262 8 -12515545.781 7
  22405466.314   -13551774.238 7 -10559823.236 6
  25411069.481    15248537.240 4  11881954.588
  25813597.510    -1317533.113 4  -1026649.160 3
 91 12  4 16 41 30.0020000  0  6 17 20  3 23 16 21
  21477688.406   -16145170.133 9 -12580661.632 9
  25618616.106    22884739.775 5  17832243.416 2
  21250503.585   -16048186.163 8 -12505091.711 7
  22394746.348   -13608119.678 7 -10603728.730 6
  25432406.316    15360655.247 5  11969319.153 1
  25795997.011    -1410016.118 4  -1098713.855 2
 91 12  4 16 42  0.0020000  0  5 17 20  3 23 16
  21477506.138   -16146118.965 9 -12581401.000 9
  25640563.001    23000032.891 5  17922082.097 2
  21253139.964   -16034323.553 8 -12494289.725 7
  22384092.013   -13664104.315 7 -10647353.094 6
  25453751.230    15472815.018 5  12056716.166 2
 91 12  4 16 42 30.0020000  0  4 17  3 23 16
  21477351.146   -16146946.463 9 -12582045.833 9
  21255857.573   -16020056.484 8 -12483172.550 5
  22373500.656   -13719768.635 7 -10690727.866 6
  25475097.663    15584967.876 6  12144107.798 2
 91 12  4 16 43  0.0020000  0  4 17  3 23 16
  21477225.521   -16147597.480 9 -12582553.152 9
  21258657.932   -16005333.577 8 -12471700.176 6
  22362976.133   -13775071.576 7 -10733821.039 5
  25496444.985    15697163.336 6  12231532.595 2
 91 12  4 16 43 30.0020000  0  4 17  3 23 16
  21477142.179   -16148040.863 9 -12582898.675 9
  21261545.838   -15990149.348 8 -12459868.338 7
  22352521.463   -13830003.521 8 -10776625.140 5
  25517804.593    15809401.241 6  12318990.857 1
 91 12  4 16 44  0.0020000  0  4 17  3 23 16
  21477096.617   -16148287.377 9 -12583090.789 9
  21264519.774   -15974526.376 8 -12447694.637 7
  22342138.165   -13884579.034 8 -10819151.506 6
  25539164.200    15921643.014 6  12406452.183 4
 91 12  4 16 44 30.0020000  0  4 17  3 23 21
  21477091.225   -16148311.460 9 -12583109.630 8
  21267580.665   -15958451.079 8 -12435168.479 7
  22331821.107   -13938781.629 8 -10861387.288 5
  25690785.146      -15315.11814    -11933.547 1
 91 12  4 16 45  0.0030000  0  4 17  3 23 21
  21477127.786   -16148109.381 9 -12582952.166 9
  21270727.274   -15941917.018 8 -12422284.848 7
  22321578.095   -13992610.878 8 -10903332.163 5
  25673312.927     -107138.946 4    -83484.593 1
 91 12  4 16 45 30.0030000  0  4 17  3 23 21
  21477205.439   -16147706.340 9 -12582638.142 9
  21273955.442   -15924944.260 8 -12409059.363 5
  22311400.447   -14046089.067 8 -10945003.489 6
  25655846.428     -198895.080 5   -154982.892 2
 91 12  4 16 46  0.0030000  0  4 17  3 23 21
  21477314.259   -16147130.570 9 -12582189.527 9
  21277269.360   -15907540.486 8 -12395498.023 6
  22301288.133   -14099233.067 7 -10986414.406 5
  25638392.214     -290603.035 5   -226443.611 2
 91 12  4 16 46 30.0030000  0  4 17  3 23 21
  21477464.453   -16146343.062 9 -12581575.921 9
  21280670.792   -15889664.566 8 -12381568.780 5
  22291245.097   -14152015.595 7 -11027543.646 6
  25620968.276     -382200.104 5   -297817.874 1
 91 12  4 16 47  0.0030000  0  4 17  3 23 21
  21477656.336   -16145341.769 9 -12580795.736 9
  21284159.788   -15871310.095 8 -12367266.657 7
  22281273.990   -14204437.288 7 -11068391.730 6
  25603552.732     -473676.192 5   -369097.877 1
 91 12  4 16 47 30.0030000  0  4 17  3 23 21
  21477881.164   -16144145.448 9 -12579863.583 9
  21287741.410   -15852492.393 8 -12352603.578 7
  22271362.859   -14256503.499 7 -11108962.810 6
  25586164.760     -565056.678 5   -440303.425 2
 91 12  4 16 48  0.0030000  0  4 17  3 23 21
  21478148.292   -16142758.484 9 -12578782.870 9
  21291408.469   -15833211.100 8 -12337579.262 7
  22261525.160   -14308200.408 7 -11149246.130 6
  25568801.688     -656332.730 5   -511427.596 2
 91 12  4 16 48 30.0030000  0  4 17  3 23 21
  21478446.289   -16141182.210 9 -12577554.659 9
  21295165.169   -15813469.274 8 -12322196.086 7
  22251757.034   -14359531.450 7 -11189244.337 5
  25551448.808     -747514.931 5   -582478.623 3
 91 12  4 16 49  0.0030000  0  4 17  3 23 21
  21478783.847   -16139428.377 9 -12576188.088 9
  21299012.105   -15793263.078 8 -12306451.074 6
  22242060.244   -14410492.055 7 -11228953.900 6
  25534108.212     -838621.968 5   -653471.062 2
 91 12  4 16 49 30.0030000  0  4 17  3 23 21
  21479146.602   -16137498.785 9 -12574684.560 9
  21302946.570   -15772594.265 8 -12290345.566 6
  22232431.808   -14461080.956 7 -11268373.833 6
  25516800.580     -929658.977 4   -724408.852 3
 91 12  4 16 50  0.0030000  0  4 17  3 23 21
  21479552.808   -16135379.232 9 -12573033.012 9
  21306966.786   -15751461.924 8 -12273878.868 6
  22222874.131   -14511304.110 7 -11307508.769 6
  25499487.574    -1020620.868 5   -795288.120 2
 91 12  4 16 50 30.0030000  0  4 17  3 23 21
  21479991.105   -16133076.025 9 -12571238.365 9
  21311075.754   -15729867.947 8 -12257052.446 6
  22213385.087   -14561174.938 7 -11346369.149 6
  25482182.646    -1111511.424 4   -866111.748 2
 91 12  4 16 51  0.0030000  0  4 17  3 23 21
  21480465.088   -16130583.248 9 -12569295.998 9
  21315275.533   -15707813.355 8 -12239867.103 6
  22203962.318   -14610691.229 8 -11384953.275 6
  25464898.712    -1202314.081 4   -936866.880 3
 91 12  4 16 51 30.0030000  0  4 17  3 23 21
  21480979.520   -16127882.524 9 -12567191.588 8
  21319558.078   -15685302.743 8 -12222326.440 7
  22194608.792   -14659844.299 8 -11423254.371 7
  25447638.475    -1293009.498 4  -1007538.454 2
 91 12  4 16 52  0.0030000  0  4 17  3 23 21
  21481529.342   -16124981.271 9 -12564930.916 9
  21323926.950   -15662334.001 8 -12204428.786 6
  22185322.118   -14708638.536 8 -11461275.859 6
  25430407.292    -1383587.515 4  -1078118.946 4
 91 12  4 16 52 30.0030000  0  4 17  3 23 21
  21482117.833   -16121891.084 9 -12562523.026 9
  21328389.372   -15638901.446 8 -12186169.716 7
  22176108.595   -14757071.399 8 -11499015.752 6
  25413189.912    -1474042.349 3  -1148603.437 2
 91 12  4 16 53  0.0030000  0  4 17  3 23 21
  21482746.512   -16118606.309 9 -12559963.519 9
  21332935.119   -15615000.206 8 -12167545.435 7
  22166962.238   -14805135.702 8 -11536468.466 6
  25396012.110    -1564370.592 3  -1218989.334 3
 91 12  4 16 53 30.0030000  0  4 17  3 23 21
  21483403.041   -16115149.115 9 -12557269.637 9
  21337574.102   -15590633.058 8 -12148558.107 6
  22157884.809   -14852836.233 8 -11573637.726 6
  25378824.099    -1654574.763 3  -1289278.086 2
 91 12  4 16 54  0.0030000  0  4 17  3 23 21
  21484089.271   -16111536.796 9 -12554454.882 9
  21342298.539   -15565799.268 8 -12129207.152 5
  22148871.562   -14900192.615 8 -11610538.806 6
  25361692.767    -1744665.798 4  -1359479.039 2
 91 12  4 16 54 30.0030000  0  4 17  3 23 21
  21484806.981   -16107763.002 9 -12551514.303 9
  21347115.008   -15540494.425 8 -12109489.127 6
  22139928.448   -14947187.049 8 -11647157.846 6
  25344561.417    -1834641.843 4  -1429590.120 2
 91 12  4 16 55  0.0030000  0  4 17  3 23 21
  21485560.656   -16103816.015 9 -12548438.766 9
  21352018.712   -15514719.975 8 -12089405.199 7
  22131056.390   -14993815.122 8 -11683491.415 6
  25327468.161    -1924507.025 5  -1499614.690 2
 91 12  4 16 55 30.0030000  0  4 17  3 23 21
  21486345.811   -16099686.223 9 -12545220.780 8
  21357012.353   -15488474.772 8 -12068954.442 6
  22122251.482   -15040078.844 8 -11719541.076 6
  25310387.486    -2014259.627 5  -1569551.690 2
 91 12  4 16 56  0.0030000  0  4 17  3 23 21
  21487169.950   -16095354.575 9 -12541845.515 9
  21362097.434   -15461755.471 8 -12048134.246 7
  22113522.429   -15085970.965 8 -11755301.169 6
  25293334.994    -2103909.509 5  -1639408.694 2
 91 12  4 16 56 30.0030000  0  4 17  3 23 21
  21488036.039   -16090812.365 9 -12538306.162 9
  21367271.546   -15434563.245 8 -12026945.546 7
  22104860.525   -15131475.235 8 -11790759.035 7
  25276285.486    -2193460.081 5  -1709188.594 1
 91 12  4 16 57  0.0030000  0  4 17  3 23 21
  21488938.111   -16086058.097 9 -12534601.572 9
  21372535.910   -15406897.948 8 -12005388.218 5
  22096272.662   -15176605.597 8 -11825925.544 6
  25259268.365    -2282916.094 5  -1778894.595 2
 91 12  4 16 57 30.0030000  0  4 17  3 23 21
  21489880.963   -16081106.229 9 -12530743.007 9
  21377889.898   -15378758.482 8 -11983461.389 6
  22087755.856   -15221361.276 8 -11860800.098 6
  25242264.750    -2372269.217 5  -1848520.365 2
 91 12  4 16 58  0.0030000  0  4 17  3 23 21
  21490859.188   -16075964.479 9 -12526736.489 9
  21383338.031   -15350148.008 8 -11961167.559 6
  22079311.015   -15265742.646 8 -11895382.964 6
  25225280.000    -2461528.296 5  -1918072.874 2
 91 12  4 16 58 30.0030000  0  4 17  3 23 21
  21491871.894   -16070639.018 9 -12522586.815 9
  21388867.394   -15321062.838 8 -11938503.846 6
  22070933.916   -15309765.173 8 -11929686.218 6
  25208320.447    -2550682.345 5  -1987543.567 1
 91 12  4 16 59  0.0030000  0  4 17  3 23 21
  21492916.062   -16065146.102 9 -12518306.661 9
  21394496.904   -15291505.441 8 -11915472.171 6
  22062620.371   -15353451.551 8 -11963727.524 6
  25191365.083    -2639719.535 5  -2056923.248 2
 91 12  4 16 59 30.0030000  0  4 17  3 23 21
  21493992.619   -16059479.206 9 -12513890.940 9
  21400211.536   -15261469.532 8 -11892067.619 6
  22054372.770   -15396800.086 8 -11997505.576 7
  25174456.485    -2728623.977 5  -2126199.464 1
 91 12  4 17  0  0.0030000  0  4 17  3 23 21
  21495106.047   -16053638.851 9 -12509340.046 9
  21406014.624   -15230958.182 8 -11868292.598 6
  22046186.349   -15439817.931 8 -12031025.955 7
  25157553.593    -2817400.545 5  -2195376.111 3
 91 12  4 17  0 30.0030000  0  4 17  3 23 21
  21496249.159   -16047635.411 9 -12504662.084 9
  21411916.636   -15199969.956 8 -11844145.980 6
  22038062.575   -15482499.173 8 -12064284.035 6
  25140692.059    -2906038.968 5  -2264445.130 3
 91 12  4 17  1  0.0030000  0  4 17  3 23 21
  21497423.750   -16041463.303 9 -12499852.694 9
  21417901.398   -15168504.572 8 -11819627.537 6
  22030010.433   -15524813.110 8 -12097255.904 7
  25123841.919    -2994544.235 5  -2333410.362 2
 91 12  4 17  1 30.0030000  0  4 17  3 23 21
  21498632.509   -16035109.012 9 -12494901.345 9
  21423982.083   -15136559.289 8 -11794735.169 6
  22022034.166   -15566733.206 8 -12129920.878 7
  25107025.074    -3082928.884 5  -2402281.661 3
 91 12  4 17  2  0.0030000  0  4 17  3 23 21
  21499878.141   -16028578.113 9 -12489812.373 9
  21430153.021   -15104133.181 8 -11769468.132 6
  22014134.330   -15608247.136 8 -12162269.360 7
  25090231.299    -3171206.428 5  -2471069.462 1
 91 12  4 17  2 30.0030000  0  4 17  3 23 21
  21501156.160   -16021860.357 9 -12484577.809 9
  21436416.585   -15071222.996 8 -11743823.899 6
  22006309.443   -15649355.466 8 -12194301.803 7
  25073455.811    -3259375.203 5  -2539772.527 1
 91 12  4 17  3  0.0030000  0  4 17  3 23 21
  21502471.941   -16014952.266 9 -12479194.939 9
  21442771.274   -15037831.845 8 -11717804.895 6
  21998562.506   -15690075.136 8 -12226031.393 7
  25056692.905    -3347438.476 5  -2608393.363 2
 91 12  4 17  3 30.0030000  0  4 17  3 23 21
  21503822.518   -16007861.779 9 -12473669.943 9
  21449212.620   -15003958.133 8 -11691409.858 6
  21990883.328   -15730432.334 8 -12257478.529 7
  25039959.403    -3435387.355 5  -2676925.015 3
 91 12  4 17  4  0.0030000  0  4 17  3 23 21
  21505199.463   -16000601.119 9 -12468012.340 9
  21455752.892   -14969604.035 8 -11664640.507 6
  21983273.097   -15770445.881 8 -12288657.900 6
  25023250.156    -3523220.977 5  -2745366.761 1
 91 12  4 17  4 30.0030000  0  4 17  3 23 21
  21506615.984   -15993172.379 8 -12462223.774 9
  21462381.602   -14934772.357 8 -11637498.973 6
  21975715.931   -15810127.393 8 -12319578.539 6
  25006560.419    -3610923.092 5  -2813706.000 3
 91 12  4 17  5  0.0030000  0  4 17  3 23 21
  21508056.482   -15985579.833 8 -12456307.564 9
  21469100.843   -14899462.514 8 -11609984.860 5
  21968231.305   -15849467.562 8 -12350233.212 7
  24989890.767    -3698493.734 5  -2881942.722 2
 91 12  4 17  5 30.0030000  0  4 17  3 23 21
  21509535.964   -15977815.880 8 -12450257.781 8
  21475910.040   -14863676.206 8 -11582099.492 6
  21960811.752   -15888457.436 8 -12380614.924 7
  24973250.187    -3785939.747 5  -2950082.689 3
 91 12  4 17  6  0.0030000  0  4 17  3 23 21
  21511051.411   -15969868.339 8 -12444064.939 9
  21482813.049   -14827412.234 8 -11553841.912 6
  21953461.127   -15927082.386 8 -12410712.273 7
  24956631.786    -3873259.914 5  -3018124.134 1
 91 12  4 17  6 30.0030000  0  4 17  3 23 21
  21512599.245   -15961726.039 8 -12437720.346 9
  21489803.921   -14790669.542 8 -11525211.312 6
  21946182.781   -15965343.929 8 -12440526.459 7
  24940047.256    -3960445.631 5  -3086060.822 1
 91 12  4 17  7  0.0030000  0  4 17  3 23 21
  21514183.637   -15953396.687 8 -12431229.990 9
  21496885.917   -14753451.197 8 -11496210.065 6
  21938967.063   -16003241.667 8 -12470057.165 7
  24923481.032    -4047508.216 6  -3153901.943 2
 91 12  4 17  7 30.0030000  0  4 17  3 23 21
  21515802.826   -15944892.416 8 -12424603.346 9
  21504059.353   -14715755.645 8 -11466836.966 6
  21931823.014   -16040783.297 8 -12499310.375 7
  24906930.984    -4134440.831 6  -3221641.848 2
 91 12  4 17  8  0.0030000  0  4 17  3 23 21
  21517451.383   -15936228.275 9 -12417852.114 9
  21511324.524   -14677581.130 8 -11437090.634 5
  21924747.614   -16077969.537 8 -12528286.657 7
  24890421.123    -4221239.911 6  -3289277.641 1
 91 12  4 17  8 30.0030000  0  4 17  3 23 21
  21519127.825   -15927419.203 9 -12410987.955 9
  21518676.336   -14638931.860 8 -11406974.375 6
  21917740.863   -16114806.786 8 -12556991.007 7
  24873923.548    -4307912.899 5  -3356815.250 3
 91 12  4 17  9  0.0030000  0  4 17  3 23 21
  21520832.432   -15918466.824 9 -12404012.126 8
  21526122.867   -14599807.183 8 -11376487.678 6
  21910796.776   -16151280.556 8 -12585412.117 7
  24857447.855    -4394459.827 5  -3424254.556 2
 91 12  4 17  9 30.0030000  0  4 17  3 23 21
  21522567.333   -15909351.671 8 -12396909.456 8
  21533658.761   -14560199.625 8 -11345624.708 6
  21903930.028   -16187378.825 8 -12613540.616 7
  24841006.329    -4480877.137 5  -3491592.879 2
 91 12  4 17 10  0.0030000  0  4 17  3 23 21
  21524331.620   -15900063.961 8 -12389672.307 9
  21541286.077   -14520113.706 8 -11314388.998 6
  21897132.226   -16223099.102 8 -12641374.585 7
  24824587.891    -4567167.574 5  -3558832.437 2
 91 12  4 17 10 30.0030000  0  4 17  3 23 21
  21526134.262   -15890603.362 9 -12382300.452 9
  21549006.629   -14479555.731 8 -11282785.448 6
  21890402.497   -16258459.239 8 -12668927.923 8
  24808194.947    -4653322.923 5  -3625966.700 2
 91 12  4 17 11  0.0030000  0  4 17  3 23 21
  21527963.307   -15880975.894 8 -12374798.569 9
  21556814.729   -14438529.345 8 -11250816.892 5
  21883741.400   -16293461.104 8 -12696202.079 7
  24791830.482    -4739343.479 5  -3692995.461 3
 91 12  4 17 11 30.0030000  0  4 17  3 23 21
  21529828.613   -15871183.191 9 -12367167.920 9
  21564712.453   -14397024.780 8 -11218475.723 5
  21877152.267   -16328103.655 8 -12723196.267 7
  24775479.488    -4825223.664 5  -3759914.868 2
 91 12  4 17 12  0.0030000  0  4 17  3 23 21
  21531722.101   -15861239.281 9 -12359419.451 9
  21572700.430   -14355044.665 8 -11185763.991 5
  21870623.076   -16362400.260 8 -12749920.870 7
  24759161.196    -4910959.010 5  -3826721.853 2
 91 12  4 17 12 30.0030000  0  4 17  3 23 21
  21533645.272   -15851141.627 9 -12351551.276 9
  21580779.532   -14312584.663 8 -11152678.428 6
  21864165.257   -16396342.178 8 -12776369.205 7
  24742881.260    -4996557.028 5  -3893421.542 2
 91 12  4 17 13  0.0030000  0  4 17  3 23 21
  21535593.013   -15840893.426 9 -12343565.678 9
  21588948.886   -14269648.309 8 -11119221.602 6
  21857776.680   -16429914.038 8 -12802529.082 7
  24726606.733    -5082036.781 5  -3960029.396 1
 91 12  4 17 13 30.0030000  0  4 17  3 23 21
  21537574.049   -15830481.173 9 -12335452.252 9
  21597211.756   -14226234.111 8 -11085392.428 6
  21851458.252   -16463120.348 8 -12828404.110 7
  24710366.670    -5167399.538 5  -4026545.663 2
 91 12  4 17 14  0.0030000  0  4 17  3 23 21
  21539590.753   -15819888.602 9 -12327198.309 9
  21605565.175   -14182342.035 8 -11051190.883 6
  21845207.585   -16495963.322 8 -12853996.034 7
  24694139.800    -5252647.704 5  -4092972.623 3
 91 12  4 17 14 30.0030000  0  4 17  3 23 21
  21541641.939   -15809112.439 9 -12318801.314 9
  21614008.830   -14137971.487 8 -11016616.504 5
  21839024.065   -16528449.090 8 -12879309.607 7
  24677941.723    -5337780.127 5  -4159309.411 2
 91 12  4 17 15  0.0030000  0  4 17  3 23 21
  21543724.588   -15798164.240 9 -12310270.252 8
  21622542.422   -14093126.234 8 -10981672.221 5
  21832905.286   -16560595.012 8 -12904358.368 7
  24661761.916    -5422781.271 5  -4225543.884 2
 91 12  4 17 15 30.0030000  0  4 17  3 23 21
  21545839.327   -15787044.159 9 -12301605.263 9
  21631168.955   -14047806.115 8 -10946357.904 5
  21826852.486   -16592418.969 8 -12929156.246 7
  24645617.498    -5507642.863 5  -4291669.625 3
 91 12  4 17 16  0.0030000  0  4 17  3 23 21
  21547987.641   -15775754.484 9 -12292808.128 9
  21639880.627   -14002007.720 8 -10910670.915 5
  21820859.034   -16623919.990 8 -12953702.489 7
  24629497.353    -5592354.312 6  -4357678.365 3
 91 12  4 17 16 30.0030000  0  4 17  3 23 21
  21550168.028   -15764295.129 9 -12283878.784 9
  21648689.427   -13955719.158 8 -10874601.981 5
  21814929.136   -16655080.133 8 -12977983.125 7
  24613411.393    -5676896.474 5  -4423555.194 2
 91 12  4 17 17  0.0030000  0  4 17  3 23 21
  21552388.586   -15752634.706 9 -12274792.763 9
  21657596.263   -13908920.015 8 -10838135.191 6
  21809070.592   -16685864.816 8 -13001971.192 8
  24597355.710    -5761250.903 5  -4489285.755 2
 91 12  4 17 17 30.0030000  0  4 17  3 23 21
  21554649.331   -15740757.173 9 -12265537.548 8
  21666599.022   -13861604.648 8 -10801266.166 5
  21803283.995   -16716268.581 8 -13025662.446 7
  24581337.788    -5845428.889 5  -4554878.841 2
 91 12  4 17 18  0.0030000  0  4 17  3 23 21
  21556950.840   -15728652.901 9 -12256105.665 8
  21675703.115   -13813765.113 8 -10763988.676 5
  21797575.959   -16746276.730 8 -13049045.427 7
  24565354.366    -5929422.579 5  -4620328.311 3
 91 12  4 17 18 30.0030000  0  4 17  3 23 21
  21559298.505   -15716322.653 9 -12246497.701 8
  21684905.260   -13765403.226 8 -10726304.161 6
  21791939.259   -16775882.314 8 -13072114.722 7
  24549411.690    -6013233.626 5  -4685635.446
 91 12  4 17 19  0.0030000  0  4 17  3 23 21
  21561684.264   -15703776.033 9 -12236721.139 9
  21694210.519   -13716516.701 8 -10688210.834 6
  21786381.993   -16805085.686 8 -13094870.611 7
  24533490.618    -6096864.016 5  -4750801.880 3
 91 12  4 17 19 30.0030000  0  4 17  3 23 21
  21564111.974   -15691028.384 9 -12226787.932 8
  21703611.108   -13667101.932 8 -10649705.885 5
  21780903.899   -16833876.728 8 -13117305.207 7
  24517613.904    -6180313.434 6  -4815827.227 1
 91 12  4 17 20  0.0030000  0  4 17  3 23 21
  21566575.072   -15678086.881 9 -12216703.676 8
  21713115.422   -13617155.497 8 -10610786.642 6
  21775507.628   -16862238.711 8 -13139405.467 7
  24501768.984    -6263573.792 6  -4880705.316 3
 91 12  4 17 20 30.0030000  0  4 17  3 23 21
  21569068.743   -15664969.442 9 -12206482.324 8
  21722721.976   -13566682.281 8 -10571456.922 6
  21770193.513   -16890168.248 8 -13161168.754 7
  24485958.231    -6346647.872 6  -4945438.291 2
 91 12  4 17 21  0.0030000  0  4 17  3 23 21
  21571599.600   -15651682.544 8 -12196128.922 9
  21732423.564   -13515688.526 8 -10531721.590 6
  21764956.738   -16917678.096 8 -13182605.023 7
  24470184.037    -6429537.802 6  -5010027.719 2
 91 12  4 17 21 30.0030000  0  4 17  3 23 21
  21574162.217   -15638213.980 8 -12185633.975 8
  21742227.061   -13464187.581 8 -10491591.049 6
  21759797.913   -16944796.397 8 -13203736.185 7
  24454446.140    -6512247.813 6  -5074477.005 2
 91 12  4 17 22  0.0030000  0  4 17  3 23 21
  21576759.019   -15624559.643 8 -12174994.270 9
  21752122.016   -13412188.021 8 -10451071.978 6
  21754706.829   -16971552.620 8 -13224585.200 7
  24438740.019    -6594774.720 6  -5138783.599 2
 91 12  4 17 22 30.0030000  0  4 17  3 23 21
  21579413.075   -15610610.576 8 -12164124.920 8
  21762131.792   -13359583.198 8 -10410081.254 5
  21749702.997   -16997846.620 8 -13245074.039 8
  24423097.137    -6677003.835 6  -5202858.173 2
 91 12  4 17 23  0.0030000  0  4 17  3 23 21
  21582111.507   -15596441.257 9 -12153083.922 8
  21772237.492   -13306467.248 8 -10368692.237 5
  21744767.813   -17023777.448 8 -13265279.894 7
  24407488.145    -6759038.728 6  -5266781.388 2
 91 12  4 17 23 30.0030000  0  4 17  3 23 21
  21584844.420   -15582070.102 9 -12141885.664 8
  21782441.228   -13252857.903 8 -10326918.781 5
  21739901.279   -17049353.609 8 -13285209.378 7
  24391904.943    -6840911.555 6  -5330578.330 3
 91 12  4 17 24  0.0030000  0  4 17  3 23 21
  21587616.597   -15567504.944 9 -12130536.249 9
  21792734.012   -13198755.762 8 -10284761.327 6
  21735106.395   -17074554.141 8 -13304846.160 8
  24376348.405    -6922632.846 6  -5394257.204 3
 91 12  4 17 24 30.0030000  0  4 17  3 23 21
  21590426.867   -15552746.558 9 -12119036.250 9
  21803124.814   -13144160.821 8 -10242219.877 6
  21730380.772   -17099367.690 8 -13324181.394 8
  24360830.852    -7004210.146 6  -5457823.873 2
 91 12  4 17 25  0.0030000  0  4 17  3 23 21
  21593272.195   -15537789.650 9 -12107381.562 8
  21813607.352   -13089069.579 8 -10199291.698 5
  21725732.784   -17123800.345 8 -13343219.824 8
  24345333.680    -7085647.298 6  -5521281.346 2
 91 12  4 17 25 30.0030000  0  4 17  3 23 21
  21596154.988   -15522643.955 9 -12095579.759 9
  21824187.035   -13033478.990 8 -10155974.409 5
  21721157.058   -17147850.528 8 -13361960.218 7
  24329870.989    -7166925.405 6  -5584614.928 2
 91 12  4 17 26  0.0030000  0  4 17  3 23 21
  21599071.373   -15507318.669 9 -12083638.021 8
  21834859.937   -12977387.522 8 -10112266.815 4
  21716654.465   -17171520.744 8 -13380404.532 7
  24314431.665    -7248026.035 6  -5647810.182 2
 91 12  4 17 26 30.0030000  0  4 17  3 23 21
  21602018.942   -15491820.031 8 -12071561.187 8
  21845632.986   -12920794.155 8 -10068168.154 6
  21712218.742   -17194817.935 8 -13398558.176 7
  24299037.031    -7328935.935 6  -5710856.824 2
 91 12  4 17 27  0.0030000  0  4 17  3 23 21
  21605000.975   -15476154.521 9 -12059354.331 8
  21856494.769   -12863699.489 8 -10023678.880 5
  21707855.263   -17217746.087 8 -13416424.258 7
  24283677.454    -7409647.762 6  -5773749.119 3
 91 12  4 17 27 30.0030000  0  4 17  3 23 21
  21608013.284   -15460311.975 8 -12047009.532 9
  21867457.869   -12806095.385 8  -9978792.641 5
  21703566.436   -17240291.755 8 -13433992.301 7
  24268361.363    -7490140.866 6  -5836470.970 2
 91 12  4 17 28  0.0030000  0  4 17  3 23 21
  21611066.670   -15444279.305 8 -12034516.581 8
  21878516.019   -12747978.369 8  -9933506.724 6
  21699347.758   -17262461.242 8 -13451267.205 7
  24253081.533    -7570420.507 6  -5899026.483 3
 91 12  4 17 28 30.0030000  0  4 17  3 23 21
  21614159.634   -15428031.475 8 -12021855.962 8
  21889675.189   -12689343.818 8  -9887817.533 5
  21695198.620   -17284267.633 8 -13468259.188 7
  24237848.784    -7650487.334 6  -5961416.185 2
 91 12  4 17 29  0.0030000  0  4 17  3 23 21
  21617293.362   -15411563.568 8 -12009023.859 7
  21900930.300   -12630192.616 8  -9841725.747 4
  21691117.258   -17305708.473 8 -13484966.315 7
  24222649.017    -7730346.015 6  -6023643.694 1
 91 12  4 17 29 30.0030000  0  4 17  3 23 21
  21620470.261   -15394867.189 8 -11996013.713 8
  21912283.150   -12570528.648 8  -9795234.384 5
  21687107.233   -17326786.514 8 -13501390.742 7
  24207489.698    -7809997.818 6  -6085709.998 2
 91 12  4 17 30  0.0030000  0  4 17  3 23 21
  21623689.128   -15377940.766 8 -11982824.327 8
  21923734.908   -12510351.141 8  -9748342.894 6
  21683167.951   -17347501.177 8 -13517532.025 8
  24192373.866    -7889450.994 6  -6147621.528 2
 91 12  4 17 30 30.0030000  0  4 17  3 23 21
  21626952.075   -15360800.774 8 -11969468.527 8
  21935282.921   -12449669.713 8  -9701058.739 5
  21679293.445   -17367841.050 8 -13533381.254 8
  24177291.608    -7968708.844 6  -6209380.845 3
 91 12  4 17 31  0.0030000  0  4 17  3 23 21
  21630252.190   -15343466.715 8 -11955961.507 8
  21946921.466   -12388493.647 8  -9653389.149 5
  21675497.464   -17387800.080 8 -13548933.725 8
  24162242.627    -8047777.150 6  -6270992.462 2
 91 12  4 17 31 30.0030000  0  4 17  3 23 21
  21633581.988   -15325942.195 8 -11942306.067 8
  21958659.844   -12326826.631 8  -9605337.002 5
  21671771.336   -17407379.312 8 -13564190.257 8
  24147234.114    -8126658.262 6  -6332458.232 2
 91 12  4 17 32  0.0030000  0  4 17  3 23 21
  21636951.957   -15308243.011 8 -11928514.523 8
  21970488.142   -12264672.382 8  -9556905.187 5
  21668116.283   -17426576.802 8 -13579149.322 8
  24132258.285    -8205365.177 6  -6393788.274 1
 91 12  4 17 32 30.0030000  0  4 17  3 23 21
  21640348.904   -15290382.775 8 -11914597.475 7
  21982407.897   -12202035.096 8  -9508096.985 5
  21664536.458   -17445400.358 8 -13593817.012 7
  24117311.528    -8283894.140 6  -6454979.625 1
 91 12  4 17 33  0.0030000  0  4 17  3 23 21
  21643783.316   -15272360.937 8 -11900554.520 9
  21994417.887   -12138913.473 8  -9458911.346 4
  21661020.484   -17463863.500 8 -13608203.871 7
  24102402.253    -8362245.969 6  -6516032.934 2
 91 12  4 17 33 30.0030000  0  4 17  3 23 21
  21647240.221   -15254177.040 8 -11886385.286 8
  22006522.004   -12075307.620 7  -9409348.419 4
  21657578.865   -17481969.291 8 -13622312.261 7
  24087525.960    -8440428.065 6  -6576953.979 3
 91 12  4 17 34  0.0030000  0  4 17  3 23 21
  21650733.109   -15235834.959 8 -11872092.788 8
  22018716.967   -12011216.530 7  -9359407.397 5
  21654194.814   -17499736.506 8 -13636156.840 8
  24072682.927    -8518437.158 6  -6637740.216 2
 91 12  4 17 34 30.0030000  0  4 17  3 23 21
  21654254.179   -15217330.052 8 -11857673.410 8
  22031006.649   -11946644.821 8  -9309091.862 5
  21650876.707   -17517168.997 8 -13649740.596 7
  24057872.282    -8596267.532 6  -6698387.186 4
 91 12  4 17 35  0.0030000  0  4 17  3 23 21
  21657806.712   -15198660.894 8 -11843126.043 7
  22043382.082   -11881607.173 8  -9258413.269 4
  21647623.655   -17534268.473 8 -13663064.863 8
  24043091.319    -8673932.931 6  -6758905.521 2
 91 12  4 17 35 30.0030000  0  4 17  3 23 21
  21661393.727   -15179812.004 8 -11828438.624 8
  22055846.563   -11816101.297 8  -9207369.824 5
  21644435.971   -17551028.197 8 -13676124.389 8
  24028345.728    -8751423.567 6  -6819287.737 2
 91 12  4 17 36  0.0030000  0  4 17  3 23 21
  21665017.020   -15160767.623 8 -11813598.884 8
  22068403.966   -11750118.169 8  -9155954.493 4
  21641313.325   -17567432.234 8 -13688906.738 8
  24013633.415    -8828720.377 6  -6879518.840 2
 91 12  4 17 36 30.0030000  0  4 17  3 23 21
  21668681.688   -15141513.137 8 -11798595.417 8
  22081052.198   -11683657.427 7  -9104166.981 4
  21638263.550   -17583466.743 8 -13701401.160 8
  23998963.662    -8905822.285 6  -6939598.101 4
 91 12  4 17 37  0.0030000  0  4 17  3 23 21
  21672384.118   -15122052.636 8 -11783431.427 8
  22093787.088   -11616722.271 8  -9052009.799 4
  21635278.813   -17599147.975 8 -13713620.307 8
  23984328.688    -8982737.251 6  -6999531.655 2
 91 12  4 17 37 30.0030000  0  4 17  3 23 21
  21676127.626   -15102395.632 8 -11768114.312 8
  22106615.511   -11549311.734 8  -8999482.195 4
  21632358.833   -17614482.623 8 -13725569.380 7
  23969724.008    -9059471.164 6  -7059324.144 3
 91 12  4 17 38  0.0030000  0  4 17  3 23 21
  21679898.723   -15082561.514 8 -11752659.189 8
  22119534.762   -11481429.061 8  -8946586.703 4
  21629508.095   -17629474.523 8 -13737251.380 8
  23955153.495    -9136028.685 6  -7118979.179 4
 91 12  4 17 38 30.0030000  0  4 17  3 23 21
  21683706.988   -15062559.265 8 -11737073.066 9
  22132543.062   -11413076.377 8  -8893324.982 5
  21626717.928   -17644135.108 8 -13748675.221 7
  23940623.152    -9212407.846 6  -7178495.208 4
 91 12  4 17 39  0.0030000  0  4 17  3 23 21
  21687540.732   -15042399.294 8 -11721364.045 8
  22145640.392   -11344251.222 8  -8839695.072 5
  21623995.223   -17658454.928 8 -13759833.532 7
  23926123.993    -9288605.920 6  -7237870.173 2
 91 12  4 17 39 30.0030000  0  4 17  3 23 21
  21691408.345   -15022089.423 8 -11705538.222 7
  22158823.770   -11274960.728 8  -8785702.590 5
  21621333.366   -17672431.632 8 -13770724.459 7
  23911653.609    -9364623.567 6  -7297104.481 2
 91 12  4 17 40  0.0030000  0  4 17  3 23 21
  21695304.456   -15001614.798 8 -11689584.018 8
  22172098.884   -11205199.197 7  -8731343.041 5
  21618737.455   -17686061.563 8 -13781345.199 8
  23897229.085    -9440436.814 6  -7356179.586 2
 91 12  4 17 40 30.0030000  0  4 17  3 23 21
  21699234.437   -14980962.653 8 -11673491.496 8
  22185465.122   -11134965.533 7  -8676615.590 5
  21616212.914   -17699338.897 8 -13791691.174 8
  23882840.246    -9516042.575 6  -7415092.982 2
 91 12  4 17 41  0.0030000  0  4 17  3 23 21
  21703199.196   -14960124.025 8 -11657253.662 7
  22198919.502   -11064255.716 7  -8621517.135 5
  21613756.412   -17712252.274 8 -13801753.544 8
  23868495.190    -9591438.792 6  -7473843.078 3
 91 12  4 17 41 30.0030000  0  4 17  3 23 21
  21707203.811   -14939078.023 8 -11640854.235 7
  22212467.729   -10993058.386 7  -8566038.765 5
  21611366.762   -17724806.460 8 -13811536.033 8
  23854191.491    -9666597.230 6  -7532407.880 3
 91 12  4 17 42  0.0030000  0  4 17  3 23 21
  21711247.707   -14917816.794 8 -11624287.110 8
  22226107.377   -10921369.727 7  -8510177.535 5
  21609046.965   -17737007.634 8 -13821043.445 7
  23839938.153    -9741509.657 6  -7590781.049 3
 91 12  4 17 42 30.0030000  0  4 17  3 23 21
  21715334.182   -14896345.090 8 -11607555.977 8
  22239843.281   -10849195.884 7  -8453938.253 5
  21606787.737   -17748863.337 8 -13830281.662 7
  23825721.391    -9816205.019 6  -7648985.045 2
 91 12  4 17 43  0.0030000  0  4 17  3 23 21
  21719463.532   -14874659.509 8 -11590658.198 8
  22253668.810   -10776534.050 7  -8397318.727 5
  21604597.456   -17760374.565 8 -13839251.460 8
  23811548.708    -9890688.246 6  -7707023.773 3
 91 12  4 17 43 30.0030000  0  4 17  3 23 21
  21723627.346   -14852779.260 8 -11573608.734 7
  22267587.575   -10703408.550 7  -8340337.926 5
  21602469.524   -17771559.055 8 -13847966.671 8
  23797406.894    -9964992.715 6  -7764923.237 3
 91 12  4 17 44  0.0030000  0  4 17  3 23 21
  21727827.735   -14830703.354 8 -11556406.795 8
  22281592.072   -10629813.085 7  -8282990.880 5
  21600412.649   -17782382.889 8 -13856400.848 7
  23783301.063   -10039139.453 6  -7822699.768 2
 91 12  4 17 44 30.0030000  0  4 17  3 23 21
  21732065.311   -14808440.550 8 -11539059.218 7
  22295682.617   -10555762.535 7  -8225289.239 5
  21598418.124   -17792848.532 8 -13864555.905 7
  23769212.612   -10113150.441 6  -7880370.575 3
 91 12  4 17 45  0.0030000  0  4 17  3 23 21
  21736334.646   -14786000.487 8 -11521573.508 7
  22309859.209   -10481262.720 7  -8167237.516 5
  21596492.859   -17802957.885 8 -13872433.342 8
  23755159.550   -10187008.945 6  -7937922.553 2
 91 12  4 17 45 30.0030000  0  4 17  3 23 21
  21740636.963   -14763393.409 8 -11503957.638 8
  22324122.127   -10406319.859 7  -8108840.549 3
  21594634.446   -17812723.035 8 -13880042.563 7
  23741137.952   -10260708.214 6  -7995350.443 3
 91 12  4 17 46  0.0030000  0  4 17  3 23 21
  21744968.665   -14740625.459 8 -11486216.416 8
  22338468.108   -10330934.309 7  -8050098.625 5
  21592837.789   -17822164.305 8 -13887399.408 7
  23727143.645   -10334229.153 6  -8052639.401 3
 91 12  4 17 46 30.0030000  0  4 17  3 23 21
  21749331.848   -14717696.126 8 -11468349.445 8
  22352895.006   -10255103.342 7  -7991009.637 5
  21591103.185   -17831294.898 8 -13894514.170 7
  23713194.604   -10407536.606 6  -8109762.030 2
 91 12  4 17 47  0.0030000  0  4 17  3 23 21
  21753721.415   -14694622.498 8 -11450370.026 8
  22367411.563   -10178825.572 7  -7931572.502 5
  21589424.945   -17840116.105 8 -13901387.857 7
  23699288.717   -10480623.726 6  -8166712.933 4
 91 12  4 17 47 30.0030000  0  4 17  3 23 21
  21758143.353   -14671402.171 8 -11432276.300 8
  22382011.462   -10102105.070 7  -7871790.387 4
  21587804.274   -17848634.303 8 -13908025.424 8
  23685417.033   -10553503.016 6  -8223501.947 3
 91 12  4 17 48  0.0030000  0  4 17  3 23 21
  21762591.675   -14648024.439 8 -11414059.911 7
  22396693.499   -10024944.537 7  -7811665.355 3
  21586239.059   -17856850.402 8 -13914427.589 7
  23671585.502   -10626177.045 6  -8280131.019 3
 91 12  4 17 48 30.0030000  0  4 17  3 23 21
  21767072.664   -14624472.371 8 -11395707.659 7
  22411463.363    -9947340.940 7  -7751195.095 4
  21584735.007   -17864753.864 8 -13920586.141 8
  23657796.253   -10698655.699 6  -8336607.858 4
 91 12  4 17 49  0.0030000  0  4 17  3 23 21
  21771587.838   -14600738.549 8 -11377213.804 8
  22426314.179    -9869292.979 7  -7690378.567 4
  21583290.600   -17872346.271 8 -13926502.297 8
  23644037.873   -10770954.274 7  -8392944.388 4
 91 12  4 17 49 30.0030000  0  4 17  3 23 21
  21776142.886   -14576808.748 8 -11358567.237 8
  22441248.041    -9790809.651 7  -7629222.787 4
  21581906.449   -17879636.013 8 -13932182.615 8
  23630314.568   -10843068.800 7  -8449137.480 2
 91 12  4 17 50  0.0030000  0  4 17  3 23 21
  21780729.711   -14552695.755 8 -11339777.931 7
  22456265.559    -9711898.933 7  -7567734.011 5
  21580573.881   -17886624.357 8 -13937628.084 8
  23616626.652   -10915000.414 7  -8505188.082 3
 91 12  4 17 50 30.0030000  0  4 17  3 23 21
  21785352.814   -14528419.867 8 -11320861.699 7
  22471364.604    -9632563.363 7  -7505914.190 5
  21579302.755   -17893311.182 8 -13942838.597 8
  23602973.793   -10986753.055 6  -8561099.220 2
 91 12  4 17 51  0.0030000  0  4 17  3 23 21
  21790001.395   -14503991.244 8 -11301826.443 7
  22486541.285    -9552803.462 7  -7443763.729 4
  21578085.602   -17899690.753 8 -13947809.702 8
  23589354.527   -11058315.630 7  -8616862.264 4
 91 12  4 17 51 30.0030000  0  4 17  3 23 21
  21794682.957   -14479391.560 8 -11282657.901 7
  22501801.326    -9472611.324 7  -7381276.456 4
  21576935.004   -17905755.694 8 -13952535.642 8
  23575779.025   -11129671.794 7  -8672464.476 4
 91 12  4 17 52  0.0030000  0  4 17  3 23 21
  21799394.202   -14454619.993 8 -11263355.423 8
  22517147.710    -9391972.788 7  -7318441.326 4
  21575839.864   -17911496.399 8 -13957008.920 7
  23562238.302   -11200821.233 7  -8727905.594 3
 91 12  4 17 52 30.0030000  0  4 17  3 23 21
  21804143.209   -14429669.966 8 -11243913.902 7
  22532575.622    -9310878.551 7  -7255251.107 4
  21574811.871   -17916900.452 8 -13961219.881 8
  23548739.250   -11271749.715 7  -8783174.535 4
 91 12  4 17 53  0.0030000  0  4 17  3 23 21
  21808926.994   -14404525.404 8 -11224320.778 8
  22548095.270    -9229336.374 7  -7191711.834 4
  21573847.433   -17921970.004 8 -13965170.204 8
  23535287.261   -11342460.542 7  -8838273.862 4
 91 12  4 17 53 30.0030000  0  4 17  3 23 21
  21813749.152   -14379181.658 8 -11204572.452 6
  22563695.887    -9147352.428 7  -7127828.346 3
  21572948.659   -17926704.650 8 -13968859.563 8
  23521867.956   -11412963.372 7  -8893211.123 2
 91 12  4 17 54  0.0030000  0  4 17  3 23 21
  21818610.294   -14353643.189 8 -11184672.401 7
  22579383.127    -9064926.276 7  -7063600.292 4
  21572112.829   -17931090.006 8 -13972276.754 8
  23508490.619   -11483266.701 7  -8947992.927 3
 91 12  4 17 54 30.0030000  0  4 17  3 23 21
  21823508.291   -14327900.737 8 -11164613.394 7
  22595148.910    -8982064.459 7  -6999032.767 2
  21571345.665   -17935125.737 8 -13975421.512 8
  23495148.654   -11553373.427 7  -9002621.530 4
 91 12  4 17 55  0.0030000  0  4 17  3 23 21
  21828445.289   -14301941.588 8 -11144385.545 7
  22611000.723    -8898768.381 7  -6934126.838 3
  21570644.148   -17938816.229 8 -13978297.258 8
  23481845.655   -11623297.898 7  -9057108.123 4
 91 12  4 17 55 30.0030000  0  4 17  3 23 21
  21833424.238   -14275790.836 8 -11124008.386 7
  22626933.504    -8815045.017 7  -6868887.981 4
  21570005.296   -17942173.485 8 -13980913.343 8
  23468567.243   -11693055.504 7  -9111464.690 4
 91 12  4 17 56  0.0030000  0  4 17  3 23 21
  21838433.166   -14249470.475 8 -11103499.070 7
  22642943.922    -8730904.797 7  -6803324.286 3
  21569423.104   -17945220.703 8 -13983287.835 8
  23455326.611   -11762645.555 7  -9165690.680 2
 91 12  4 17 56 30.0030000  0  4 17  3 23 21
  21843471.480   -14222989.961 8 -11082864.961 7
  22659031.679    -8646353.978 7  -6737440.647 4
  21568901.465   -17947975.016 8 -13985434.096 8
  23442117.756   -11832064.150 7  -9219783.048 1
 91 12  4 17 57  0.0030000  0  4 17  3 23 21
  21848538.569   -14196363.623 8 -11062117.216 7
  22675199.794    -8561397.909 7  -6671241.246 4
  21568429.594   -17950451.682 8 -13987364.006 7
  23428937.991   -11901308.504 7  -9273739.667 2
 91 12  4 17 57 30.0030000  0  4 17  3 23 21
  21853631.747   -14169602.386 8 -11041264.358 7
  22691442.544    -8476041.772 7  -6604730.103 5
  21568007.787   -17952659.673 8 -13989084.560 7
  23415798.378   -11970362.896 7  -9327548.258 4
 91 12  4 17 58  0.0030000  0  4 17  3 23 21
  21858751.309   -14142707.644 8 -11020307.458 7
  22707759.039    -8390296.010 7  -6537915.346 4
  21567633.340   -17954615.903 8 -13990608.941 8
  23402694.748   -12039221.658 7  -9381204.403 4
 91 12  4 17 58 30.0030000  0  4 17  3 23 21
  21863897.832   -14115665.941 8 -10999236.046 7
  22724150.500    -8304162.227 7  -6470798.232 4
  21567309.255   -17956321.778 8 -13991938.236 8
  23389629.805   -12107892.239 7  -9434713.916 2
 91 12  4 17 59  0.0030000  0  4 17  3 23 21
  21869071.351   -14088469.414 8 -10978043.986 7
  22740616.002    -8217640.872 7  -6403379.102 4
  21567034.362   -17957772.178 8 -13993068.451 8
  23376596.324   -12176372.611 7  -9488075.190 4
 91 12  4 17 59 30.0030000  0  4 17  3 23 21
  21874279.054   -14061107.445 8 -10956723.010 7
  22757154.951    -8130731.180 7  -6335657.371 4
  21566806.811   -17958961.532 8 -13993995.245 8
  23363603.922   -12244656.770 7  -9541283.565 5
 91 12  4 18  0  0.0030000  0  4 17  3 23 21
  21879518.517   -14033565.745 8 -10935261.985 7
  22773767.053    -8043431.225 7  -6267631.551 2
  21566635.327   -17959883.636 8 -13994713.797 8
  23350645.390   -12312748.004 7  -9594341.626 5
 91 12  4 18  0 30.0030000  0  4 17  3 23 21
  21884800.575   -14005824.831 8 -10913645.451 7
  22790455.289    -7955730.794 7  -6199293.642 3
  21566515.706   -17960504.367 8 -13995197.515 8
  23337727.325   -12380632.613 7  -9647238.690 4
 91 12  4 18  1  0.0030000  0  4 17  3 23 21
  21890115.894   -13977885.699 8 -10891874.504 7
  22807221.790    -7867631.807 7  -6130645.189 3
  21566455.154   -17960817.439 8 -13995441.478 8
  23324850.042   -12448303.203 7  -9699968.975 3
 91 12  4 18  1 30.0030000  0  4 17  3 23 21
  21895469.290   -13949756.166 8 -10869955.437 7
  22824058.441    -7779139.686 7  -6061690.369 3
  21566455.451   -17960824.846 8 -13995447.309 8
  23312013.836   -12515767.586 7  -9752538.555 3
 91 12  4 18  2  0.0030000  0  4 17  3 23 21
  21900852.647   -13921447.836 8 -10847897.031 7
  22840974.228    -7690255.572 7  -5992430.151 4
  21566511.815   -17960526.302 8 -13995214.677 8
  23299209.390   -12583039.348 7  -9804958.053 4
 91 12  4 18  2 30.0030000  0  4 17  3 23 21
  21906273.505   -13892964.537 8 -10825702.284 6
  22857964.667    -7600973.039 7  -5922859.440 2
  21566625.433   -17959920.160 8 -13994742.375 8
  23286447.225   -12650113.646 7  -9857223.704 3
 91 12  4 18  3  0.0030000  0  4 17  3 23 21
  21911725.825   -13864319.306 8 -10803381.375 7
  22875029.148    -7511295.609 7  -5852981.058 4
  21566795.416   -17959029.496 8 -13994048.366 8
  23273716.245   -12717013.733 7  -9909353.609 4
 91 12  4 18  3 30.0030000  0  4 17  3 23 21
  21917206.328   -13835513.433 8 -10780935.277 6
  22892168.874    -7421226.066 7  -5782797.120 3
  21567016.667   -17957864.977 8 -13993140.964 9
  23261019.728   -12783742.590 7  -9961350.071 2
 91 12  4 18  4  0.0030000  0  4 17  3 23 21
  21922719.811   -13806542.940 8 -10758360.916 6
  22909382.955    -7330764.809 7  -5712307.928 4
  21567289.170   -17956437.303 8 -13992028.511 7
  23248353.208   -12850287.572 7 -10013203.237 2
 91 12  4 18  4 30.0030000  0  4 17  3 23 21
  21928266.869   -13777390.170 8 -10735644.523 6
  22926670.502    -7239906.303 7  -5641509.214 3
  21567615.052   -17954737.307 8 -13990703.865 8
  23235731.937   -12916624.581 7 -10064894.374 4
 91 12  4 18  5  0.0030000  0  4 17  3 23 21
  21933853.801   -13748042.076 8 -10712775.938 7
  22944037.779    -7148648.025 7  -5570398.970 2
  21567990.389   -17952753.609 8 -13989158.160 8
  23223149.056   -12982747.439 7 -10116418.648 4
 91 12  4 18  5 30.0030000  0  4 17  3 23 21
  21939475.214   -13718496.505 8 -10689753.468 7
  22961477.893    -7056993.611 7  -5498980.030 4
  21568422.090   -17950478.475 8 -13987385.355 8
  23210607.236   -13048641.264 7 -10167764.444 4
 91 12  4 18  6  0.0030000  0  4 17  3 23 21
  21945135.000   -13688754.888 8 -10666578.229 7
  22978996.865    -6964940.247 7  -5427250.277 2
  21568914.343   -17947892.221 8 -13985370.125 8
  23198113.682   -13114306.807 7 -10218932.328 4
 91 12  4 18  6 30.0030000  0  4 17  3 23 21
  21950831.955   -13658814.362 8 -10643248.005 7
  22996591.989    -6872482.657 7  -5355205.501 3
  21569471.058   -17944969.506 8 -13983092.718 8
  23185661.504   -13179747.328 7 -10269924.884 3
 91 12  4 18  7  0.0030000  0  4 17  3 23 21
  21956568.784   -13628666.845 8 -10619756.478 6
  23014261.766    -6779612.497 7  -5282839.253 2
  21570094.030   -17941707.119 8 -13980550.637 8
  23173251.293   -13244958.411 7 -10320738.671 5
 91 12  4 18  7 30.0030000  0  4 17  3 23 21
  21962346.377   -13598308.761 8 -10596100.881 6
  23032016.367    -6686327.230 7  -5210149.542 4
  21570775.165   -17938110.410 8 -13977748.054 7
  23160887.848   -13309928.565 7 -10371364.735 5
 91 12  4 18  8  0.0030000  0  4 17  3 23 21
  21968163.860   -13567742.485 8 -10572283.059 7
  23049844.731    -6592632.915 7  -5137141.106 3
  21571521.650   -17934201.918 8 -13974702.523 8
  23148571.171   -13374655.330 7 -10421801.137 4
 91 12  4 18  8 30.0030000  0  4 17  3 23 21
  21974019.996   -13536959.955 8 -10548296.732 6
  23067746.526    -6498532.969 7  -5063816.602 4
  21572322.999   -17930005.791 8 -13971432.866 8
  23136299.776   -13439135.382 7 -10472045.291 2
 91 12  4 18  9  0.0030000  0  4 17  3 23 21
  21979917.821   -13505960.530 8 -10524141.389 6
  23085735.886    -6404034.171 7  -4990181.316 3
  21573169.003   -17925538.831 8 -13967952.153 8
  23124077.835   -13503373.463 7 -10522100.895 5
 91 12  4 18  9 30.0030000  0  4 17  3 23 21
  21985863.895   -13474734.868 8 -10499809.752 6
  23103790.282    -6309137.708 7  -4916236.153 4
  21574072.279   -17920782.315 8 -13964245.827 8
  23111896.659   -13567377.729 7 -10571974.307 3
 91 12  4 18 10  0.0030000  0  4 17  3 23 21
  21991842.357   -13443301.275 8 -10475316.089 6
  23121926.520    -6213852.429 7  -4841988.012 4
  21575034.920   -17915725.650 8 -13960305.618 8
  23099756.263   -13631172.797 7 -10621684.734 4
 91 12  4 18 10 30.0030000  0  4 17  3 23 21
  21997866.103   -13411657.391 8 -10450658.571 6
  23140130.518    -6118186.107 7  -4767442.949 5
  21576060.504   -17910352.331 8 -13956118.661 8
  23087652.146   -13694782.591 7 -10671250.783 4
 91 12  4 18 11  0.0030000  0  4 17  3 23 21
  22003925.796   -13379810.616 8 -10425842.937 7
  23158406.776    -6022144.505 7  -4692605.510 4
  21577141.563   -17904651.727 8 -13951676.669 9
  23075580.714   -13758215.648 7 -10720679.115 3
 91 12  4 18 11 30.0030000  0  4 17  3 23 21
  22010025.083   -13347767.096 8 -10400874.013 7
  23176753.761    -5925732.089 7  -4617479.072 5
  21578289.769   -17898633.976 8 -13946987.556 9
  23063547.637   -13821463.596 7 -10769963.185 4
 91 12  4 18 12  0.0030000  0  4 17  3 23 21
  22016155.833   -13315536.369 8 -10375759.208 6
  23195170.913    -5828949.755 7  -4542064.403 3
  21579487.430   -17892326.454 8 -13942072.644 9
  23051549.653   -13884509.225 7 -10819089.630 5
 91 12  4 18 12 30.0030000  0  4 17  3 23 21
  22022325.864   -13283104.916 8 -10350487.989 6
  23213658.214    -5731799.528 7  -4466363.066 4
  21580742.363   -17885753.094 8 -13936950.576 8
  23039594.526   -13947326.922 7 -10868038.473 4
 91 12  4 18 13  0.0030000  0  4 17  3 23 21
  22028534.861   -13250486.467 8 -10325071.051 6
  23232214.479    -5634284.505 7  -4390377.466 4
  21582039.856   -17878929.021 8 -13931633.156 8
  23027684.962   -14009895.371 7 -10916793.102 4
 91 12  4 18 13 30.0030000  0  4 17  3 23 21
  22034778.636   -13217679.593 8 -10299507.293 6
  23250839.986    -5536408.203 7  -4314110.358 3
  21583382.040   -17871866.400 8 -13926129.840 8
  23015829.964   -14072201.230 7 -10965343.115 5
 91 12  4 18 14  0.0030000  0  4 17  3 23 21
  22041056.299   -13184684.216 8 -10273796.650 7
  23269532.031    -5438169.504 7  -4237560.853 3
  21584776.068   -17864554.940 8 -13920432.624 8
  23004024.752   -14134242.760 7 -11013687.150 5
 91 12  4 18 14 30.0030000  0  4 17  3 23 21
  22047373.226   -13151496.494 8 -10247936.146 6
  23288295.745    -5339569.765 6  -4160730.042 3
  21586217.176   -17856979.910 8 -13914530.031 9
  22992267.180   -14196026.508 7 -11061830.306 5
 91 12  4 18 15  0.0030000  0  4 17  3 23 21
  22053724.930   -13118122.891 8 -10221930.779 6
  23307127.513    -5240613.146 6  -4083621.079 3
  21587708.036   -17849136.772 8 -13908418.507 8
  22980558.485   -14257568.705 7 -11109785.250 3
 91 12  4 18 15 30.0030000  0  4 17  3 23 21
  22060109.005   -13084566.154 8 -10195782.728 6
  23326025.820    -5141302.289 6  -4006236.127 1
  21589254.666   -17841022.386 8 -13902095.618 8
  22968889.070   -14318888.549 7 -11157566.921 5
 91 12  4 18 16  0.0030000  0  4 17  3 23 21
  22066529.063   -13050837.903 8 -10169501.026 6
  23344990.403    -5041644.036 6  -3928580.511 3
  21590847.766   -17832640.174 8 -13895564.044 8
  22957256.214   -14380010.903 7 -11205194.717 5
 91 12  4 18 16 30.0030000  0  4 17  3 23 21
  22072979.989   -13016932.193 8 -10143081.047 6
  23364019.132    -4941643.071 7  -3850657.799 3
  21592493.636   -17823997.150 8 -13888829.221 7
  22945659.951   -14440947.109 7 -11252677.465 5
 91 12  4 18 17  0.0030000  0  4 17  3 23 21
  22079463.304   -12982849.414 8 -10116523.079 6
  23383116.511    -4841299.965 6  -3772468.473 1
  21594185.661   -17815090.200 8 -13881888.755 8
  22934100.857   -14501700.489 7 -11300017.747 4
 91 12  4 18 17 30.0030000  0  4 17  3 23 21
  22085988.289   -12948585.774 8 -10089824.216 6
  23402276.239    -4740619.026 7  -3694015.965 2
  21595931.643   -17805922.104 8 -13874744.794 7
  22922573.226   -14562275.962 7 -11347219.396 5
 91 12  4 18 18  0.0030000  0  4 17  3 23 21
  22092543.551   -12914120.479 8 -10062968.220 6
  23421494.443    -4639603.914 6  -3615303.034 2
  21597728.003   -17796494.754 8 -13867398.819 8
  22911081.595   -14622659.970 7 -11394271.839 5
 91 12  4 18 18 30.0030000  0  4 17  3 23 21
  22099142.874   -12879442.356 8 -10035946.383 6
  23440783.984    -4538254.873 6  -3536329.948 2
  21599572.020   -17786799.800 8 -13859844.329 8
  22899631.913   -14682836.979 7 -11441162.993 5
 91 12  4 18 19  0.0030000  0  4 17  3 23 21
  22105782.978   -12844554.465 8 -10008761.082 6
  23460131.982    -4436574.999 6  -3457098.966 1
  21601469.120   -17776840.514 8 -13852083.860 8
  22888220.919   -14742799.566 7 -11487887.076 5
 91 12  4 18 19 30.0030000  0  4 17  3 23 21
  22112461.456   -12809453.343 8  -9981409.637 6
  23479542.959    -4334566.560 6  -3377612.042 2
  21603411.173   -17766624.094 8 -13844123.030 8
  22876849.782   -14802546.742 7 -11534443.315 6
 91 12  4 18 20  0.0030000  0  4 17  3 23 21
  22119183.105   -12774144.012 8  -9953895.944 6
  23499018.362    -4232229.752 7  -3297869.245 2
  21605403.883   -17756151.964 8 -13835962.938 7
  22865524.224   -14862071.738 7 -11580826.425 5
 91 12  4 18 20 30.0030000  0  4 17  3 23 21
  22125935.938   -12738648.191 8  -9926236.934 6
  23518554.352    -4129566.530 6  -3217872.095 2
  21607443.080   -17745431.121 8 -13827609.051 8
  22854236.149   -14921390.204 7 -11627048.585 4
 91 12  4 18 21  0.0030000  0  4 17  3 23 21
  22132725.940   -12702966.779 8  -9898433.320 6
  23538153.267    -4026579.466 6  -3137622.592 3
  21609530.528   -17734473.256 8 -13819070.473 8
  22842983.429   -14980514.576 7 -11673119.512 5
 91 12  4 18 21 30.0030000  0  4 17  3 23 21
  22139551.610   -12667104.704 8  -9870488.911 6
  23557808.564    -3923276.044 6  -3057126.586 1
  21611658.163   -17723281.736 8 -13810349.829 8
  22831770.896   -15039451.453 7 -11719044.343 5
 91 12  4 18 22  0.0030000  0  4 17  3 23 21
  22146409.965   -12631060.553 8  -9842402.643 6
  23577527.711    -3819664.484 6  -2976390.497 2
  21613833.751   -17711854.252 8 -13801445.313 9
  22820592.531   -15098190.451 7 -11764814.984 4
 91 12  4 18 22 30.0030000  0  4 17  3 23 21
  22153304.580   -12594828.100 8  -9814169.644 6
  23597304.724    -3715740.974 6  -2895411.292 1
  21616055.810   -17700176.448 8 -13792345.745 8
  22809456.151   -15156720.978 7 -11810423.172 5
 91 12  4 18 23  0.0030000  0  4 17  3 23 21
  22160240.292   -12558386.532 8  -9785773.694 6
  23617140.194    -3611501.045 6  -2814185.555 3
  21618327.950   -17688235.303 8 -13783040.966 8
  22798357.830   -15215017.649 7 -11855849.151 6
 91 12  4 18 23 30.0030000  0  4 17  3 23 21
  22167213.154   -12521741.161 8  -9757218.932 6
  23637034.420    -3506950.432 6  -2732717.730 2
  21620648.934   -17676031.860 8 -13773531.800 8
  22787314.965   -15273066.211 8 -11901081.778 5
 91 12  4 18 24  0.0030000  0  4 17  3 23 21
  22174225.001   -12484893.034 8  -9728506.155 5
  23656987.714    -3402090.634 6  -2651008.956 1
  21623020.593   -17663570.562 8 -13763821.708 8
  22776313.790   -15330874.464 8 -11946127.137 4
 91 12  4 18 24 30.0030000  0  4 17  3 23 21
  22181273.126   -12447854.475 8  -9699644.992 5
  23677000.357    -3296924.588 6  -2569061.567 2
  21625439.612   -17650871.406 8 -13753926.277 8
  22765355.769   -15388457.151 8 -11990996.736 4
 91 12  4 18 25  0.0030000  0  4 17  3 23 21
  22188356.013   -12410624.567 8  -9670634.717 6
  23697072.051    -3191456.215 6  -2486878.611 3
  21627894.613   -17637946.525 8 -13743854.953 7
  22754440.937   -15445820.755 8 -12035695.626 6
 91 12  4 18 25 30.0030000  0  4 17  3 23 21
  22195477.289   -12373205.552 8  -9641477.089 6
  23717200.720    -3085684.541 6  -2404459.250 2
  21630397.585   -17624800.434 8 -13733611.250 8
  22743565.350   -15502973.610 8 -12080230.294 5
 91 12  4 18 26  0.0030000  0  4 17  3 23 21
  22202634.235   -12335594.623 8  -9612169.931 6
  23737388.144    -2979604.925 6  -2321800.061 3
  21632945.527   -17611424.951 8 -13723188.809 8
  22732726.060   -15559921.713 8 -12124605.416 6
 91 12  4 18 26 30.0030000  0  4 17  3 23 21
  22209830.146   -12297781.387 8  -9582705.134 5
  23757634.340    -2873212.505 6  -2238897.028 2
  21635537.826   -17597805.878 8 -13712576.554 8
  22721935.631   -15616642.344 7 -12168803.270 4
 91 12  4 18 27  0.0030000  0  4 17  3 23 21
  22217066.542   -12259743.402 8  -9553065.185 5
  23777940.478    -2766488.753 6  -2155735.821 2
  21638180.801   -17583907.035 8 -13701746.316 8
  22711185.965   -15673116.288 8 -12212808.888 5
 91 12  4 18 27 30.0030000  0  4 17  3 23 21
  22224353.002   -12221463.376 8  -9523236.628 5
  23798316.469    -2659419.220 6  -2072305.204 3
  21640881.624   -17569706.263 8 -13690680.802 8
  22700489.383   -15729325.118 8 -12256607.932 4
 91 12  4 18 28  0.0030000  0  4 17  3 23 21
  22231680.820   -12182943.819 8  -9493221.412 5
  23818754.217    -2552009.062 6  -1988609.171 2
  21643642.719   -17555203.483 8 -13679379.973 8
  22689845.553   -15785264.655 8 -12300197.140 5
 91 12  4 18 28 30.0030000  0  4 17  3 23 21
  22239062.314   -12144165.190 8  -9463004.346 5
  23839261.224    -2444253.507 6  -1904643.990 2
  21646455.677   -17540400.466 8 -13667845.191 7
  22679253.585   -15840927.399 8 -12343570.692 6
 91 12  4 18 29  0.0030000  0  4 17  3 23 21
  22246507.659   -12105026.305 8  -9432506.582 6
  23859850.073    -2336056.833 6  -1820335.075 3
  21649351.663   -17525212.533 8 -13656010.478 8
  22668730.859   -15896230.868 8 -12386664.262 4
 91 12  4 18 29 30.0030000  0  4 17  3 23 21
  22254046.537   -12065429.397 8  -9401651.898 6
  23880534.549    -2227335.320 6  -1735617.185 2
  21652327.414   -17509566.794 8 -13643819.049 8
  22658289.993   -15951086.925 8 -12429409.202 4
 91 12  4 18 30  0.0030000  0  4 17  3 23 21
  22261661.271   -12025395.599 8  -9370456.788 6
  23901326.361    -2118115.688 6  -1650511.158 3
  21655388.287   -17493492.428 8 -13631293.623 8
  22647933.358   -16005525.814 8 -12471829.088 5
 91 12  4 18 30 30.0030000  0  4 17  3 23 21
  22269374.337   -11984884.636 8  -9338889.866 4
  23922208.408    -2008358.109 6  -1564985.955 3
  21658535.206   -17476945.054 8 -13618399.622 7
  22637659.176   -16059511.237 8 -12513895.636 6
 91 12  4 18 31  0.0030000  0  4 17  3 23 21
  22277173.136   -11943883.740 8  -9306941.155 5
  23943204.667    -1898036.717 6  -1479021.374 4
  21661782.256   -17459879.289 8 -13605101.687 8
  22627478.230   -16113011.339 8 -12555584.003 5
 91 12  4 18 31 30.0030000  0  4 17  3 23 21
  22285069.063   -11902404.722 7  -9274619.879 5
  23964304.057    -1787155.569 6  -1392620.663 3
  21665131.249   -17442286.896 8 -13591393.388 8
  22617394.098   -16166008.988 8 -12596880.851 6
 91 12  4 18 32  0.0030000  0  4 17  3 23 21
  22293051.334   -11860457.498 7  -9241933.789 6
  23985509.579    -1675716.712 6  -1305785.358 3
  21668579.761   -17424160.314 8 -13577268.847 8
  22607405.925   -16218493.779 8 -12637778.063 4
 91 12  4 18 32 30.0030000  0  4 17  3 23 21
  22301123.857   -11818038.846 7  -9208880.359 6
  24006821.530    -1563723.877 6  -1218518.373 3
  21672128.699   -17405508.293 8 -13562734.874 8
  22597518.161   -16270454.283 8 -12678266.746 4
 91 12  4 18 33  0.0030000  0  4 17  3 23 21
  22309280.298   -11775164.118 7  -9175471.549 6
  24028234.500    -1451202.566 6  -1130839.636 2
  21675774.765   -17386357.335 8 -13547812.105 8
  22587725.744   -16321912.289 8 -12718363.881 5
 91 12  4 18 33 30.0030000  0  4 17  3 23 21
  22317525.491   -11731841.961 7  -9141714.081 5
  24049744.005    -1338183.611 6  -1042773.126 2
  21679502.987   -17366756.684 8 -13532538.931 8
  22578021.469   -16372907.606 8 -12758100.485 5
 91 12  4 18 34  0.0030000  0  4 17  3 23 21
  22325857.028   -11688048.724 7  -9107589.549 4
  24071341.965    -1224651.197 6   -954306.535 1
  21683320.257   -17346700.080 8 -13516910.469 8
  22568405.614   -16423438.770 8 -12797475.416 6
 91 12  4 18 34 30.0030000  0  4 17  3 23 21
  22334315.375   -11643603.544 7  -9072957.001 6
  24093080.801    -1110426.469 6   -865300.464 2
  21687258.928   -17326003.390 8 -13500783.219 8
  22558907.286   -16473341.748 8 -12836360.852 5
 91 12  4 18 35  0.0030000  0  4 17  3 23 21
  22342869.350   -11598663.617 8  -9037938.894 5
  24114918.597     -995661.502 6   -775873.002 1
  21691290.836   -17304806.704 8 -13484266.362 8
  22549501.897   -16522780.957 8 -12874884.893 4
 91 12  4 18 35 30.0030000  0  4 17  3 23 21
  22351506.666   -11553276.163 8  -9002572.111 5
  24136858.005     -880396.678 6   -686056.466 2
  21695412.385   -17283160.343 8 -13467399.104 8
  22540174.756   -16571784.796 8 -12913069.693 4
 91 12  4 18 36  0.0030000  0  5 17  3 23 11 21
  22360218.949   -11507486.491 8  -8966891.895 4
  24158874.456     -764674.632 6   -595883.615 3
  21699611.274   -17261091.633 8 -13450202.744 8
  26241116.854     -683997.693 5   -532985.572 2
  22530929.160   -16620380.449 8 -12950936.436 5
 91 12  4 18 36 30.0030000  0  5 17  3 23 11 21
  22369004.052   -11461320.862 8  -8930918.722 5
  24180979.362     -648525.341 6   -505377.900 2
  21703888.113   -17238616.942 8 -13432690.019 9
  26220156.857     -794239.424 5   -618888.012 1
  22521755.510   -16668592.241 8 -12988504.071 5
 91 12  4 18 37  0.0030000  0  5 17  3 23 11 21
  22377857.228   -11414788.271 8  -8894659.593 5
  24203163.091     -531964.086 6   -414551.134 2
  21708236.603   -17215766.359 8 -13414884.403 8
  26199194.172     -904361.012 5   -704696.972 2
  22512654.419   -16716412.686 8 -13025766.767 6
 91 12  4 18 37 30.0030000  0  5 17  3 23 11 21
  22386782.351   -11367897.948 8  -8858121.712 5
  24225416.691     -415003.322 6   -323413.070 2
  21712653.445   -17192554.267 8 -13396797.074 7
  26178262.060    -1014369.863 5   -790418.165 1
  22503629.760   -16763842.360 8 -13062724.966 6
 91 12  4 18 38  0.0030000  0  5 17  3 23 11 21
  22395771.622   -11320655.082 8  -8821309.133 5
  24247746.129     -297659.916 6   -231976.868 2
  21717140.437   -17168978.831 8 -13378426.636 8
  26157336.544    -1124277.443 4   -876060.544 3
  22494674.360   -16810895.089 8 -13099389.438 6
 91 12  4 18 38 30.0030000  0  4 17  3 23 21
  22404825.056   -11273076.981 8  -8784235.331 6
  24270145.124     -179951.946 6   -140256.576 2
  21721690.685   -17145061.524 8 -13359789.802 8
  22485790.908   -16857578.774 8 -13135766.334 5
 91 12  4 18 39  0.0030000  0  4 17  3 23 21
  22413943.545   -11225172.688 8  -8746907.346 5
  24292611.267      -61886.672 6    -48257.910 3
  21726305.396   -17120807.599 8 -13340890.667 8
  22476977.606   -16903896.641 8 -13171858.180 5
 91 12  4 18 39 30.0030000  0  4 17  3 23 21
  22423117.491   -11176940.706 8  -8709324.027 5
  24315148.764       56529.890 6     44014.974 3
  21730987.551   -17096212.368 8 -13321725.585 7
  22468229.672   -16949861.359 8 -13207674.833 6
 91 12  4 18 40  0.0030000  0  5 17  3 23 11 21
  22432361.308   -11128382.418 8  -8671486.422 5
  24337745.924      175288.678 6    136554.536 1
  21735728.775   -17071288.253 8 -13302304.231 8
  26073850.043      -18251.41915    -14221.859 2
  22459549.183   -16995480.590 8 -13243222.284 5
 91 12  4 18 40 30.0030000  0  5 17  3 23 11 21
  22441659.063   -11079514.628 7  -8633407.669 5
  24360410.546      294376.339 6    229349.884 2
  21740528.736   -17046056.932 8 -13282643.499 8
  26053014.169     -127742.516 5    -99539.544 2
  22450929.247   -17040779.708 8 -13278520.286 6
 91 12  4 18 41  0.0030000  0  5 17  3 23 11 21
  22451016.184   -11030341.553 7  -8595091.034 5
  24383135.999      413783.960 6    322394.576 3
  21745386.580   -17020536.114 8 -13262757.192 8
  26032196.879     -237163.059 6   -184802.500 3
  22442367.176   -17085773.819 8 -13313580.632 6
 91 12  4 18 41 30.0030000  0  5 17  3 23 11 21
  22460435.061   -10980859.239 7  -8556533.445 5
  24405917.241      533501.982 6    415681.604 2
  21750296.880   -16994749.983 8 -13242664.146 7
  26011382.888     -346516.869 6   -270013.193 3
  22433861.765   -17130467.201 8 -13348406.629 6
 91 12  4 18 42  0.0030000  0  5 17  3 23 11 21
  22469902.502   -10931090.360 7  -8517752.561 5
  24428750.624      653514.446 6    509197.597 2
  21755253.352   -16968699.378 8 -13222365.028 8
  25990596.189     -455814.962 6   -355180.799 1
  22425411.218   -17174872.271 8 -13383007.949 6
 91 12  4 18 42 30.0030000  0  5 17  3 23 11 21
  22479429.920   -10881033.062 7  -8478746.933 4
  24451644.874      773826.034 6    602946.985 1
  21760263.781   -16942367.116 8 -13201846.435 8
  25969806.784     -565047.288 6   -440296.735 3
  22417018.221   -17218987.295 8 -13417383.275 5
 91 12  4 18 43  0.0030000  0  5 17  3 23 11 21
  22489012.480   -10830682.092 7  -8439512.475 4
  24474604.491      894439.162 6    696931.506 2
  21765327.869   -16915747.916 8 -13181104.262 8
  25949038.059     -674205.821 6   -525355.085 1
  22408679.792   -17262802.643 8 -13451525.096 6
 91 12  4 18 43 30.0030000  0  5 17  3 23 11 21
  22498643.918   -10780063.271 7  -8400069.303 4
  24497606.653     1015331.322 5    791133.004 2
  21770448.636   -16888846.606 8 -13160142.257 8
  25928265.442     -783307.637 5   -610369.321 3
  22400393.225   -17306337.628 8 -13485448.449 6
 91 12  4 18 44  0.0030000  0  5 17  3 23 11 21
  22508319.418   -10729218.938 7  -8360450.420 6
  24520659.193     1136464.963 5    885522.629 2
  21775615.558   -16861693.617 8 -13138984.141 7
  25907509.612     -892385.012 5   -695364.868 2
  22392156.739   -17349625.895 8 -13519179.566 6
 91 12  4 18 44 30.0030000  0  5 17  3 23 11 21
  22518031.791   -10678167.523 7  -8320670.195 5
  24543750.717     1257815.923 5    980082.042 3
  21780822.650   -16834336.520 8 -13117666.986 9
  25886769.958    -1001456.312 5   -780355.372 3
  22383964.612   -17392683.949 8 -13552731.290 6
 91 12  4 18 45  0.0030000  0  5 17  3 23 11 21
  22527786.131   -10626919.448 7  -8280736.719 5
  24566876.112     1379377.890 5   1074805.841 1
  21786063.928   -16806792.546 8 -13096204.204 8
  25865992.246    -1110522.183 5   -865341.940 1
  22375815.640   -17435508.845 8 -13586101.329 6
 91 12  4 18 45 30.0030000  0  5 17  3 23 11 21
  22537574.953   -10575470.038 7  -8240646.359 4
  24590041.975     1501149.482 5   1169692.974 1
  21791338.466   -16779069.010 8 -13074601.504 8
  25845252.295    -1219578.805 5   -950321.081 2
  22367710.153   -17478095.170 8 -13619285.477 5
 91 12  4 18 46  0.0030000  0  5 17  3 23 11 21
  22547404.556   -10523809.957 7  -8200391.856 5
  24613264.794     1623130.772 5   1264743.126 2
  21796647.799   -16751167.150 8 -13052859.845 8
  25824500.968    -1328620.335 5  -1035288.381
  22359653.527   -17520442.390 8 -13652283.311 5
 91 12  4 18 46 30.0030000  0  5 17  3 23 11 21
  22557279.425   -10471929.977 7  -8159965.980 4
  24636515.202     1745327.501 5   1359961.576 2
  21801993.097   -16723076.847 8 -13030971.343 8
  25803755.329    -1437635.530 5  -1120235.082 1
  22351639.183   -17562554.084 8 -13685097.629 6
 91 12  4 18 47  0.0030000  0  5 17  3 23 11 21
  22567196.261   -10419819.648 7  -8119360.634 4
  24659808.469     1867736.694 5   1455345.591 2
  21807374.675   -16694790.757 8 -13008930.283 8
  25783037.278    -1546621.606 5  -1205159.237 2
  22343669.791   -17604438.380 8 -13717734.749 6
 91 12  4 18 47 30.0030000  0  5 17  3 23 11 21
  22577161.662   -10367457.029 7  -8078558.702 4
  24683145.221     1990356.544 6   1550893.692 2
  21812798.220   -16666298.473 8 -12986728.527 7
  25762290.435    -1655574.780 5  -1290057.787 1
  22335739.993   -17646096.694 8 -13750195.794 6
 91 12  4 18 48  0.0030000  0  5 17  3 23 11 21
  22587177.424   -10314816.310 7  -8037540.060 5
  24706520.939     2113210.511 6   1646624.299 2
  21818267.328   -16637561.459 8 -12964336.087 8
  25741569.087    -1764466.289 5  -1374908.548 1
  22327861.743   -17687506.939 8 -13782463.530 6
 91 12  4 18 48 30.0030000  0  5 17  3 23 11 21
  22597257.647   -10261845.985 7  -7996264.585 3
  24729959.600     2236354.222 6   1742580.227 3
  21823789.798   -16608527.921 8 -12941712.569 8
  25720863.322    -1873234.748 5  -1459663.174 3
  22320039.561   -17728614.572 8 -13814495.457 5
 91 12  4 18 49  0.0030000  0  5 17  3 23 11 21
  22607407.112   -10208511.409 7  -7954705.275 4
  24753457.645     2359811.562 5   1838780.509
  21829378.841   -16579161.608 8 -12918829.759 8
  25700182.737    -1981850.424 5  -1544298.719 3
  22312279.432   -17769378.077 8 -13846259.226 6
 91 12  4 18 49 30.0030000  0  5 17  3 23 11 21
  22617618.648   -10154842.896 7  -7912885.741 4
  24777003.032     2483569.679 5   1935215.579 1
  21835029.030   -16549465.138 8 -12895689.669 8
  25679547.715    -2090320.718 5  -1628820.867 2
  22304589.156   -17809810.122 8 -13877764.703 5
 91 12  4 18 50  0.0030000  0  5 17  3 23 11 21
  22627888.939   -10100884.462 7  -7870840.309 4
  24800607.801     2607607.079 5   2031868.243 2
  21840739.770   -16519464.734 8 -12872312.741 8
  25658932.185    -2198661.520 5  -1713242.122 2
  22296950.742   -17849931.379 8 -13909028.013 5
 91 12  4 18 50 30.0030000  0  5 17  3 23 11 21
  22638209.294   -10046643.731 7  -7828574.886 5
  24824252.724     2731911.058 5   2128728.224 3
  21846502.984   -16489176.599 8 -12848711.619 8
  25638342.446    -2306879.695 6  -1797567.925
  22289376.178   -17889751.613 8 -13940056.755 6
 91 12  4 18 51  0.0030000  0  5 17  3 23 11 21
  22648577.917    -9992151.855 7  -7786113.785 5
  24847961.218     2856446.584 5   2225769.152 2
  21852315.058   -16458630.081 8 -12824909.148 8
  25617772.479    -2415004.535 6  -1881820.931 1
  22281848.992   -17929292.673 8 -13970867.960 7
 91 12  4 18 51 30.0030000  0  5 17  3 23 11 21
  22658990.305    -9937442.530 7  -7743483.225 5
  24871697.877     2981185.306 5   2322968.293 3
  21858169.711   -16427865.532 8 -12800936.795 7
  25597217.518    -2523058.262 6  -1966018.424 1
  22274374.575   -17968584.174 8 -14001484.693 6
 91 12  4 18 52  0.0030000  0  5 17  3 23 11 21
  22669446.475    -9882487.729 7  -7700661.368 5
  24895475.020     3106124.140 5   2420323.424 2
  21864062.423   -16396897.962 8 -12776806.236 8
  25576657.445    -2631038.496 6  -2050158.807 3
  22266945.721   -18007619.673 8 -14031901.928 6
 91 12  4 18 52 30.0030000  0  5 17  3 23 11 21
  22679956.898    -9827257.449 7  -7657624.856 4
  24919287.535     3231265.669 5   2517836.048 2
  21869996.823   -16365710.828 8 -12752504.594 8
  25556126.164    -2738937.325 6  -2134235.604 1
  22259573.213   -18046381.123 8 -14062105.635 6
 91 12  4 18 53  0.0030000  0  5 17  3 23 11 21
  22690520.684    -9771743.094 7  -7614366.994 4
  24943144.426     3356615.876 6   2615511.768 2
  21875974.378   -16334297.708 8 -12728026.860 7
  25535619.157    -2846742.619 6  -2218239.558 2
  22252247.786   -18084857.002 8 -14092086.797 6
 91 12  4 18 53 30.0030000  0  5 17  3 23 11 21
  22701145.616    -9715928.439 7  -7570875.097 4
  24967036.374     3482182.827 6   2713356.220 1
  21881998.716   -16302649.676 8 -12703366.089 8
  25515118.746    -2954440.450 6  -2302159.783 1
  22244978.724   -18123050.903 8 -14121848.259 6
 91 12  4 18 54  0.0030000  0  5 17  3 23 11 21
  22711824.538    -9659791.320 7  -7527131.949 5
  24990973.902     3607984.320 5   2811383.604 3
  21888071.601   -16270733.523 8 -12678496.385 7
  25494653.113    -3062007.479 6  -2385978.028 3
  22237768.119   -18160947.270 8 -14151377.869 6
 91 12  4 18 54 30.0030000  0  5 17  3 23 11 21
  22722566.700    -9603329.635 7  -7483135.901 4
  25014963.310     3734037.534 5   2909607.132 2
  21894203.852   -16238522.054 8 -12653396.561 8
  25474207.565    -3169420.640 6  -2469676.444 2
  22230614.158   -18198533.100 8 -14180665.488 6
 91 12  4 18 55  0.0030000  0  5 17  3 23 11 21
  22733378.402    -9546544.100 7  -7438887.507 3
  25038999.466     3860352.374 5   3008034.397 2
  21900384.074   -16206030.030 8 -12628078.139 8
  25453802.206    -3276664.507 6  -2553242.847 3
  22223521.674   -18235812.607 8 -14209714.425 6
 91 12  4 18 55 30.0030000  0  5 17  3 23 11 21
  22744247.985    -9489423.038 7  -7394377.665 5
  25063086.892     3986942.201 5   3106675.980 3
  21906621.270   -16173252.271 8 -12602537.067 8
  25433432.497    -3383719.455 6  -2636662.197 2
  22216490.336   -18272766.816 8 -14238509.877 6
 91 12  4 18 56  0.0030000  0  5 17  3 23 11 21
  22755180.215    -9431967.742 7  -7349607.358 3
  25087226.773     4113814.299 5   3205537.132 2
  21912911.515   -16140194.621 8 -12576777.911 7
  25413095.472    -3490572.280 6  -2719924.330 3
  22209524.959   -18309376.586 8 -14267036.943 6
 91 12  4 18 56 30.0030000  0  5 17  3 23 11 21
  22766175.109    -9374180.931 7  -7304578.752 3
  25111424.222     4240964.368 5   3304615.299 2
  21919253.919   -16106871.771 8 -12550812.105 8
  25392802.823    -3597221.719 6  -2803027.686 2
  22202623.450   -18345635.995 8 -14295290.979 6
 91 12  4 18 57  0.0030000  0  5 17  3 23 11 21
  22777232.648    -9316070.745 7  -7259298.142 4
  25135670.235     4368380.658 4   3403900.772 2
  21925642.496   -16073292.858 8 -12524646.766 8
  25372541.654    -3703673.518 5  -2885977.358 3
  22195788.776   -18381536.089 8 -14323265.036 6
 91 12  4 18 57 30.0030000  0  5 17  3 23 11 21
  22788351.055    -9257645.865 7  -7213772.349 3
  25159964.812     4496046.984 4   3503381.250 2
  21932083.843   -16039440.626 8 -12498268.455 8
  25352325.455    -3809938.211 5  -2968780.931 2
  22189028.160   -18417071.311 8 -14350954.776 6
 91 12  4 18 58  0.0030000  0  5 17  3 23 11 21
  22799527.308    -9198909.211 7  -7168003.607 5
  25184300.764     4623941.074 4   3603039.066 1
  21938579.442   -16005312.874 8 -12471675.471 8
  25332132.621    -3916031.838 5  -3051451.481 1
  22182331.098   -18452269.295 8 -14378381.741 6
 91 12  4 18 58 30.0030000  0  5 17  3 23 11 21
  22810766.243    -9139864.234 7  -7121994.622 5
  25208684.389     4752039.244 5   3702855.971 4
  21945124.809   -15970918.955 8 -12444875.083 8
  25311977.882    -4021972.064 6  -3134002.218 3
  22175692.494   -18487153.284 8 -14405564.023 6
 91 12  4 18 59  0.0030000  0  5 17  3 23 11 21
  22822060.914    -9080499.237 7  -7075736.265 4
  25233097.087     4880352.772 5   3802840.712 2
  21951722.335   -15936248.174 8 -12417858.963 7
  25291845.618    -4127742.346 6  -3216420.393 2
  22169113.535   -18521719.891 8 -14432498.985 5
 91 12  4 18 59 30.0030000  0  5 17  3 23 11 21
  22833422.751    -9020789.533 7  -7029209.321 3
  25257564.648     5008900.828 5   3903008.064 1
  21958377.429   -15901281.337 8 -12390612.144 7
  25271752.634    -4233317.189 6  -3298686.364 4
  22162596.054   -18555978.142 8 -14459193.701 6
 91 12  4 19  0  0.0030000  0  5 17  3 23 11 21
  22844830.761    -8960847.637 7  -6982501.424 5
  25282048.403     5137574.052 5   4003273.148
  21965060.706   -15866152.089 8 -12363238.777 7
  25251683.331    -4338799.623 6  -3380880.213 1
  22156109.738   -18590051.695 8 -14485744.495 7
 91 12  4 19  0 30.0030000  0  5 17  3 23 11 21
  22856308.310    -8900534.825 7  -6935504.529 4
  25306589.412     5266527.266 5   4103756.362 2
  21971802.144   -15830717.352 8 -12335627.369 7
  25231654.791    -4444029.269 6  -3462877.197 4
  22149693.589   -18623776.968 8 -14512023.911 6
 91 12  4 19  1  0.0030000  0  5 17  3 23 11 21
  22867844.614    -8839922.040 7  -6888273.890 4
  25331169.998     5395697.298 5   4204408.401 2
  21978594.239   -15795029.515 8 -12307818.732 7
  25211669.127    -4549063.241 6  -3544721.746 2
  22143332.898   -18657213.336 8 -14538078.203 6
